<?xml version="1.0" encoding="UTF-8" standalone="no" ?>
<gpx xmlns="http://www.topografix.com/GPX/1/1" xmlns:xsi="http://www.w3.org/2001/XMLSchema-instance" xsi:schemaLocation="http://www.topografix.com/GPX/1/1 http://www.topografix.com/GPX/1/1/gpx.xsd" version="1.1" creator="VisuGPX - https://www.visugpx.com">
  <metadata>
    <name>Vers en Montagne,La Fontaine du Fou</name>
  </metadata>
  <trk>
    <name><![CDATA[Vers en Montagne,La Fontaine du Fou_1]]></name>
    <trkseg>
      <trkpt lat="46.82918" lon="5.9175">
        <ele>595.2</ele>
        <time>2021-02-09T13:31:53Z</time>
      </trkpt>
      <trkpt lat="46.82922" lon="5.91747">
        <ele>598.1</ele>
        <time>2021-02-09T13:32:03Z</time>
      </trkpt>
      <trkpt lat="46.82918" lon="5.91746">
        <ele>598.8</ele>
        <time>2021-02-09T13:33:08Z</time>
      </trkpt>
      <trkpt lat="46.82914" lon="5.91744">
        <ele>598.3</ele>
        <time>2021-02-09T13:34:32Z</time>
      </trkpt>
      <trkpt lat="46.82912" lon="5.91738">
        <ele>597.6</ele>
        <time>2021-02-09T13:34:37Z</time>
      </trkpt>
      <trkpt lat="46.82911" lon="5.91731">
        <ele>596.9</ele>
        <time>2021-02-09T13:34:42Z</time>
      </trkpt>
      <trkpt lat="46.8291" lon="5.91724">
        <ele>596.6</ele>
        <time>2021-02-09T13:34:47Z</time>
      </trkpt>
      <trkpt lat="46.82909" lon="5.91716">
        <ele>597.2</ele>
        <time>2021-02-09T13:34:52Z</time>
      </trkpt>
      <trkpt lat="46.82908" lon="5.91709">
        <ele>598.3</ele>
        <time>2021-02-09T13:34:57Z</time>
      </trkpt>
      <trkpt lat="46.82907" lon="5.91703">
        <ele>600.2</ele>
        <time>2021-02-09T13:35:07Z</time>
      </trkpt>
      <trkpt lat="46.82907" lon="5.91696">
        <ele>600.3</ele>
        <time>2021-02-09T13:35:14Z</time>
      </trkpt>
      <trkpt lat="46.82908" lon="5.91689">
        <ele>600.3</ele>
        <time>2021-02-09T13:35:19Z</time>
      </trkpt>
      <trkpt lat="46.82908" lon="5.91681">
        <ele>600.3</ele>
        <time>2021-02-09T13:35:24Z</time>
      </trkpt>
      <trkpt lat="46.82908" lon="5.91674">
        <ele>600.4</ele>
        <time>2021-02-09T13:35:30Z</time>
      </trkpt>
      <trkpt lat="46.8291" lon="5.91668">
        <ele>600.8</ele>
        <time>2021-02-09T13:35:35Z</time>
      </trkpt>
      <trkpt lat="46.82909" lon="5.9166">
        <ele>601.7</ele>
        <time>2021-02-09T13:35:40Z</time>
      </trkpt>
      <trkpt lat="46.82909" lon="5.91653">
        <ele>601.8</ele>
        <time>2021-02-09T13:35:45Z</time>
      </trkpt>
      <trkpt lat="46.82908" lon="5.91645">
        <ele>601.2</ele>
        <time>2021-02-09T13:35:51Z</time>
      </trkpt>
      <trkpt lat="46.82909" lon="5.91637">
        <ele>600.1</ele>
        <time>2021-02-09T13:35:57Z</time>
      </trkpt>
      <trkpt lat="46.82911" lon="5.91631">
        <ele>598.6</ele>
        <time>2021-02-09T13:36:03Z</time>
      </trkpt>
      <trkpt lat="46.82912" lon="5.91624">
        <ele>597.1</ele>
        <time>2021-02-09T13:36:09Z</time>
      </trkpt>
      <trkpt lat="46.82911" lon="5.91616">
        <ele>595.8</ele>
        <time>2021-02-09T13:36:15Z</time>
      </trkpt>
      <trkpt lat="46.82909" lon="5.91609">
        <ele>595.6</ele>
        <time>2021-02-09T13:36:19Z</time>
      </trkpt>
      <trkpt lat="46.82907" lon="5.91602">
        <ele>595.5</ele>
        <time>2021-02-09T13:36:23Z</time>
      </trkpt>
      <trkpt lat="46.82906" lon="5.91595">
        <ele>595.2</ele>
        <time>2021-02-09T13:36:29Z</time>
      </trkpt>
      <trkpt lat="46.82906" lon="5.91587">
        <ele>594.5</ele>
        <time>2021-02-09T13:36:36Z</time>
      </trkpt>
      <trkpt lat="46.82905" lon="5.91581">
        <ele>594</ele>
        <time>2021-02-09T13:36:41Z</time>
      </trkpt>
      <trkpt lat="46.82903" lon="5.91574">
        <ele>594.1</ele>
        <time>2021-02-09T13:36:46Z</time>
      </trkpt>
      <trkpt lat="46.82904" lon="5.91567">
        <ele>594.7</ele>
        <time>2021-02-09T13:36:51Z</time>
      </trkpt>
      <trkpt lat="46.82905" lon="5.91559">
        <ele>595.6</ele>
        <time>2021-02-09T13:36:56Z</time>
      </trkpt>
      <trkpt lat="46.82908" lon="5.91553">
        <ele>596.5</ele>
        <time>2021-02-09T13:37:00Z</time>
      </trkpt>
      <trkpt lat="46.82908" lon="5.91546">
        <ele>597.4</ele>
        <time>2021-02-09T13:37:04Z</time>
      </trkpt>
      <trkpt lat="46.82909" lon="5.91539">
        <ele>598.8</ele>
        <time>2021-02-09T13:37:09Z</time>
      </trkpt>
      <trkpt lat="46.82911" lon="5.91531">
        <ele>600</ele>
        <time>2021-02-09T13:37:13Z</time>
      </trkpt>
      <trkpt lat="46.82912" lon="5.91524">
        <ele>600.6</ele>
        <time>2021-02-09T13:37:16Z</time>
      </trkpt>
      <trkpt lat="46.82914" lon="5.91517">
        <ele>601.2</ele>
        <time>2021-02-09T13:37:19Z</time>
      </trkpt>
      <trkpt lat="46.82916" lon="5.9151">
        <ele>601.9</ele>
        <time>2021-02-09T13:37:23Z</time>
      </trkpt>
      <trkpt lat="46.82917" lon="5.91503">
        <ele>602.7</ele>
        <time>2021-02-09T13:37:26Z</time>
      </trkpt>
      <trkpt lat="46.8292" lon="5.91496">
        <ele>603.9</ele>
        <time>2021-02-09T13:37:30Z</time>
      </trkpt>
      <trkpt lat="46.8292" lon="5.91489">
        <ele>605.6</ele>
        <time>2021-02-09T13:37:35Z</time>
      </trkpt>
      <trkpt lat="46.82918" lon="5.91481">
        <ele>607.1</ele>
        <time>2021-02-09T13:37:39Z</time>
      </trkpt>
      <trkpt lat="46.82916" lon="5.91474">
        <ele>608.5</ele>
        <time>2021-02-09T13:37:43Z</time>
      </trkpt>
      <trkpt lat="46.82915" lon="5.91467">
        <ele>610</ele>
        <time>2021-02-09T13:37:47Z</time>
      </trkpt>
      <trkpt lat="46.82914" lon="5.9146">
        <ele>611.9</ele>
        <time>2021-02-09T13:37:52Z</time>
      </trkpt>
      <trkpt lat="46.82912" lon="5.91454">
        <ele>613.2</ele>
        <time>2021-02-09T13:37:57Z</time>
      </trkpt>
      <trkpt lat="46.8291" lon="5.91447">
        <ele>613.9</ele>
        <time>2021-02-09T13:38:03Z</time>
      </trkpt>
      <trkpt lat="46.8291" lon="5.9144">
        <ele>613.8</ele>
        <time>2021-02-09T13:38:07Z</time>
      </trkpt>
      <trkpt lat="46.82908" lon="5.91432">
        <ele>613.7</ele>
        <time>2021-02-09T13:38:11Z</time>
      </trkpt>
      <trkpt lat="46.82908" lon="5.91424">
        <ele>613.9</ele>
        <time>2021-02-09T13:38:16Z</time>
      </trkpt>
      <trkpt lat="46.82907" lon="5.91417">
        <ele>614.3</ele>
        <time>2021-02-09T13:38:22Z</time>
      </trkpt>
      <trkpt lat="46.82905" lon="5.91411">
        <ele>614.8</ele>
        <time>2021-02-09T13:38:26Z</time>
      </trkpt>
      <trkpt lat="46.82905" lon="5.91403">
        <ele>614.9</ele>
        <time>2021-02-09T13:38:31Z</time>
      </trkpt>
      <trkpt lat="46.82906" lon="5.91395">
        <ele>614.7</ele>
        <time>2021-02-09T13:38:36Z</time>
      </trkpt>
      <trkpt lat="46.82906" lon="5.91388">
        <ele>614.4</ele>
        <time>2021-02-09T13:38:39Z</time>
      </trkpt>
      <trkpt lat="46.82906" lon="5.91382">
        <ele>614.3</ele>
        <time>2021-02-09T13:38:43Z</time>
      </trkpt>
      <trkpt lat="46.82905" lon="5.91373">
        <ele>614.3</ele>
        <time>2021-02-09T13:38:47Z</time>
      </trkpt>
      <trkpt lat="46.82902" lon="5.91368">
        <ele>614.1</ele>
        <time>2021-02-09T13:38:51Z</time>
      </trkpt>
      <trkpt lat="46.82901" lon="5.91361">
        <ele>613.5</ele>
        <time>2021-02-09T13:38:57Z</time>
      </trkpt>
      <trkpt lat="46.82902" lon="5.91355">
        <ele>613</ele>
        <time>2021-02-09T13:39:01Z</time>
      </trkpt>
      <trkpt lat="46.82903" lon="5.91348">
        <ele>612.4</ele>
        <time>2021-02-09T13:39:05Z</time>
      </trkpt>
      <trkpt lat="46.82904" lon="5.91341">
        <ele>611.6</ele>
        <time>2021-02-09T13:39:10Z</time>
      </trkpt>
      <trkpt lat="46.82904" lon="5.91333">
        <ele>610.8</ele>
        <time>2021-02-09T13:39:15Z</time>
      </trkpt>
      <trkpt lat="46.82906" lon="5.91326">
        <ele>610.1</ele>
        <time>2021-02-09T13:39:19Z</time>
      </trkpt>
      <trkpt lat="46.82907" lon="5.9132">
        <ele>609.6</ele>
        <time>2021-02-09T13:39:24Z</time>
      </trkpt>
      <trkpt lat="46.8291" lon="5.91314">
        <ele>608.3</ele>
        <time>2021-02-09T13:39:31Z</time>
      </trkpt>
      <trkpt lat="46.82915" lon="5.91313">
        <ele>606.4</ele>
        <time>2021-02-09T13:39:36Z</time>
      </trkpt>
      <trkpt lat="46.82913" lon="5.91306">
        <ele>601.9</ele>
        <time>2021-02-09T13:39:45Z</time>
      </trkpt>
      <trkpt lat="46.82912" lon="5.913">
        <ele>600.6</ele>
        <time>2021-02-09T13:39:49Z</time>
      </trkpt>
      <trkpt lat="46.82911" lon="5.9129">
        <ele>602.2</ele>
        <time>2021-02-09T13:39:52Z</time>
      </trkpt>
      <trkpt lat="46.8291" lon="5.91282">
        <ele>604.6</ele>
        <time>2021-02-09T13:39:55Z</time>
      </trkpt>
      <trkpt lat="46.82911" lon="5.91275">
        <ele>608.1</ele>
        <time>2021-02-09T13:40:03Z</time>
      </trkpt>
      <trkpt lat="46.82913" lon="5.91268">
        <ele>609</ele>
        <time>2021-02-09T13:40:07Z</time>
      </trkpt>
      <trkpt lat="46.82916" lon="5.9126">
        <ele>610</ele>
        <time>2021-02-09T13:40:11Z</time>
      </trkpt>
      <trkpt lat="46.82919" lon="5.91254">
        <ele>610.5</ele>
        <time>2021-02-09T13:40:16Z</time>
      </trkpt>
      <trkpt lat="46.82923" lon="5.91249">
        <ele>610.6</ele>
        <time>2021-02-09T13:40:22Z</time>
      </trkpt>
      <trkpt lat="46.82927" lon="5.91243">
        <ele>610.6</ele>
        <time>2021-02-09T13:40:26Z</time>
      </trkpt>
      <trkpt lat="46.82931" lon="5.91237">
        <ele>611.1</ele>
        <time>2021-02-09T13:40:29Z</time>
      </trkpt>
      <trkpt lat="46.82936" lon="5.91219">
        <ele>616.6</ele>
        <time>2021-02-09T13:40:32Z</time>
      </trkpt>
      <trkpt lat="46.82939" lon="5.91212">
        <ele>619.3</ele>
        <time>2021-02-09T13:40:35Z</time>
      </trkpt>
      <trkpt lat="46.8294" lon="5.91205">
        <ele>620.4</ele>
        <time>2021-02-09T13:40:38Z</time>
      </trkpt>
      <trkpt lat="46.8294" lon="5.91198">
        <ele>621</ele>
        <time>2021-02-09T13:40:41Z</time>
      </trkpt>
      <trkpt lat="46.82942" lon="5.9119">
        <ele>621.9</ele>
        <time>2021-02-09T13:40:45Z</time>
      </trkpt>
      <trkpt lat="46.82943" lon="5.91184">
        <ele>621.7</ele>
        <time>2021-02-09T13:40:52Z</time>
      </trkpt>
      <trkpt lat="46.82948" lon="5.9118">
        <ele>621.9</ele>
        <time>2021-02-09T13:40:58Z</time>
      </trkpt>
      <trkpt lat="46.82953" lon="5.91177">
        <ele>622.6</ele>
        <time>2021-02-09T13:41:03Z</time>
      </trkpt>
      <trkpt lat="46.82958" lon="5.91175">
        <ele>623.2</ele>
        <time>2021-02-09T13:41:07Z</time>
      </trkpt>
      <trkpt lat="46.82964" lon="5.91171">
        <ele>623.7</ele>
        <time>2021-02-09T13:41:11Z</time>
      </trkpt>
      <trkpt lat="46.82969" lon="5.91169">
        <ele>624.3</ele>
        <time>2021-02-09T13:41:14Z</time>
      </trkpt>
      <trkpt lat="46.82974" lon="5.91166">
        <ele>625.1</ele>
        <time>2021-02-09T13:41:18Z</time>
      </trkpt>
      <trkpt lat="46.82979" lon="5.91163">
        <ele>626.2</ele>
        <time>2021-02-09T13:41:23Z</time>
      </trkpt>
      <trkpt lat="46.82983" lon="5.9116">
        <ele>627.5</ele>
        <time>2021-02-09T13:41:27Z</time>
      </trkpt>
      <trkpt lat="46.82987" lon="5.91156">
        <ele>629</ele>
        <time>2021-02-09T13:41:32Z</time>
      </trkpt>
      <trkpt lat="46.82991" lon="5.91151">
        <ele>630.8</ele>
        <time>2021-02-09T13:41:38Z</time>
      </trkpt>
      <trkpt lat="46.82995" lon="5.91147">
        <ele>631.2</ele>
        <time>2021-02-09T13:41:51Z</time>
      </trkpt>
      <trkpt lat="46.82999" lon="5.91144">
        <ele>630.4</ele>
        <time>2021-02-09T13:41:58Z</time>
      </trkpt>
      <trkpt lat="46.83003" lon="5.91142">
        <ele>630.8</ele>
        <time>2021-02-09T13:42:04Z</time>
      </trkpt>
      <trkpt lat="46.83008" lon="5.91138">
        <ele>632</ele>
        <time>2021-02-09T13:42:10Z</time>
      </trkpt>
      <trkpt lat="46.83013" lon="5.91135">
        <ele>632.4</ele>
        <time>2021-02-09T13:42:14Z</time>
      </trkpt>
      <trkpt lat="46.83015" lon="5.91129">
        <ele>631.2</ele>
        <time>2021-02-09T13:42:21Z</time>
      </trkpt>
      <trkpt lat="46.83021" lon="5.91126">
        <ele>629.4</ele>
        <time>2021-02-09T13:42:25Z</time>
      </trkpt>
      <trkpt lat="46.83026" lon="5.91125">
        <ele>628.3</ele>
        <time>2021-02-09T13:42:29Z</time>
      </trkpt>
      <trkpt lat="46.83031" lon="5.91124">
        <ele>627.7</ele>
        <time>2021-02-09T13:42:32Z</time>
      </trkpt>
      <trkpt lat="46.83036" lon="5.91121">
        <ele>627.4</ele>
        <time>2021-02-09T13:42:36Z</time>
      </trkpt>
      <trkpt lat="46.83041" lon="5.91118">
        <ele>627.2</ele>
        <time>2021-02-09T13:42:41Z</time>
      </trkpt>
      <trkpt lat="46.83046" lon="5.91115">
        <ele>626.8</ele>
        <time>2021-02-09T13:42:46Z</time>
      </trkpt>
      <trkpt lat="46.83051" lon="5.91113">
        <ele>626.7</ele>
        <time>2021-02-09T13:42:50Z</time>
      </trkpt>
      <trkpt lat="46.83056" lon="5.91111">
        <ele>626.8</ele>
        <time>2021-02-09T13:42:55Z</time>
      </trkpt>
      <trkpt lat="46.83061" lon="5.9111">
        <ele>627.7</ele>
        <time>2021-02-09T13:43:02Z</time>
      </trkpt>
      <trkpt lat="46.83065" lon="5.91107">
        <ele>628.4</ele>
        <time>2021-02-09T13:43:08Z</time>
      </trkpt>
      <trkpt lat="46.83071" lon="5.91103">
        <ele>628.8</ele>
        <time>2021-02-09T13:43:13Z</time>
      </trkpt>
      <trkpt lat="46.83076" lon="5.911">
        <ele>628.8</ele>
        <time>2021-02-09T13:43:17Z</time>
      </trkpt>
      <trkpt lat="46.83081" lon="5.911">
        <ele>629.3</ele>
        <time>2021-02-09T13:43:22Z</time>
      </trkpt>
      <trkpt lat="46.83087" lon="5.91101">
        <ele>629.2</ele>
        <time>2021-02-09T13:43:29Z</time>
      </trkpt>
      <trkpt lat="46.83092" lon="5.91101">
        <ele>628.8</ele>
        <time>2021-02-09T13:43:33Z</time>
      </trkpt>
      <trkpt lat="46.83097" lon="5.91101">
        <ele>628.5</ele>
        <time>2021-02-09T13:43:37Z</time>
      </trkpt>
      <trkpt lat="46.83103" lon="5.911">
        <ele>628.4</ele>
        <time>2021-02-09T13:43:40Z</time>
      </trkpt>
      <trkpt lat="46.83109" lon="5.91099">
        <ele>628.3</ele>
        <time>2021-02-09T13:43:43Z</time>
      </trkpt>
      <trkpt lat="46.83114" lon="5.91098">
        <ele>628.3</ele>
        <time>2021-02-09T13:43:46Z</time>
      </trkpt>
      <trkpt lat="46.83119" lon="5.91097">
        <ele>628.1</ele>
        <time>2021-02-09T13:43:50Z</time>
      </trkpt>
      <trkpt lat="46.83121" lon="5.91091">
        <ele>626</ele>
        <time>2021-02-09T13:44:01Z</time>
      </trkpt>
      <trkpt lat="46.83126" lon="5.91088">
        <ele>624.6</ele>
        <time>2021-02-09T13:44:06Z</time>
      </trkpt>
      <trkpt lat="46.83131" lon="5.91087">
        <ele>623.6</ele>
        <time>2021-02-09T13:44:10Z</time>
      </trkpt>
      <trkpt lat="46.83136" lon="5.91086">
        <ele>622.6</ele>
        <time>2021-02-09T13:44:14Z</time>
      </trkpt>
      <trkpt lat="46.83141" lon="5.91085">
        <ele>621.7</ele>
        <time>2021-02-09T13:44:17Z</time>
      </trkpt>
      <trkpt lat="46.83147" lon="5.91082">
        <ele>620.7</ele>
        <time>2021-02-09T13:44:20Z</time>
      </trkpt>
      <trkpt lat="46.83152" lon="5.91079">
        <ele>619.9</ele>
        <time>2021-02-09T13:44:23Z</time>
      </trkpt>
      <trkpt lat="46.83157" lon="5.91078">
        <ele>619.4</ele>
        <time>2021-02-09T13:44:26Z</time>
      </trkpt>
      <trkpt lat="46.83161" lon="5.91074">
        <ele>619.2</ele>
        <time>2021-02-09T13:44:29Z</time>
      </trkpt>
      <trkpt lat="46.83165" lon="5.91069">
        <ele>618.1</ele>
        <time>2021-02-09T13:44:36Z</time>
      </trkpt>
      <trkpt lat="46.83168" lon="5.91064">
        <ele>615.9</ele>
        <time>2021-02-09T13:44:44Z</time>
      </trkpt>
      <trkpt lat="46.83173" lon="5.91064">
        <ele>613.7</ele>
        <time>2021-02-09T13:44:51Z</time>
      </trkpt>
      <trkpt lat="46.83178" lon="5.91062">
        <ele>612.6</ele>
        <time>2021-02-09T13:44:55Z</time>
      </trkpt>
      <trkpt lat="46.83182" lon="5.91059">
        <ele>611.6</ele>
        <time>2021-02-09T13:44:59Z</time>
      </trkpt>
      <trkpt lat="46.83186" lon="5.91057">
        <ele>610.7</ele>
        <time>2021-02-09T13:45:03Z</time>
      </trkpt>
      <trkpt lat="46.83192" lon="5.91053">
        <ele>610.2</ele>
        <time>2021-02-09T13:45:08Z</time>
      </trkpt>
      <trkpt lat="46.83198" lon="5.91051">
        <ele>610.6</ele>
        <time>2021-02-09T13:45:11Z</time>
      </trkpt>
      <trkpt lat="46.83204" lon="5.91049">
        <ele>610.8</ele>
        <time>2021-02-09T13:45:15Z</time>
      </trkpt>
      <trkpt lat="46.8321" lon="5.91049">
        <ele>611.2</ele>
        <time>2021-02-09T13:45:18Z</time>
      </trkpt>
      <trkpt lat="46.83216" lon="5.91049">
        <ele>611.4</ele>
        <time>2021-02-09T13:45:22Z</time>
      </trkpt>
      <trkpt lat="46.8322" lon="5.9105">
        <ele>611.7</ele>
        <time>2021-02-09T13:45:26Z</time>
      </trkpt>
      <trkpt lat="46.83225" lon="5.91051">
        <ele>611.9</ele>
        <time>2021-02-09T13:45:30Z</time>
      </trkpt>
      <trkpt lat="46.83229" lon="5.91051">
        <ele>611.9</ele>
        <time>2021-02-09T13:45:34Z</time>
      </trkpt>
      <trkpt lat="46.83234" lon="5.91053">
        <ele>611.5</ele>
        <time>2021-02-09T13:45:38Z</time>
      </trkpt>
      <trkpt lat="46.83239" lon="5.91054">
        <ele>611.2</ele>
        <time>2021-02-09T13:45:41Z</time>
      </trkpt>
      <trkpt lat="46.83243" lon="5.91055">
        <ele>611</ele>
        <time>2021-02-09T13:45:44Z</time>
      </trkpt>
      <trkpt lat="46.83248" lon="5.91054">
        <ele>610.9</ele>
        <time>2021-02-09T13:45:52Z</time>
      </trkpt>
      <trkpt lat="46.83253" lon="5.91056">
        <ele>610.9</ele>
        <time>2021-02-09T13:46:00Z</time>
      </trkpt>
      <trkpt lat="46.83257" lon="5.91057">
        <ele>610.8</ele>
        <time>2021-02-09T13:46:05Z</time>
      </trkpt>
      <trkpt lat="46.83262" lon="5.91062">
        <ele>611.2</ele>
        <time>2021-02-09T13:46:10Z</time>
      </trkpt>
      <trkpt lat="46.83266" lon="5.91065">
        <ele>611.7</ele>
        <time>2021-02-09T13:46:14Z</time>
      </trkpt>
      <trkpt lat="46.8327" lon="5.9107">
        <ele>612.1</ele>
        <time>2021-02-09T13:46:19Z</time>
      </trkpt>
      <trkpt lat="46.83275" lon="5.91073">
        <ele>612.2</ele>
        <time>2021-02-09T13:46:23Z</time>
      </trkpt>
      <trkpt lat="46.83279" lon="5.91077">
        <ele>612.4</ele>
        <time>2021-02-09T13:46:27Z</time>
      </trkpt>
      <trkpt lat="46.83284" lon="5.91079">
        <ele>612.8</ele>
        <time>2021-02-09T13:46:31Z</time>
      </trkpt>
      <trkpt lat="46.83289" lon="5.91082">
        <ele>613.3</ele>
        <time>2021-02-09T13:46:35Z</time>
      </trkpt>
      <trkpt lat="46.83293" lon="5.91087">
        <ele>613.7</ele>
        <time>2021-02-09T13:46:40Z</time>
      </trkpt>
      <trkpt lat="46.83298" lon="5.91086">
        <ele>614.4</ele>
        <time>2021-02-09T13:46:48Z</time>
      </trkpt>
      <trkpt lat="46.83302" lon="5.91085">
        <ele>612.4</ele>
        <time>2021-02-09T13:47:00Z</time>
      </trkpt>
      <trkpt lat="46.83307" lon="5.91081">
        <ele>611.2</ele>
        <time>2021-02-09T13:47:05Z</time>
      </trkpt>
      <trkpt lat="46.83312" lon="5.91079">
        <ele>610.6</ele>
        <time>2021-02-09T13:47:08Z</time>
      </trkpt>
      <trkpt lat="46.83317" lon="5.91077">
        <ele>610.1</ele>
        <time>2021-02-09T13:47:12Z</time>
      </trkpt>
      <trkpt lat="46.83322" lon="5.91074">
        <ele>609.4</ele>
        <time>2021-02-09T13:47:17Z</time>
      </trkpt>
      <trkpt lat="46.83325" lon="5.91069">
        <ele>605</ele>
        <time>2021-02-09T13:47:26Z</time>
      </trkpt>
      <trkpt lat="46.83329" lon="5.91064">
        <ele>601.1</ele>
        <time>2021-02-09T13:47:31Z</time>
      </trkpt>
      <trkpt lat="46.83335" lon="5.91062">
        <ele>598.8</ele>
        <time>2021-02-09T13:47:34Z</time>
      </trkpt>
      <trkpt lat="46.83339" lon="5.91059">
        <ele>596.8</ele>
        <time>2021-02-09T13:47:37Z</time>
      </trkpt>
      <trkpt lat="46.83343" lon="5.91053">
        <ele>596.6</ele>
        <time>2021-02-09T13:47:40Z</time>
      </trkpt>
      <trkpt lat="46.83347" lon="5.91047">
        <ele>596.2</ele>
        <time>2021-02-09T13:47:43Z</time>
      </trkpt>
      <trkpt lat="46.83349" lon="5.91041">
        <ele>595.9</ele>
        <time>2021-02-09T13:47:46Z</time>
      </trkpt>
      <trkpt lat="46.83352" lon="5.91035">
        <ele>595.4</ele>
        <time>2021-02-09T13:47:50Z</time>
      </trkpt>
      <trkpt lat="46.83354" lon="5.91029">
        <ele>593.7</ele>
        <time>2021-02-09T13:47:59Z</time>
      </trkpt>
      <trkpt lat="46.83359" lon="5.91026">
        <ele>593.4</ele>
        <time>2021-02-09T13:48:04Z</time>
      </trkpt>
      <trkpt lat="46.83364" lon="5.91024">
        <ele>593.9</ele>
        <time>2021-02-09T13:48:08Z</time>
      </trkpt>
      <trkpt lat="46.8337" lon="5.91022">
        <ele>594.3</ele>
        <time>2021-02-09T13:48:12Z</time>
      </trkpt>
      <trkpt lat="46.83375" lon="5.91019">
        <ele>594.6</ele>
        <time>2021-02-09T13:48:16Z</time>
      </trkpt>
      <trkpt lat="46.83379" lon="5.91019">
        <ele>595.4</ele>
        <time>2021-02-09T13:48:19Z</time>
      </trkpt>
      <trkpt lat="46.83384" lon="5.91017">
        <ele>596.2</ele>
        <time>2021-02-09T13:48:23Z</time>
      </trkpt>
      <trkpt lat="46.83388" lon="5.91012">
        <ele>597</ele>
        <time>2021-02-09T13:48:27Z</time>
      </trkpt>
      <trkpt lat="46.83392" lon="5.91007">
        <ele>597.4</ele>
        <time>2021-02-09T13:48:36Z</time>
      </trkpt>
      <trkpt lat="46.83396" lon="5.91004">
        <ele>597.4</ele>
        <time>2021-02-09T13:48:41Z</time>
      </trkpt>
      <trkpt lat="46.83401" lon="5.91001">
        <ele>597.2</ele>
        <time>2021-02-09T13:48:46Z</time>
      </trkpt>
      <trkpt lat="46.83406" lon="5.90996">
        <ele>597.4</ele>
        <time>2021-02-09T13:48:50Z</time>
      </trkpt>
      <trkpt lat="46.8341" lon="5.90991">
        <ele>597.6</ele>
        <time>2021-02-09T13:48:54Z</time>
      </trkpt>
      <trkpt lat="46.83414" lon="5.90986">
        <ele>597.8</ele>
        <time>2021-02-09T13:48:58Z</time>
      </trkpt>
      <trkpt lat="46.83418" lon="5.90982">
        <ele>597.8</ele>
        <time>2021-02-09T13:49:03Z</time>
      </trkpt>
      <trkpt lat="46.83422" lon="5.90978">
        <ele>597.5</ele>
        <time>2021-02-09T13:49:08Z</time>
      </trkpt>
      <trkpt lat="46.83426" lon="5.90974">
        <ele>597.2</ele>
        <time>2021-02-09T13:49:12Z</time>
      </trkpt>
      <trkpt lat="46.83431" lon="5.90972">
        <ele>596.9</ele>
        <time>2021-02-09T13:49:16Z</time>
      </trkpt>
      <trkpt lat="46.83435" lon="5.90968">
        <ele>596.3</ele>
        <time>2021-02-09T13:49:21Z</time>
      </trkpt>
      <trkpt lat="46.8344" lon="5.90964">
        <ele>595.6</ele>
        <time>2021-02-09T13:49:26Z</time>
      </trkpt>
      <trkpt lat="46.83443" lon="5.9096">
        <ele>595</ele>
        <time>2021-02-09T13:49:34Z</time>
      </trkpt>
      <trkpt lat="46.83448" lon="5.90957">
        <ele>594.8</ele>
        <time>2021-02-09T13:49:38Z</time>
      </trkpt>
      <trkpt lat="46.83452" lon="5.90954">
        <ele>594.6</ele>
        <time>2021-02-09T13:49:41Z</time>
      </trkpt>
      <trkpt lat="46.83455" lon="5.90946">
        <ele>595.6</ele>
        <time>2021-02-09T13:49:44Z</time>
      </trkpt>
      <trkpt lat="46.83458" lon="5.90925">
        <ele>603.8</ele>
        <time>2021-02-09T13:49:47Z</time>
      </trkpt>
      <trkpt lat="46.83462" lon="5.90916">
        <ele>609.3</ele>
        <time>2021-02-09T13:49:50Z</time>
      </trkpt>
      <trkpt lat="46.83466" lon="5.90912">
        <ele>613.1</ele>
        <time>2021-02-09T13:49:53Z</time>
      </trkpt>
      <trkpt lat="46.8347" lon="5.90908">
        <ele>616.8</ele>
        <time>2021-02-09T13:49:57Z</time>
      </trkpt>
      <trkpt lat="46.83475" lon="5.90905">
        <ele>621.4</ele>
        <time>2021-02-09T13:50:09Z</time>
      </trkpt>
      <trkpt lat="46.83479" lon="5.90902">
        <ele>622.6</ele>
        <time>2021-02-09T13:50:14Z</time>
      </trkpt>
      <trkpt lat="46.83483" lon="5.90899">
        <ele>623.7</ele>
        <time>2021-02-09T13:50:18Z</time>
      </trkpt>
      <trkpt lat="46.83488" lon="5.90898">
        <ele>624.6</ele>
        <time>2021-02-09T13:50:21Z</time>
      </trkpt>
      <trkpt lat="46.83493" lon="5.90896">
        <ele>626.1</ele>
        <time>2021-02-09T13:50:26Z</time>
      </trkpt>
      <trkpt lat="46.83498" lon="5.90896">
        <ele>627.2</ele>
        <time>2021-02-09T13:50:31Z</time>
      </trkpt>
      <trkpt lat="46.83503" lon="5.90897">
        <ele>627.5</ele>
        <time>2021-02-09T13:50:37Z</time>
      </trkpt>
      <trkpt lat="46.83508" lon="5.90897">
        <ele>627.2</ele>
        <time>2021-02-09T13:50:41Z</time>
      </trkpt>
      <trkpt lat="46.83513" lon="5.90895">
        <ele>626.5</ele>
        <time>2021-02-09T13:50:46Z</time>
      </trkpt>
      <trkpt lat="46.83517" lon="5.90895">
        <ele>625.8</ele>
        <time>2021-02-09T13:50:50Z</time>
      </trkpt>
      <trkpt lat="46.83522" lon="5.90896">
        <ele>625.1</ele>
        <time>2021-02-09T13:50:54Z</time>
      </trkpt>
      <trkpt lat="46.83527" lon="5.90895">
        <ele>624.1</ele>
        <time>2021-02-09T13:50:59Z</time>
      </trkpt>
      <trkpt lat="46.83533" lon="5.90896">
        <ele>623.3</ele>
        <time>2021-02-09T13:51:03Z</time>
      </trkpt>
      <trkpt lat="46.8354" lon="5.90897">
        <ele>622.8</ele>
        <time>2021-02-09T13:51:06Z</time>
      </trkpt>
      <trkpt lat="46.83545" lon="5.90897">
        <ele>622.3</ele>
        <time>2021-02-09T13:51:09Z</time>
      </trkpt>
      <trkpt lat="46.8355" lon="5.90898">
        <ele>621.5</ele>
        <time>2021-02-09T13:51:12Z</time>
      </trkpt>
      <trkpt lat="46.83555" lon="5.90899">
        <ele>620</ele>
        <time>2021-02-09T13:51:16Z</time>
      </trkpt>
      <trkpt lat="46.8356" lon="5.909">
        <ele>618.7</ele>
        <time>2021-02-09T13:51:21Z</time>
      </trkpt>
      <trkpt lat="46.83565" lon="5.90901">
        <ele>618</ele>
        <time>2021-02-09T13:51:28Z</time>
      </trkpt>
      <trkpt lat="46.83569" lon="5.90901">
        <ele>617.8</ele>
        <time>2021-02-09T13:51:33Z</time>
      </trkpt>
      <trkpt lat="46.83575" lon="5.90903">
        <ele>617.6</ele>
        <time>2021-02-09T13:51:37Z</time>
      </trkpt>
      <trkpt lat="46.8358" lon="5.90903">
        <ele>617.3</ele>
        <time>2021-02-09T13:51:41Z</time>
      </trkpt>
      <trkpt lat="46.83585" lon="5.90903">
        <ele>617</ele>
        <time>2021-02-09T13:51:48Z</time>
      </trkpt>
      <trkpt lat="46.83589" lon="5.90899">
        <ele>616.7</ele>
        <time>2021-02-09T13:51:54Z</time>
      </trkpt>
      <trkpt lat="46.83593" lon="5.90896">
        <ele>615.9</ele>
        <time>2021-02-09T13:52:03Z</time>
      </trkpt>
      <trkpt lat="46.83598" lon="5.90895">
        <ele>615.9</ele>
        <time>2021-02-09T13:52:07Z</time>
      </trkpt>
      <trkpt lat="46.83603" lon="5.90894">
        <ele>616</ele>
        <time>2021-02-09T13:52:11Z</time>
      </trkpt>
      <trkpt lat="46.83609" lon="5.90892">
        <ele>615.9</ele>
        <time>2021-02-09T13:52:15Z</time>
      </trkpt>
      <trkpt lat="46.83614" lon="5.9089">
        <ele>616.2</ele>
        <time>2021-02-09T13:52:18Z</time>
      </trkpt>
      <trkpt lat="46.83619" lon="5.90888">
        <ele>616.2</ele>
        <time>2021-02-09T13:52:21Z</time>
      </trkpt>
      <trkpt lat="46.83624" lon="5.90886">
        <ele>616.6</ele>
        <time>2021-02-09T13:52:25Z</time>
      </trkpt>
      <trkpt lat="46.83626" lon="5.90879">
        <ele>608.3</ele>
        <time>2021-02-09T13:52:39Z</time>
      </trkpt>
      <trkpt lat="46.8363" lon="5.90876">
        <ele>604.8</ele>
        <time>2021-02-09T13:52:45Z</time>
      </trkpt>
      <trkpt lat="46.83633" lon="5.90872">
        <ele>603.3</ele>
        <time>2021-02-09T13:52:50Z</time>
      </trkpt>
      <trkpt lat="46.83638" lon="5.90867">
        <ele>603.3</ele>
        <time>2021-02-09T13:52:54Z</time>
      </trkpt>
      <trkpt lat="46.83643" lon="5.90863">
        <ele>604.1</ele>
        <time>2021-02-09T13:52:57Z</time>
      </trkpt>
      <trkpt lat="46.83647" lon="5.9086">
        <ele>605.5</ele>
        <time>2021-02-09T13:53:00Z</time>
      </trkpt>
      <trkpt lat="46.83651" lon="5.90857">
        <ele>608.3</ele>
        <time>2021-02-09T13:53:04Z</time>
      </trkpt>
      <trkpt lat="46.83655" lon="5.90853">
        <ele>611.6</ele>
        <time>2021-02-09T13:53:08Z</time>
      </trkpt>
      <trkpt lat="46.83659" lon="5.90848">
        <ele>614.2</ele>
        <time>2021-02-09T13:53:11Z</time>
      </trkpt>
      <trkpt lat="46.83661" lon="5.90841">
        <ele>616.8</ele>
        <time>2021-02-09T13:53:14Z</time>
      </trkpt>
      <trkpt lat="46.83665" lon="5.90835">
        <ele>619.7</ele>
        <time>2021-02-09T13:53:18Z</time>
      </trkpt>
      <trkpt lat="46.83666" lon="5.90827">
        <ele>622.7</ele>
        <time>2021-02-09T13:53:23Z</time>
      </trkpt>
      <trkpt lat="46.83669" lon="5.90822">
        <ele>625.1</ele>
        <time>2021-02-09T13:53:27Z</time>
      </trkpt>
      <trkpt lat="46.83671" lon="5.90816">
        <ele>627.3</ele>
        <time>2021-02-09T13:53:32Z</time>
      </trkpt>
      <trkpt lat="46.83673" lon="5.90809">
        <ele>629.5</ele>
        <time>2021-02-09T13:53:37Z</time>
      </trkpt>
      <trkpt lat="46.83676" lon="5.90804">
        <ele>631.2</ele>
        <time>2021-02-09T13:53:41Z</time>
      </trkpt>
      <trkpt lat="46.8368" lon="5.90799">
        <ele>633.1</ele>
        <time>2021-02-09T13:53:46Z</time>
      </trkpt>
      <trkpt lat="46.83684" lon="5.90794">
        <ele>635</ele>
        <time>2021-02-09T13:53:51Z</time>
      </trkpt>
      <trkpt lat="46.83687" lon="5.90789">
        <ele>635.9</ele>
        <time>2021-02-09T13:53:55Z</time>
      </trkpt>
      <trkpt lat="46.83689" lon="5.90783">
        <ele>636.5</ele>
        <time>2021-02-09T13:53:59Z</time>
      </trkpt>
      <trkpt lat="46.83692" lon="5.90777">
        <ele>636.2</ele>
        <time>2021-02-09T13:54:03Z</time>
      </trkpt>
      <trkpt lat="46.83696" lon="5.90772">
        <ele>636</ele>
        <time>2021-02-09T13:54:06Z</time>
      </trkpt>
      <trkpt lat="46.837" lon="5.90767">
        <ele>635.9</ele>
        <time>2021-02-09T13:54:10Z</time>
      </trkpt>
      <trkpt lat="46.83702" lon="5.90761">
        <ele>634.2</ele>
        <time>2021-02-09T13:54:17Z</time>
      </trkpt>
      <trkpt lat="46.83704" lon="5.90754">
        <ele>631.3</ele>
        <time>2021-02-09T13:54:22Z</time>
      </trkpt>
      <trkpt lat="46.83705" lon="5.90747">
        <ele>626.9</ele>
        <time>2021-02-09T13:54:28Z</time>
      </trkpt>
      <trkpt lat="46.83706" lon="5.90739">
        <ele>622.9</ele>
        <time>2021-02-09T13:54:33Z</time>
      </trkpt>
      <trkpt lat="46.83708" lon="5.90732">
        <ele>619.1</ele>
        <time>2021-02-09T13:54:38Z</time>
      </trkpt>
      <trkpt lat="46.83709" lon="5.90725">
        <ele>615.4</ele>
        <time>2021-02-09T13:54:43Z</time>
      </trkpt>
      <trkpt lat="46.83711" lon="5.90718">
        <ele>612</ele>
        <time>2021-02-09T13:54:48Z</time>
      </trkpt>
      <trkpt lat="46.83714" lon="5.90711">
        <ele>608.8</ele>
        <time>2021-02-09T13:54:53Z</time>
      </trkpt>
      <trkpt lat="46.83717" lon="5.90706">
        <ele>606.9</ele>
        <time>2021-02-09T13:54:57Z</time>
      </trkpt>
      <trkpt lat="46.83721" lon="5.907">
        <ele>605.4</ele>
        <time>2021-02-09T13:55:01Z</time>
      </trkpt>
      <trkpt lat="46.83724" lon="5.90693">
        <ele>603.6</ele>
        <time>2021-02-09T13:55:06Z</time>
      </trkpt>
      <trkpt lat="46.83727" lon="5.90687">
        <ele>601.9</ele>
        <time>2021-02-09T13:55:12Z</time>
      </trkpt>
      <trkpt lat="46.83728" lon="5.90681">
        <ele>599.4</ele>
        <time>2021-02-09T13:55:20Z</time>
      </trkpt>
      <trkpt lat="46.83728" lon="5.90674">
        <ele>597.3</ele>
        <time>2021-02-09T13:55:26Z</time>
      </trkpt>
      <trkpt lat="46.83727" lon="5.90666">
        <ele>596.2</ele>
        <time>2021-02-09T13:55:30Z</time>
      </trkpt>
      <trkpt lat="46.83728" lon="5.90658">
        <ele>595.1</ele>
        <time>2021-02-09T13:55:35Z</time>
      </trkpt>
      <trkpt lat="46.83729" lon="5.90651">
        <ele>594.8</ele>
        <time>2021-02-09T13:55:38Z</time>
      </trkpt>
      <trkpt lat="46.83732" lon="5.90644">
        <ele>594.2</ele>
        <time>2021-02-09T13:55:42Z</time>
      </trkpt>
      <trkpt lat="46.83733" lon="5.90637">
        <ele>593.4</ele>
        <time>2021-02-09T13:55:46Z</time>
      </trkpt>
      <trkpt lat="46.83734" lon="5.90631">
        <ele>592.4</ele>
        <time>2021-02-09T13:55:51Z</time>
      </trkpt>
      <trkpt lat="46.83736" lon="5.90624">
        <ele>591.3</ele>
        <time>2021-02-09T13:55:58Z</time>
      </trkpt>
      <trkpt lat="46.83739" lon="5.90619">
        <ele>590.4</ele>
        <time>2021-02-09T13:56:04Z</time>
      </trkpt>
      <trkpt lat="46.83742" lon="5.90613">
        <ele>589.5</ele>
        <time>2021-02-09T13:56:11Z</time>
      </trkpt>
      <trkpt lat="46.83746" lon="5.90607">
        <ele>588.4</ele>
        <time>2021-02-09T13:56:17Z</time>
      </trkpt>
      <trkpt lat="46.83749" lon="5.90601">
        <ele>587.6</ele>
        <time>2021-02-09T13:56:22Z</time>
      </trkpt>
      <trkpt lat="46.8375" lon="5.90595">
        <ele>586.9</ele>
        <time>2021-02-09T13:56:28Z</time>
      </trkpt>
      <trkpt lat="46.83752" lon="5.90588">
        <ele>586.2</ele>
        <time>2021-02-09T13:56:34Z</time>
      </trkpt>
      <trkpt lat="46.83756" lon="5.90583">
        <ele>585.5</ele>
        <time>2021-02-09T13:56:39Z</time>
      </trkpt>
      <trkpt lat="46.83758" lon="5.90575">
        <ele>584.4</ele>
        <time>2021-02-09T13:56:44Z</time>
      </trkpt>
      <trkpt lat="46.8376" lon="5.90567">
        <ele>584</ele>
        <time>2021-02-09T13:56:48Z</time>
      </trkpt>
      <trkpt lat="46.83762" lon="5.9056">
        <ele>583.3</ele>
        <time>2021-02-09T13:56:52Z</time>
      </trkpt>
      <trkpt lat="46.83762" lon="5.90553">
        <ele>581</ele>
        <time>2021-02-09T13:56:57Z</time>
      </trkpt>
      <trkpt lat="46.83762" lon="5.90545">
        <ele>577.4</ele>
        <time>2021-02-09T13:57:02Z</time>
      </trkpt>
      <trkpt lat="46.83761" lon="5.90539">
        <ele>574</ele>
        <time>2021-02-09T13:57:06Z</time>
      </trkpt>
      <trkpt lat="46.83763" lon="5.90533">
        <ele>569.8</ele>
        <time>2021-02-09T13:57:11Z</time>
      </trkpt>
      <trkpt lat="46.83767" lon="5.90527">
        <ele>566.3</ele>
        <time>2021-02-09T13:57:16Z</time>
      </trkpt>
      <trkpt lat="46.8377" lon="5.90521">
        <ele>560.9</ele>
        <time>2021-02-09T13:57:24Z</time>
      </trkpt>
      <trkpt lat="46.83772" lon="5.90514">
        <ele>556.9</ele>
        <time>2021-02-09T13:57:30Z</time>
      </trkpt>
      <trkpt lat="46.83775" lon="5.90508">
        <ele>554.6</ele>
        <time>2021-02-09T13:57:34Z</time>
      </trkpt>
      <trkpt lat="46.83777" lon="5.90501">
        <ele>551.9</ele>
        <time>2021-02-09T13:57:39Z</time>
      </trkpt>
      <trkpt lat="46.83778" lon="5.90494">
        <ele>549.4</ele>
        <time>2021-02-09T13:57:44Z</time>
      </trkpt>
      <trkpt lat="46.83779" lon="5.90487">
        <ele>546.9</ele>
        <time>2021-02-09T13:57:50Z</time>
      </trkpt>
      <trkpt lat="46.83781" lon="5.90481">
        <ele>545.1</ele>
        <time>2021-02-09T13:57:57Z</time>
      </trkpt>
      <trkpt lat="46.83778" lon="5.90475">
        <ele>546.5</ele>
        <time>2021-02-09T13:58:05Z</time>
      </trkpt>
      <trkpt lat="46.83779" lon="5.90469">
        <ele>549.2</ele>
        <time>2021-02-09T13:58:15Z</time>
      </trkpt>
      <trkpt lat="46.83783" lon="5.90463">
        <ele>550.7</ele>
        <time>2021-02-09T13:58:21Z</time>
      </trkpt>
      <trkpt lat="46.83786" lon="5.90455">
        <ele>552</ele>
        <time>2021-02-09T13:58:25Z</time>
      </trkpt>
      <trkpt lat="46.8379" lon="5.90446">
        <ele>553.5</ele>
        <time>2021-02-09T13:58:28Z</time>
      </trkpt>
      <trkpt lat="46.83794" lon="5.90439">
        <ele>554.7</ele>
        <time>2021-02-09T13:58:31Z</time>
      </trkpt>
      <trkpt lat="46.83798" lon="5.90431">
        <ele>556.3</ele>
        <time>2021-02-09T13:58:34Z</time>
      </trkpt>
      <trkpt lat="46.83802" lon="5.90425">
        <ele>557.3</ele>
        <time>2021-02-09T13:58:37Z</time>
      </trkpt>
      <trkpt lat="46.83804" lon="5.90419">
        <ele>557.4</ele>
        <time>2021-02-09T13:58:42Z</time>
      </trkpt>
      <trkpt lat="46.83802" lon="5.90412">
        <ele>557.2</ele>
        <time>2021-02-09T13:58:47Z</time>
      </trkpt>
      <trkpt lat="46.83803" lon="5.90404">
        <ele>557.3</ele>
        <time>2021-02-09T13:58:54Z</time>
      </trkpt>
      <trkpt lat="46.83804" lon="5.90397">
        <ele>558.5</ele>
        <time>2021-02-09T13:59:00Z</time>
      </trkpt>
      <trkpt lat="46.83806" lon="5.90389">
        <ele>560</ele>
        <time>2021-02-09T13:59:04Z</time>
      </trkpt>
      <trkpt lat="46.83807" lon="5.90381">
        <ele>561.9</ele>
        <time>2021-02-09T13:59:07Z</time>
      </trkpt>
      <trkpt lat="46.83812" lon="5.90375">
        <ele>563.9</ele>
        <time>2021-02-09T13:59:10Z</time>
      </trkpt>
      <trkpt lat="46.83818" lon="5.9037">
        <ele>565.9</ele>
        <time>2021-02-09T13:59:13Z</time>
      </trkpt>
      <trkpt lat="46.83823" lon="5.90366">
        <ele>567.8</ele>
        <time>2021-02-09T13:59:16Z</time>
      </trkpt>
      <trkpt lat="46.83828" lon="5.90362">
        <ele>570.2</ele>
        <time>2021-02-09T13:59:20Z</time>
      </trkpt>
      <trkpt lat="46.83832" lon="5.90359">
        <ele>571.9</ele>
        <time>2021-02-09T13:59:23Z</time>
      </trkpt>
      <trkpt lat="46.83836" lon="5.90355">
        <ele>574.4</ele>
        <time>2021-02-09T13:59:27Z</time>
      </trkpt>
      <trkpt lat="46.8384" lon="5.9035">
        <ele>578.4</ele>
        <time>2021-02-09T13:59:31Z</time>
      </trkpt>
      <trkpt lat="46.83842" lon="5.90344">
        <ele>582.6</ele>
        <time>2021-02-09T13:59:34Z</time>
      </trkpt>
      <trkpt lat="46.83847" lon="5.90339">
        <ele>586.6</ele>
        <time>2021-02-09T13:59:37Z</time>
      </trkpt>
      <trkpt lat="46.83851" lon="5.90334">
        <ele>591.5</ele>
        <time>2021-02-09T13:59:40Z</time>
      </trkpt>
      <trkpt lat="46.83858" lon="5.90329">
        <ele>596.9</ele>
        <time>2021-02-09T13:59:43Z</time>
      </trkpt>
      <trkpt lat="46.83863" lon="5.90325">
        <ele>602.3</ele>
        <time>2021-02-09T13:59:46Z</time>
      </trkpt>
      <trkpt lat="46.83867" lon="5.9032">
        <ele>609.6</ele>
        <time>2021-02-09T13:59:50Z</time>
      </trkpt>
      <trkpt lat="46.83871" lon="5.90315">
        <ele>616.9</ele>
        <time>2021-02-09T13:59:55Z</time>
      </trkpt>
      <trkpt lat="46.83876" lon="5.90313">
        <ele>620.4</ele>
        <time>2021-02-09T13:59:58Z</time>
      </trkpt>
      <trkpt lat="46.8388" lon="5.90308">
        <ele>624.8</ele>
        <time>2021-02-09T14:00:02Z</time>
      </trkpt>
      <trkpt lat="46.83884" lon="5.90303">
        <ele>628.3</ele>
        <time>2021-02-09T14:00:05Z</time>
      </trkpt>
      <trkpt lat="46.83888" lon="5.90299">
        <ele>631.7</ele>
        <time>2021-02-09T14:00:08Z</time>
      </trkpt>
      <trkpt lat="46.83892" lon="5.90294">
        <ele>635.4</ele>
        <time>2021-02-09T14:00:12Z</time>
      </trkpt>
      <trkpt lat="46.83896" lon="5.90291">
        <ele>637.4</ele>
        <time>2021-02-09T14:00:15Z</time>
      </trkpt>
      <trkpt lat="46.839" lon="5.90285">
        <ele>639</ele>
        <time>2021-02-09T14:00:22Z</time>
      </trkpt>
      <trkpt lat="46.83904" lon="5.90281">
        <ele>639.4</ele>
        <time>2021-02-09T14:00:27Z</time>
      </trkpt>
      <trkpt lat="46.83908" lon="5.90276">
        <ele>640.2</ele>
        <time>2021-02-09T14:00:33Z</time>
      </trkpt>
      <trkpt lat="46.83913" lon="5.90273">
        <ele>640.4</ele>
        <time>2021-02-09T14:00:38Z</time>
      </trkpt>
      <trkpt lat="46.83918" lon="5.9027">
        <ele>640.5</ele>
        <time>2021-02-09T14:00:42Z</time>
      </trkpt>
      <trkpt lat="46.83922" lon="5.90266">
        <ele>640.4</ele>
        <time>2021-02-09T14:00:47Z</time>
      </trkpt>
      <trkpt lat="46.83923" lon="5.9026">
        <ele>639.7</ele>
        <time>2021-02-09T14:00:53Z</time>
      </trkpt>
      <trkpt lat="46.83924" lon="5.90254">
        <ele>637.7</ele>
        <time>2021-02-09T14:01:00Z</time>
      </trkpt>
      <trkpt lat="46.83927" lon="5.90249">
        <ele>635.8</ele>
        <time>2021-02-09T14:01:05Z</time>
      </trkpt>
      <trkpt lat="46.83931" lon="5.90244">
        <ele>634</ele>
        <time>2021-02-09T14:01:09Z</time>
      </trkpt>
      <trkpt lat="46.83935" lon="5.90241">
        <ele>631.9</ele>
        <time>2021-02-09T14:01:13Z</time>
      </trkpt>
      <trkpt lat="46.8394" lon="5.90236">
        <ele>630.1</ele>
        <time>2021-02-09T14:01:17Z</time>
      </trkpt>
      <trkpt lat="46.83941" lon="5.9023">
        <ele>628.4</ele>
        <time>2021-02-09T14:01:21Z</time>
      </trkpt>
      <trkpt lat="46.83944" lon="5.90224">
        <ele>626.4</ele>
        <time>2021-02-09T14:01:26Z</time>
      </trkpt>
      <trkpt lat="46.83947" lon="5.90219">
        <ele>624.9</ele>
        <time>2021-02-09T14:01:31Z</time>
      </trkpt>
      <trkpt lat="46.83953" lon="5.90215">
        <ele>624</ele>
        <time>2021-02-09T14:01:35Z</time>
      </trkpt>
      <trkpt lat="46.83958" lon="5.90211">
        <ele>623.1</ele>
        <time>2021-02-09T14:01:39Z</time>
      </trkpt>
      <trkpt lat="46.83961" lon="5.90205">
        <ele>622.1</ele>
        <time>2021-02-09T14:01:44Z</time>
      </trkpt>
      <trkpt lat="46.83964" lon="5.902">
        <ele>621.1</ele>
        <time>2021-02-09T14:01:50Z</time>
      </trkpt>
      <trkpt lat="46.83965" lon="5.90194">
        <ele>619.9</ele>
        <time>2021-02-09T14:01:55Z</time>
      </trkpt>
      <trkpt lat="46.83969" lon="5.90188">
        <ele>618.8</ele>
        <time>2021-02-09T14:02:00Z</time>
      </trkpt>
      <trkpt lat="46.83973" lon="5.90184">
        <ele>618</ele>
        <time>2021-02-09T14:02:06Z</time>
      </trkpt>
      <trkpt lat="46.83977" lon="5.90179">
        <ele>617.8</ele>
        <time>2021-02-09T14:02:10Z</time>
      </trkpt>
      <trkpt lat="46.83981" lon="5.90176">
        <ele>617.7</ele>
        <time>2021-02-09T14:02:13Z</time>
      </trkpt>
      <trkpt lat="46.83986" lon="5.90171">
        <ele>617.4</ele>
        <time>2021-02-09T14:02:17Z</time>
      </trkpt>
      <trkpt lat="46.8399" lon="5.90167">
        <ele>617.1</ele>
        <time>2021-02-09T14:02:21Z</time>
      </trkpt>
      <trkpt lat="46.83995" lon="5.90163">
        <ele>616.9</ele>
        <time>2021-02-09T14:02:25Z</time>
      </trkpt>
      <trkpt lat="46.83999" lon="5.9016">
        <ele>616.8</ele>
        <time>2021-02-09T14:02:28Z</time>
      </trkpt>
      <trkpt lat="46.84004" lon="5.90156">
        <ele>616.7</ele>
        <time>2021-02-09T14:02:33Z</time>
      </trkpt>
      <trkpt lat="46.84008" lon="5.90152">
        <ele>616.6</ele>
        <time>2021-02-09T14:02:39Z</time>
      </trkpt>
      <trkpt lat="46.84012" lon="5.90147">
        <ele>616.7</ele>
        <time>2021-02-09T14:02:44Z</time>
      </trkpt>
      <trkpt lat="46.84016" lon="5.90141">
        <ele>616.6</ele>
        <time>2021-02-09T14:02:49Z</time>
      </trkpt>
      <trkpt lat="46.84019" lon="5.90135">
        <ele>616.5</ele>
        <time>2021-02-09T14:02:53Z</time>
      </trkpt>
      <trkpt lat="46.84023" lon="5.90129">
        <ele>616.4</ele>
        <time>2021-02-09T14:02:57Z</time>
      </trkpt>
      <trkpt lat="46.84025" lon="5.90122">
        <ele>616.3</ele>
        <time>2021-02-09T14:03:04Z</time>
      </trkpt>
      <trkpt lat="46.84028" lon="5.90116">
        <ele>616</ele>
        <time>2021-02-09T14:03:09Z</time>
      </trkpt>
      <trkpt lat="46.84032" lon="5.90112">
        <ele>616</ele>
        <time>2021-02-09T14:03:13Z</time>
      </trkpt>
      <trkpt lat="46.84037" lon="5.90107">
        <ele>616.4</ele>
        <time>2021-02-09T14:03:17Z</time>
      </trkpt>
      <trkpt lat="46.84042" lon="5.90102">
        <ele>617</ele>
        <time>2021-02-09T14:03:21Z</time>
      </trkpt>
      <trkpt lat="46.84046" lon="5.90098">
        <ele>618.6</ele>
        <time>2021-02-09T14:03:27Z</time>
      </trkpt>
      <trkpt lat="46.8405" lon="5.90093">
        <ele>620.1</ele>
        <time>2021-02-09T14:03:32Z</time>
      </trkpt>
      <trkpt lat="46.84054" lon="5.90089">
        <ele>622.4</ele>
        <time>2021-02-09T14:03:38Z</time>
      </trkpt>
      <trkpt lat="46.84057" lon="5.90084">
        <ele>625.1</ele>
        <time>2021-02-09T14:03:44Z</time>
      </trkpt>
      <trkpt lat="46.84061" lon="5.90079">
        <ele>627.4</ele>
        <time>2021-02-09T14:03:52Z</time>
      </trkpt>
      <trkpt lat="46.84065" lon="5.90075">
        <ele>628</ele>
        <time>2021-02-09T14:03:56Z</time>
      </trkpt>
      <trkpt lat="46.84069" lon="5.90071">
        <ele>628.6</ele>
        <time>2021-02-09T14:04:00Z</time>
      </trkpt>
      <trkpt lat="46.84074" lon="5.90067">
        <ele>629.6</ele>
        <time>2021-02-09T14:04:05Z</time>
      </trkpt>
      <trkpt lat="46.84077" lon="5.90061">
        <ele>630.5</ele>
        <time>2021-02-09T14:04:09Z</time>
      </trkpt>
      <trkpt lat="46.8408" lon="5.90055">
        <ele>631.5</ele>
        <time>2021-02-09T14:04:13Z</time>
      </trkpt>
      <trkpt lat="46.84084" lon="5.9005">
        <ele>632.4</ele>
        <time>2021-02-09T14:04:17Z</time>
      </trkpt>
      <trkpt lat="46.84086" lon="5.90044">
        <ele>633</ele>
        <time>2021-02-09T14:04:21Z</time>
      </trkpt>
      <trkpt lat="46.8409" lon="5.90038">
        <ele>632.6</ele>
        <time>2021-02-09T14:04:27Z</time>
      </trkpt>
      <trkpt lat="46.84094" lon="5.90034">
        <ele>631.7</ele>
        <time>2021-02-09T14:04:31Z</time>
      </trkpt>
      <trkpt lat="46.84099" lon="5.90029">
        <ele>631.2</ele>
        <time>2021-02-09T14:04:34Z</time>
      </trkpt>
      <trkpt lat="46.84103" lon="5.90024">
        <ele>630.9</ele>
        <time>2021-02-09T14:04:37Z</time>
      </trkpt>
      <trkpt lat="46.84106" lon="5.90019">
        <ele>630.7</ele>
        <time>2021-02-09T14:04:40Z</time>
      </trkpt>
      <trkpt lat="46.84108" lon="5.90012">
        <ele>630.1</ele>
        <time>2021-02-09T14:04:45Z</time>
      </trkpt>
      <trkpt lat="46.84109" lon="5.90005">
        <ele>629</ele>
        <time>2021-02-09T14:04:51Z</time>
      </trkpt>
      <trkpt lat="46.8411" lon="5.89998">
        <ele>628.2</ele>
        <time>2021-02-09T14:04:55Z</time>
      </trkpt>
      <trkpt lat="46.84112" lon="5.8999">
        <ele>627.2</ele>
        <time>2021-02-09T14:05:00Z</time>
      </trkpt>
      <trkpt lat="46.84111" lon="5.89982">
        <ele>626.2</ele>
        <time>2021-02-09T14:05:05Z</time>
      </trkpt>
      <trkpt lat="46.8411" lon="5.89976">
        <ele>625.3</ele>
        <time>2021-02-09T14:05:10Z</time>
      </trkpt>
      <trkpt lat="46.84111" lon="5.89967">
        <ele>624.3</ele>
        <time>2021-02-09T14:05:16Z</time>
      </trkpt>
      <trkpt lat="46.84113" lon="5.8996">
        <ele>624</ele>
        <time>2021-02-09T14:05:20Z</time>
      </trkpt>
      <trkpt lat="46.84113" lon="5.89952">
        <ele>623.4</ele>
        <time>2021-02-09T14:05:25Z</time>
      </trkpt>
      <trkpt lat="46.8411" lon="5.89947">
        <ele>623</ele>
        <time>2021-02-09T14:05:29Z</time>
      </trkpt>
      <trkpt lat="46.84112" lon="5.8994">
        <ele>622.8</ele>
        <time>2021-02-09T14:05:37Z</time>
      </trkpt>
      <trkpt lat="46.84113" lon="5.89934">
        <ele>623</ele>
        <time>2021-02-09T14:05:43Z</time>
      </trkpt>
      <trkpt lat="46.84111" lon="5.89928">
        <ele>622.7</ele>
        <time>2021-02-09T14:05:47Z</time>
      </trkpt>
      <trkpt lat="46.84113" lon="5.89921">
        <ele>621.9</ele>
        <time>2021-02-09T14:05:52Z</time>
      </trkpt>
      <trkpt lat="46.84116" lon="5.89917">
        <ele>621.4</ele>
        <time>2021-02-09T14:05:55Z</time>
      </trkpt>
      <trkpt lat="46.84121" lon="5.89913">
        <ele>620.9</ele>
        <time>2021-02-09T14:05:59Z</time>
      </trkpt>
      <trkpt lat="46.84119" lon="5.89906">
        <ele>622.5</ele>
        <time>2021-02-09T14:06:03Z</time>
      </trkpt>
      <trkpt lat="46.8412" lon="5.89898">
        <ele>625.2</ele>
        <time>2021-02-09T14:06:09Z</time>
      </trkpt>
      <trkpt lat="46.84122" lon="5.89891">
        <ele>627.4</ele>
        <time>2021-02-09T14:06:14Z</time>
      </trkpt>
      <trkpt lat="46.84119" lon="5.89882">
        <ele>629.7</ele>
        <time>2021-02-09T14:06:18Z</time>
      </trkpt>
      <trkpt lat="46.84118" lon="5.89875">
        <ele>631.5</ele>
        <time>2021-02-09T14:06:21Z</time>
      </trkpt>
      <trkpt lat="46.8412" lon="5.89867">
        <ele>633.6</ele>
        <time>2021-02-09T14:06:26Z</time>
      </trkpt>
      <trkpt lat="46.84122" lon="5.89862">
        <ele>634.8</ele>
        <time>2021-02-09T14:06:31Z</time>
      </trkpt>
      <trkpt lat="46.84125" lon="5.89855">
        <ele>635.9</ele>
        <time>2021-02-09T14:06:36Z</time>
      </trkpt>
      <trkpt lat="46.84128" lon="5.8985">
        <ele>636.7</ele>
        <time>2021-02-09T14:06:40Z</time>
      </trkpt>
      <trkpt lat="46.84132" lon="5.89844">
        <ele>637.5</ele>
        <time>2021-02-09T14:06:44Z</time>
      </trkpt>
      <trkpt lat="46.84136" lon="5.89839">
        <ele>638.2</ele>
        <time>2021-02-09T14:06:48Z</time>
      </trkpt>
      <trkpt lat="46.84141" lon="5.89834">
        <ele>638.5</ele>
        <time>2021-02-09T14:06:52Z</time>
      </trkpt>
      <trkpt lat="46.84144" lon="5.89829">
        <ele>639</ele>
        <time>2021-02-09T14:06:56Z</time>
      </trkpt>
      <trkpt lat="46.84146" lon="5.89823">
        <ele>639.4</ele>
        <time>2021-02-09T14:07:00Z</time>
      </trkpt>
      <trkpt lat="46.84148" lon="5.89816">
        <ele>639.8</ele>
        <time>2021-02-09T14:07:06Z</time>
      </trkpt>
      <trkpt lat="46.8415" lon="5.8981">
        <ele>639.7</ele>
        <time>2021-02-09T14:07:12Z</time>
      </trkpt>
      <trkpt lat="46.84153" lon="5.89803">
        <ele>639.4</ele>
        <time>2021-02-09T14:07:18Z</time>
      </trkpt>
      <trkpt lat="46.84156" lon="5.89798">
        <ele>639.8</ele>
        <time>2021-02-09T14:07:22Z</time>
      </trkpt>
      <trkpt lat="46.84159" lon="5.89791">
        <ele>640</ele>
        <time>2021-02-09T14:07:28Z</time>
      </trkpt>
      <trkpt lat="46.84163" lon="5.89787">
        <ele>639.2</ele>
        <time>2021-02-09T14:07:33Z</time>
      </trkpt>
      <trkpt lat="46.84166" lon="5.89781">
        <ele>638.1</ele>
        <time>2021-02-09T14:07:38Z</time>
      </trkpt>
      <trkpt lat="46.84169" lon="5.89774">
        <ele>636.7</ele>
        <time>2021-02-09T14:07:42Z</time>
      </trkpt>
      <trkpt lat="46.8417" lon="5.89766">
        <ele>635.6</ele>
        <time>2021-02-09T14:07:46Z</time>
      </trkpt>
      <trkpt lat="46.84169" lon="5.89757">
        <ele>634.2</ele>
        <time>2021-02-09T14:07:50Z</time>
      </trkpt>
      <trkpt lat="46.84167" lon="5.8975">
        <ele>633.1</ele>
        <time>2021-02-09T14:07:53Z</time>
      </trkpt>
      <trkpt lat="46.84169" lon="5.89744">
        <ele>631.5</ele>
        <time>2021-02-09T14:07:58Z</time>
      </trkpt>
      <trkpt lat="46.84171" lon="5.89737">
        <ele>630.8</ele>
        <time>2021-02-09T14:08:02Z</time>
      </trkpt>
      <trkpt lat="46.84171" lon="5.8973">
        <ele>630.3</ele>
        <time>2021-02-09T14:08:07Z</time>
      </trkpt>
      <trkpt lat="46.84174" lon="5.89724">
        <ele>628.9</ele>
        <time>2021-02-09T14:08:12Z</time>
      </trkpt>
      <trkpt lat="46.84177" lon="5.89718">
        <ele>628.3</ele>
        <time>2021-02-09T14:08:15Z</time>
      </trkpt>
      <trkpt lat="46.84179" lon="5.89712">
        <ele>627.7</ele>
        <time>2021-02-09T14:08:19Z</time>
      </trkpt>
      <trkpt lat="46.84178" lon="5.89705">
        <ele>627.7</ele>
        <time>2021-02-09T14:08:23Z</time>
      </trkpt>
      <trkpt lat="46.84179" lon="5.89698">
        <ele>627.1</ele>
        <time>2021-02-09T14:08:31Z</time>
      </trkpt>
      <trkpt lat="46.84183" lon="5.89692">
        <ele>626.9</ele>
        <time>2021-02-09T14:08:35Z</time>
      </trkpt>
      <trkpt lat="46.84187" lon="5.89687">
        <ele>627.1</ele>
        <time>2021-02-09T14:08:38Z</time>
      </trkpt>
      <trkpt lat="46.8419" lon="5.89683">
        <ele>627.3</ele>
        <time>2021-02-09T14:08:41Z</time>
      </trkpt>
      <trkpt lat="46.84194" lon="5.89678">
        <ele>627.4</ele>
        <time>2021-02-09T14:08:44Z</time>
      </trkpt>
      <trkpt lat="46.84197" lon="5.89672">
        <ele>627.6</ele>
        <time>2021-02-09T14:08:48Z</time>
      </trkpt>
      <trkpt lat="46.84196" lon="5.89664">
        <ele>627.6</ele>
        <time>2021-02-09T14:08:52Z</time>
      </trkpt>
      <trkpt lat="46.84198" lon="5.89657">
        <ele>627.8</ele>
        <time>2021-02-09T14:08:57Z</time>
      </trkpt>
      <trkpt lat="46.842" lon="5.89649">
        <ele>628.3</ele>
        <time>2021-02-09T14:09:02Z</time>
      </trkpt>
      <trkpt lat="46.84199" lon="5.89642">
        <ele>628.5</ele>
        <time>2021-02-09T14:09:05Z</time>
      </trkpt>
      <trkpt lat="46.842" lon="5.89635">
        <ele>628.9</ele>
        <time>2021-02-09T14:09:09Z</time>
      </trkpt>
      <trkpt lat="46.842" lon="5.89628">
        <ele>629.5</ele>
        <time>2021-02-09T14:09:15Z</time>
      </trkpt>
      <trkpt lat="46.842" lon="5.89621">
        <ele>629.3</ele>
        <time>2021-02-09T14:09:20Z</time>
      </trkpt>
      <trkpt lat="46.84201" lon="5.89613">
        <ele>629.2</ele>
        <time>2021-02-09T14:09:26Z</time>
      </trkpt>
      <trkpt lat="46.84202" lon="5.89605">
        <ele>629.7</ele>
        <time>2021-02-09T14:09:31Z</time>
      </trkpt>
      <trkpt lat="46.84202" lon="5.89599">
        <ele>630.1</ele>
        <time>2021-02-09T14:09:35Z</time>
      </trkpt>
      <trkpt lat="46.84202" lon="5.89591">
        <ele>629</ele>
        <time>2021-02-09T14:09:42Z</time>
      </trkpt>
      <trkpt lat="46.842" lon="5.89585">
        <ele>627.1</ele>
        <time>2021-02-09T14:09:47Z</time>
      </trkpt>
      <trkpt lat="46.84203" lon="5.89578">
        <ele>626.1</ele>
        <time>2021-02-09T14:09:51Z</time>
      </trkpt>
      <trkpt lat="46.84204" lon="5.89571">
        <ele>624.6</ele>
        <time>2021-02-09T14:09:56Z</time>
      </trkpt>
      <trkpt lat="46.84206" lon="5.89565">
        <ele>623.1</ele>
        <time>2021-02-09T14:10:01Z</time>
      </trkpt>
      <trkpt lat="46.84208" lon="5.89559">
        <ele>621.8</ele>
        <time>2021-02-09T14:10:06Z</time>
      </trkpt>
      <trkpt lat="46.84212" lon="5.89554">
        <ele>621.3</ele>
        <time>2021-02-09T14:10:09Z</time>
      </trkpt>
      <trkpt lat="46.84215" lon="5.89548">
        <ele>620.9</ele>
        <time>2021-02-09T14:10:12Z</time>
      </trkpt>
      <trkpt lat="46.84219" lon="5.89543">
        <ele>620.3</ele>
        <time>2021-02-09T14:10:16Z</time>
      </trkpt>
      <trkpt lat="46.84221" lon="5.89536">
        <ele>619.3</ele>
        <time>2021-02-09T14:10:22Z</time>
      </trkpt>
      <trkpt lat="46.84224" lon="5.89531">
        <ele>618.9</ele>
        <time>2021-02-09T14:10:25Z</time>
      </trkpt>
      <trkpt lat="46.84229" lon="5.89525">
        <ele>618.8</ele>
        <time>2021-02-09T14:10:28Z</time>
      </trkpt>
      <trkpt lat="46.84234" lon="5.89519">
        <ele>618.9</ele>
        <time>2021-02-09T14:10:31Z</time>
      </trkpt>
      <trkpt lat="46.84239" lon="5.89514">
        <ele>619.1</ele>
        <time>2021-02-09T14:10:34Z</time>
      </trkpt>
      <trkpt lat="46.84242" lon="5.89509">
        <ele>619.4</ele>
        <time>2021-02-09T14:10:37Z</time>
      </trkpt>
      <trkpt lat="46.84241" lon="5.89502">
        <ele>620.1</ele>
        <time>2021-02-09T14:10:42Z</time>
      </trkpt>
      <trkpt lat="46.8424" lon="5.89495">
        <ele>620.5</ele>
        <time>2021-02-09T14:10:48Z</time>
      </trkpt>
      <trkpt lat="46.84241" lon="5.89487">
        <ele>620.6</ele>
        <time>2021-02-09T14:10:56Z</time>
      </trkpt>
      <trkpt lat="46.84243" lon="5.89481">
        <ele>620.2</ele>
        <time>2021-02-09T14:11:01Z</time>
      </trkpt>
      <trkpt lat="46.84245" lon="5.89475">
        <ele>619.9</ele>
        <time>2021-02-09T14:11:05Z</time>
      </trkpt>
      <trkpt lat="46.84247" lon="5.89468">
        <ele>619.7</ele>
        <time>2021-02-09T14:11:10Z</time>
      </trkpt>
      <trkpt lat="46.84248" lon="5.89461">
        <ele>619.5</ele>
        <time>2021-02-09T14:11:15Z</time>
      </trkpt>
      <trkpt lat="46.8425" lon="5.89454">
        <ele>619.1</ele>
        <time>2021-02-09T14:11:20Z</time>
      </trkpt>
      <trkpt lat="46.84251" lon="5.89446">
        <ele>618.7</ele>
        <time>2021-02-09T14:11:26Z</time>
      </trkpt>
      <trkpt lat="46.84253" lon="5.89438">
        <ele>618.4</ele>
        <time>2021-02-09T14:11:31Z</time>
      </trkpt>
      <trkpt lat="46.84254" lon="5.89431">
        <ele>618.1</ele>
        <time>2021-02-09T14:11:35Z</time>
      </trkpt>
      <trkpt lat="46.84255" lon="5.89423">
        <ele>617.8</ele>
        <time>2021-02-09T14:11:40Z</time>
      </trkpt>
      <trkpt lat="46.84257" lon="5.89416">
        <ele>617.8</ele>
        <time>2021-02-09T14:11:44Z</time>
      </trkpt>
      <trkpt lat="46.84259" lon="5.8941">
        <ele>618</ele>
        <time>2021-02-09T14:11:48Z</time>
      </trkpt>
      <trkpt lat="46.84262" lon="5.89404">
        <ele>618.4</ele>
        <time>2021-02-09T14:11:52Z</time>
      </trkpt>
      <trkpt lat="46.84256" lon="5.89388">
        <ele>629.4</ele>
        <time>2021-02-09T14:11:55Z</time>
      </trkpt>
      <trkpt lat="46.84253" lon="5.89377">
        <ele>637.5</ele>
        <time>2021-02-09T14:11:58Z</time>
      </trkpt>
      <trkpt lat="46.84254" lon="5.8937">
        <ele>645.5</ele>
        <time>2021-02-09T14:12:02Z</time>
      </trkpt>
      <trkpt lat="46.84256" lon="5.89363">
        <ele>650.9</ele>
        <time>2021-02-09T14:12:08Z</time>
      </trkpt>
      <trkpt lat="46.84257" lon="5.89355">
        <ele>651.4</ele>
        <time>2021-02-09T14:12:13Z</time>
      </trkpt>
      <trkpt lat="46.8426" lon="5.89348">
        <ele>650.6</ele>
        <time>2021-02-09T14:12:17Z</time>
      </trkpt>
      <trkpt lat="46.84263" lon="5.89343">
        <ele>650</ele>
        <time>2021-02-09T14:12:20Z</time>
      </trkpt>
      <trkpt lat="46.84267" lon="5.89339">
        <ele>649.6</ele>
        <time>2021-02-09T14:12:23Z</time>
      </trkpt>
      <trkpt lat="46.84271" lon="5.89334">
        <ele>648.3</ele>
        <time>2021-02-09T14:12:29Z</time>
      </trkpt>
      <trkpt lat="46.84271" lon="5.89326">
        <ele>647.2</ele>
        <time>2021-02-09T14:12:35Z</time>
      </trkpt>
      <trkpt lat="46.8427" lon="5.89319">
        <ele>647.1</ele>
        <time>2021-02-09T14:12:39Z</time>
      </trkpt>
      <trkpt lat="46.84275" lon="5.89318">
        <ele>646.8</ele>
        <time>2021-02-09T14:12:46Z</time>
      </trkpt>
      <trkpt lat="46.84279" lon="5.89313">
        <ele>646.7</ele>
        <time>2021-02-09T14:12:52Z</time>
      </trkpt>
      <trkpt lat="46.84282" lon="5.89308">
        <ele>646.6</ele>
        <time>2021-02-09T14:12:57Z</time>
      </trkpt>
      <trkpt lat="46.84285" lon="5.89302">
        <ele>646.4</ele>
        <time>2021-02-09T14:13:02Z</time>
      </trkpt>
      <trkpt lat="46.84286" lon="5.89295">
        <ele>646</ele>
        <time>2021-02-09T14:13:08Z</time>
      </trkpt>
      <trkpt lat="46.84287" lon="5.89289">
        <ele>645.7</ele>
        <time>2021-02-09T14:13:13Z</time>
      </trkpt>
      <trkpt lat="46.84289" lon="5.89282">
        <ele>645.1</ele>
        <time>2021-02-09T14:13:17Z</time>
      </trkpt>
      <trkpt lat="46.84289" lon="5.89275">
        <ele>644.3</ele>
        <time>2021-02-09T14:13:21Z</time>
      </trkpt>
      <trkpt lat="46.84292" lon="5.89269">
        <ele>642.9</ele>
        <time>2021-02-09T14:13:27Z</time>
      </trkpt>
      <trkpt lat="46.84295" lon="5.89263">
        <ele>642.3</ele>
        <time>2021-02-09T14:13:31Z</time>
      </trkpt>
      <trkpt lat="46.843" lon="5.89261">
        <ele>642.8</ele>
        <time>2021-02-09T14:13:45Z</time>
      </trkpt>
      <trkpt lat="46.84303" lon="5.89256">
        <ele>642.5</ele>
        <time>2021-02-09T14:13:55Z</time>
      </trkpt>
      <trkpt lat="46.84303" lon="5.89249">
        <ele>643.6</ele>
        <time>2021-02-09T14:14:00Z</time>
      </trkpt>
      <trkpt lat="46.84299" lon="5.89245">
        <ele>644.9</ele>
        <time>2021-02-09T14:14:03Z</time>
      </trkpt>
      <trkpt lat="46.84298" lon="5.89238">
        <ele>646.1</ele>
        <time>2021-02-09T14:14:09Z</time>
      </trkpt>
      <trkpt lat="46.84301" lon="5.89232">
        <ele>644.4</ele>
        <time>2021-02-09T14:14:17Z</time>
      </trkpt>
      <trkpt lat="46.84305" lon="5.89227">
        <ele>642.4</ele>
        <time>2021-02-09T14:14:23Z</time>
      </trkpt>
      <trkpt lat="46.84307" lon="5.89222">
        <ele>641.4</ele>
        <time>2021-02-09T14:14:28Z</time>
      </trkpt>
      <trkpt lat="46.84309" lon="5.89215">
        <ele>641.9</ele>
        <time>2021-02-09T14:14:31Z</time>
      </trkpt>
      <trkpt lat="46.84311" lon="5.89208">
        <ele>644.1</ele>
        <time>2021-02-09T14:14:35Z</time>
      </trkpt>
      <trkpt lat="46.84313" lon="5.89202">
        <ele>646.8</ele>
        <time>2021-02-09T14:14:39Z</time>
      </trkpt>
      <trkpt lat="46.84317" lon="5.89196">
        <ele>651.4</ele>
        <time>2021-02-09T14:14:45Z</time>
      </trkpt>
      <trkpt lat="46.84319" lon="5.89189">
        <ele>655.5</ele>
        <time>2021-02-09T14:14:50Z</time>
      </trkpt>
      <trkpt lat="46.8432" lon="5.89182">
        <ele>659.4</ele>
        <time>2021-02-09T14:14:55Z</time>
      </trkpt>
      <trkpt lat="46.8432" lon="5.89173">
        <ele>663.2</ele>
        <time>2021-02-09T14:14:59Z</time>
      </trkpt>
      <trkpt lat="46.84319" lon="5.89166">
        <ele>668.1</ele>
        <time>2021-02-09T14:15:04Z</time>
      </trkpt>
      <trkpt lat="46.84317" lon="5.89159">
        <ele>673.8</ele>
        <time>2021-02-09T14:15:17Z</time>
      </trkpt>
      <trkpt lat="46.84317" lon="5.89152">
        <ele>675.7</ele>
        <time>2021-02-09T14:15:22Z</time>
      </trkpt>
      <trkpt lat="46.84318" lon="5.89145">
        <ele>679.6</ele>
        <time>2021-02-09T14:15:31Z</time>
      </trkpt>
      <trkpt lat="46.84319" lon="5.89139">
        <ele>682</ele>
        <time>2021-02-09T14:15:36Z</time>
      </trkpt>
      <trkpt lat="46.8432" lon="5.89132">
        <ele>683.1</ele>
        <time>2021-02-09T14:15:41Z</time>
      </trkpt>
      <trkpt lat="46.84324" lon="5.89126">
        <ele>683.9</ele>
        <time>2021-02-09T14:15:50Z</time>
      </trkpt>
      <trkpt lat="46.84328" lon="5.8912">
        <ele>684</ele>
        <time>2021-02-09T14:15:55Z</time>
      </trkpt>
      <trkpt lat="46.84332" lon="5.89117">
        <ele>682.9</ele>
        <time>2021-02-09T14:16:01Z</time>
      </trkpt>
      <trkpt lat="46.84334" lon="5.89111">
        <ele>681.7</ele>
        <time>2021-02-09T14:16:08Z</time>
      </trkpt>
      <trkpt lat="46.84336" lon="5.89106">
        <ele>680.9</ele>
        <time>2021-02-09T14:16:12Z</time>
      </trkpt>
      <trkpt lat="46.84339" lon="5.89099">
        <ele>679.9</ele>
        <time>2021-02-09T14:16:17Z</time>
      </trkpt>
      <trkpt lat="46.84343" lon="5.89093">
        <ele>678.5</ele>
        <time>2021-02-09T14:16:21Z</time>
      </trkpt>
      <trkpt lat="46.84345" lon="5.89088">
        <ele>677.2</ele>
        <time>2021-02-09T14:16:25Z</time>
      </trkpt>
      <trkpt lat="46.84342" lon="5.89082">
        <ele>670.6</ele>
        <time>2021-02-09T14:16:42Z</time>
      </trkpt>
      <trkpt lat="46.84339" lon="5.89077">
        <ele>667.3</ele>
        <time>2021-02-09T14:16:47Z</time>
      </trkpt>
      <trkpt lat="46.84342" lon="5.89073">
        <ele>658.6</ele>
        <time>2021-02-09T14:17:00Z</time>
      </trkpt>
      <trkpt lat="46.84348" lon="5.89075">
        <ele>653</ele>
        <time>2021-02-09T14:17:08Z</time>
      </trkpt>
      <trkpt lat="46.84345" lon="5.89069">
        <ele>641.6</ele>
        <time>2021-02-09T14:17:18Z</time>
      </trkpt>
      <trkpt lat="46.84349" lon="5.89065">
        <ele>632.1</ele>
        <time>2021-02-09T14:17:31Z</time>
      </trkpt>
      <trkpt lat="46.84353" lon="5.89061">
        <ele>633.3</ele>
        <time>2021-02-09T14:17:47Z</time>
      </trkpt>
      <trkpt lat="46.84354" lon="5.89053">
        <ele>632.2</ele>
        <time>2021-02-09T14:18:05Z</time>
      </trkpt>
      <trkpt lat="46.84353" lon="5.89046">
        <ele>631.6</ele>
        <time>2021-02-09T14:18:12Z</time>
      </trkpt>
      <trkpt lat="46.84356" lon="5.89039">
        <ele>632.1</ele>
        <time>2021-02-09T14:18:19Z</time>
      </trkpt>
      <trkpt lat="46.84356" lon="5.89032">
        <ele>638.1</ele>
        <time>2021-02-09T14:18:22Z</time>
      </trkpt>
      <trkpt lat="46.84362" lon="5.89029">
        <ele>647.5</ele>
        <time>2021-02-09T14:18:27Z</time>
      </trkpt>
      <trkpt lat="46.84367" lon="5.89029">
        <ele>652</ele>
        <time>2021-02-09T14:18:30Z</time>
      </trkpt>
      <trkpt lat="46.84372" lon="5.89027">
        <ele>654.5</ele>
        <time>2021-02-09T14:18:33Z</time>
      </trkpt>
      <trkpt lat="46.84376" lon="5.89023">
        <ele>656</ele>
        <time>2021-02-09T14:18:36Z</time>
      </trkpt>
      <trkpt lat="46.84378" lon="5.89016">
        <ele>656.9</ele>
        <time>2021-02-09T14:18:39Z</time>
      </trkpt>
      <trkpt lat="46.84378" lon="5.89009">
        <ele>657.5</ele>
        <time>2021-02-09T14:18:42Z</time>
      </trkpt>
      <trkpt lat="46.84378" lon="5.89001">
        <ele>657.8</ele>
        <time>2021-02-09T14:18:46Z</time>
      </trkpt>
      <trkpt lat="46.84378" lon="5.88995">
        <ele>658</ele>
        <time>2021-02-09T14:18:50Z</time>
      </trkpt>
      <trkpt lat="46.84377" lon="5.88987">
        <ele>659.1</ele>
        <time>2021-02-09T14:18:54Z</time>
      </trkpt>
      <trkpt lat="46.84378" lon="5.8898">
        <ele>660.8</ele>
        <time>2021-02-09T14:18:58Z</time>
      </trkpt>
      <trkpt lat="46.84378" lon="5.88973">
        <ele>662.5</ele>
        <time>2021-02-09T14:19:01Z</time>
      </trkpt>
      <trkpt lat="46.84377" lon="5.88965">
        <ele>663.8</ele>
        <time>2021-02-09T14:19:04Z</time>
      </trkpt>
      <trkpt lat="46.84376" lon="5.88957">
        <ele>665.1</ele>
        <time>2021-02-09T14:19:07Z</time>
      </trkpt>
      <trkpt lat="46.84376" lon="5.88949">
        <ele>666.5</ele>
        <time>2021-02-09T14:19:10Z</time>
      </trkpt>
      <trkpt lat="46.84377" lon="5.88941">
        <ele>668.1</ele>
        <time>2021-02-09T14:19:13Z</time>
      </trkpt>
      <trkpt lat="46.84379" lon="5.88934">
        <ele>670.5</ele>
        <time>2021-02-09T14:19:17Z</time>
      </trkpt>
      <trkpt lat="46.84377" lon="5.88928">
        <ele>673.3</ele>
        <time>2021-02-09T14:19:23Z</time>
      </trkpt>
      <trkpt lat="46.84379" lon="5.88923">
        <ele>675.6</ele>
        <time>2021-02-09T14:19:29Z</time>
      </trkpt>
      <trkpt lat="46.84381" lon="5.88916">
        <ele>678.1</ele>
        <time>2021-02-09T14:19:36Z</time>
      </trkpt>
      <trkpt lat="46.84382" lon="5.88909">
        <ele>680.3</ele>
        <time>2021-02-09T14:19:42Z</time>
      </trkpt>
      <trkpt lat="46.84381" lon="5.88902">
        <ele>681.6</ele>
        <time>2021-02-09T14:19:46Z</time>
      </trkpt>
      <trkpt lat="46.84378" lon="5.88896">
        <ele>682.3</ele>
        <time>2021-02-09T14:19:50Z</time>
      </trkpt>
      <trkpt lat="46.84379" lon="5.88889">
        <ele>682.5</ele>
        <time>2021-02-09T14:19:55Z</time>
      </trkpt>
      <trkpt lat="46.84381" lon="5.88882">
        <ele>681.8</ele>
        <time>2021-02-09T14:20:01Z</time>
      </trkpt>
      <trkpt lat="46.8438" lon="5.88875">
        <ele>681.2</ele>
        <time>2021-02-09T14:20:06Z</time>
      </trkpt>
      <trkpt lat="46.84384" lon="5.88868">
        <ele>680.3</ele>
        <time>2021-02-09T14:20:11Z</time>
      </trkpt>
      <trkpt lat="46.84388" lon="5.88863">
        <ele>678.4</ele>
        <time>2021-02-09T14:20:17Z</time>
      </trkpt>
      <trkpt lat="46.84392" lon="5.8886">
        <ele>676.9</ele>
        <time>2021-02-09T14:20:21Z</time>
      </trkpt>
      <trkpt lat="46.84396" lon="5.88855">
        <ele>675.6</ele>
        <time>2021-02-09T14:20:26Z</time>
      </trkpt>
      <trkpt lat="46.844" lon="5.8885">
        <ele>674.4</ele>
        <time>2021-02-09T14:20:32Z</time>
      </trkpt>
      <trkpt lat="46.84405" lon="5.88846">
        <ele>673.9</ele>
        <time>2021-02-09T14:20:37Z</time>
      </trkpt>
      <trkpt lat="46.84408" lon="5.88841">
        <ele>673.7</ele>
        <time>2021-02-09T14:20:42Z</time>
      </trkpt>
      <trkpt lat="46.84409" lon="5.88834">
        <ele>673.3</ele>
        <time>2021-02-09T14:20:47Z</time>
      </trkpt>
      <trkpt lat="46.84407" lon="5.88828">
        <ele>672.6</ele>
        <time>2021-02-09T14:20:51Z</time>
      </trkpt>
      <trkpt lat="46.84406" lon="5.88821">
        <ele>672</ele>
        <time>2021-02-09T14:20:54Z</time>
      </trkpt>
      <trkpt lat="46.84407" lon="5.88814">
        <ele>670.9</ele>
        <time>2021-02-09T14:20:59Z</time>
      </trkpt>
      <trkpt lat="46.84408" lon="5.88807">
        <ele>669.9</ele>
        <time>2021-02-09T14:21:05Z</time>
      </trkpt>
      <trkpt lat="46.84409" lon="5.88799">
        <ele>669.8</ele>
        <time>2021-02-09T14:21:10Z</time>
      </trkpt>
      <trkpt lat="46.84413" lon="5.88793">
        <ele>670</ele>
        <time>2021-02-09T14:21:15Z</time>
      </trkpt>
      <trkpt lat="46.84417" lon="5.88788">
        <ele>670</ele>
        <time>2021-02-09T14:21:19Z</time>
      </trkpt>
      <trkpt lat="46.84421" lon="5.88782">
        <ele>669.3</ele>
        <time>2021-02-09T14:21:24Z</time>
      </trkpt>
      <trkpt lat="46.84423" lon="5.88776">
        <ele>668.9</ele>
        <time>2021-02-09T14:21:28Z</time>
      </trkpt>
      <trkpt lat="46.84425" lon="5.8877">
        <ele>668.3</ele>
        <time>2021-02-09T14:21:33Z</time>
      </trkpt>
      <trkpt lat="46.84427" lon="5.88764">
        <ele>667</ele>
        <time>2021-02-09T14:21:40Z</time>
      </trkpt>
      <trkpt lat="46.8443" lon="5.88758">
        <ele>665.7</ele>
        <time>2021-02-09T14:21:45Z</time>
      </trkpt>
      <trkpt lat="46.84433" lon="5.88751">
        <ele>665</ele>
        <time>2021-02-09T14:21:49Z</time>
      </trkpt>
      <trkpt lat="46.84436" lon="5.88744">
        <ele>663.9</ele>
        <time>2021-02-09T14:21:54Z</time>
      </trkpt>
      <trkpt lat="46.84435" lon="5.88738">
        <ele>662.6</ele>
        <time>2021-02-09T14:21:58Z</time>
      </trkpt>
      <trkpt lat="46.84435" lon="5.88731">
        <ele>661.1</ele>
        <time>2021-02-09T14:22:04Z</time>
      </trkpt>
      <trkpt lat="46.84438" lon="5.88725">
        <ele>660.1</ele>
        <time>2021-02-09T14:22:09Z</time>
      </trkpt>
      <trkpt lat="46.84441" lon="5.88718">
        <ele>659</ele>
        <time>2021-02-09T14:22:14Z</time>
      </trkpt>
      <trkpt lat="46.84444" lon="5.88713">
        <ele>657.6</ele>
        <time>2021-02-09T14:22:19Z</time>
      </trkpt>
      <trkpt lat="46.84448" lon="5.88707">
        <ele>655.7</ele>
        <time>2021-02-09T14:22:24Z</time>
      </trkpt>
      <trkpt lat="46.84448" lon="5.88699">
        <ele>653.2</ele>
        <time>2021-02-09T14:22:30Z</time>
      </trkpt>
      <trkpt lat="46.84448" lon="5.88693">
        <ele>651.3</ele>
        <time>2021-02-09T14:22:35Z</time>
      </trkpt>
      <trkpt lat="46.84451" lon="5.88687">
        <ele>649.4</ele>
        <time>2021-02-09T14:22:40Z</time>
      </trkpt>
      <trkpt lat="46.84455" lon="5.88681">
        <ele>647.8</ele>
        <time>2021-02-09T14:22:44Z</time>
      </trkpt>
      <trkpt lat="46.84458" lon="5.88675">
        <ele>645.6</ele>
        <time>2021-02-09T14:22:48Z</time>
      </trkpt>
      <trkpt lat="46.84458" lon="5.88669">
        <ele>642.9</ele>
        <time>2021-02-09T14:22:53Z</time>
      </trkpt>
      <trkpt lat="46.84457" lon="5.88661">
        <ele>640.7</ele>
        <time>2021-02-09T14:22:59Z</time>
      </trkpt>
      <trkpt lat="46.84461" lon="5.88655">
        <ele>639.3</ele>
        <time>2021-02-09T14:23:04Z</time>
      </trkpt>
      <trkpt lat="46.84462" lon="5.88648">
        <ele>638.7</ele>
        <time>2021-02-09T14:23:09Z</time>
      </trkpt>
      <trkpt lat="46.84463" lon="5.88641">
        <ele>638.3</ele>
        <time>2021-02-09T14:23:14Z</time>
      </trkpt>
      <trkpt lat="46.84466" lon="5.88635">
        <ele>638.2</ele>
        <time>2021-02-09T14:23:20Z</time>
      </trkpt>
      <trkpt lat="46.84468" lon="5.8863">
        <ele>638.3</ele>
        <time>2021-02-09T14:23:25Z</time>
      </trkpt>
      <trkpt lat="46.84471" lon="5.88624">
        <ele>638.5</ele>
        <time>2021-02-09T14:23:30Z</time>
      </trkpt>
      <trkpt lat="46.84474" lon="5.88617">
        <ele>638.4</ele>
        <time>2021-02-09T14:23:36Z</time>
      </trkpt>
      <trkpt lat="46.84476" lon="5.88611">
        <ele>638.4</ele>
        <time>2021-02-09T14:23:42Z</time>
      </trkpt>
      <trkpt lat="46.84478" lon="5.88605">
        <ele>638.1</ele>
        <time>2021-02-09T14:23:47Z</time>
      </trkpt>
      <trkpt lat="46.84479" lon="5.88598">
        <ele>638.1</ele>
        <time>2021-02-09T14:23:53Z</time>
      </trkpt>
      <trkpt lat="46.84482" lon="5.88592">
        <ele>639.2</ele>
        <time>2021-02-09T14:23:58Z</time>
      </trkpt>
      <trkpt lat="46.84483" lon="5.88585">
        <ele>640.6</ele>
        <time>2021-02-09T14:24:05Z</time>
      </trkpt>
      <trkpt lat="46.84486" lon="5.88579">
        <ele>641.7</ele>
        <time>2021-02-09T14:24:12Z</time>
      </trkpt>
      <trkpt lat="46.84489" lon="5.88572">
        <ele>642.2</ele>
        <time>2021-02-09T14:24:17Z</time>
      </trkpt>
      <trkpt lat="46.84491" lon="5.88565">
        <ele>643.9</ele>
        <time>2021-02-09T14:24:25Z</time>
      </trkpt>
      <trkpt lat="46.84492" lon="5.88558">
        <ele>644.8</ele>
        <time>2021-02-09T14:24:32Z</time>
      </trkpt>
      <trkpt lat="46.84495" lon="5.88551">
        <ele>645.4</ele>
        <time>2021-02-09T14:24:37Z</time>
      </trkpt>
      <trkpt lat="46.84497" lon="5.88545">
        <ele>645.7</ele>
        <time>2021-02-09T14:24:42Z</time>
      </trkpt>
      <trkpt lat="46.84489" lon="5.88529">
        <ele>656.4</ele>
        <time>2021-02-09T14:24:45Z</time>
      </trkpt>
      <trkpt lat="46.84486" lon="5.88521">
        <ele>663.6</ele>
        <time>2021-02-09T14:24:48Z</time>
      </trkpt>
      <trkpt lat="46.84488" lon="5.88514">
        <ele>670.6</ele>
        <time>2021-02-09T14:24:53Z</time>
      </trkpt>
      <trkpt lat="46.8449" lon="5.88507">
        <ele>674.2</ele>
        <time>2021-02-09T14:24:58Z</time>
      </trkpt>
      <trkpt lat="46.84492" lon="5.885">
        <ele>675.8</ele>
        <time>2021-02-09T14:25:03Z</time>
      </trkpt>
      <trkpt lat="46.84495" lon="5.88493">
        <ele>676.8</ele>
        <time>2021-02-09T14:25:07Z</time>
      </trkpt>
      <trkpt lat="46.84495" lon="5.88485">
        <ele>678.2</ele>
        <time>2021-02-09T14:25:11Z</time>
      </trkpt>
      <trkpt lat="46.84494" lon="5.88478">
        <ele>679.9</ele>
        <time>2021-02-09T14:25:16Z</time>
      </trkpt>
      <trkpt lat="46.84496" lon="5.88472">
        <ele>683.5</ele>
        <time>2021-02-09T14:25:24Z</time>
      </trkpt>
      <trkpt lat="46.845" lon="5.88467">
        <ele>685.5</ele>
        <time>2021-02-09T14:25:28Z</time>
      </trkpt>
      <trkpt lat="46.84504" lon="5.88463">
        <ele>687.6</ele>
        <time>2021-02-09T14:25:33Z</time>
      </trkpt>
      <trkpt lat="46.84507" lon="5.88457">
        <ele>690.2</ele>
        <time>2021-02-09T14:25:39Z</time>
      </trkpt>
      <trkpt lat="46.84509" lon="5.88451">
        <ele>693</ele>
        <time>2021-02-09T14:25:50Z</time>
      </trkpt>
      <trkpt lat="46.84512" lon="5.88445">
        <ele>693.4</ele>
        <time>2021-02-09T14:25:56Z</time>
      </trkpt>
      <trkpt lat="46.84512" lon="5.88438">
        <ele>692.8</ele>
        <time>2021-02-09T14:26:04Z</time>
      </trkpt>
      <trkpt lat="46.84512" lon="5.88431">
        <ele>692.5</ele>
        <time>2021-02-09T14:26:11Z</time>
      </trkpt>
      <trkpt lat="46.84514" lon="5.88424">
        <ele>692.2</ele>
        <time>2021-02-09T14:26:19Z</time>
      </trkpt>
      <trkpt lat="46.84513" lon="5.88417">
        <ele>692</ele>
        <time>2021-02-09T14:26:25Z</time>
      </trkpt>
      <trkpt lat="46.84517" lon="5.88412">
        <ele>690.4</ele>
        <time>2021-02-09T14:26:31Z</time>
      </trkpt>
      <trkpt lat="46.8452" lon="5.88408">
        <ele>687.9</ele>
        <time>2021-02-09T14:26:36Z</time>
      </trkpt>
      <trkpt lat="46.84522" lon="5.88401">
        <ele>685</ele>
        <time>2021-02-09T14:26:42Z</time>
      </trkpt>
      <trkpt lat="46.84526" lon="5.88396">
        <ele>683.7</ele>
        <time>2021-02-09T14:26:49Z</time>
      </trkpt>
      <trkpt lat="46.84531" lon="5.88396">
        <ele>685.5</ele>
        <time>2021-02-09T14:26:55Z</time>
      </trkpt>
      <trkpt lat="46.84536" lon="5.884">
        <ele>687.4</ele>
        <time>2021-02-09T14:27:11Z</time>
      </trkpt>
      <trkpt lat="46.84535" lon="5.88393">
        <ele>691.3</ele>
        <time>2021-02-09T14:27:30Z</time>
      </trkpt>
      <trkpt lat="46.84531" lon="5.8839">
        <ele>693.2</ele>
        <time>2021-02-09T14:27:34Z</time>
      </trkpt>
      <trkpt lat="46.84532" lon="5.88383">
        <ele>700.7</ele>
        <time>2021-02-09T14:28:14Z</time>
      </trkpt>
      <trkpt lat="46.84533" lon="5.88376">
        <ele>698.2</ele>
        <time>2021-02-09T14:28:21Z</time>
      </trkpt>
      <trkpt lat="46.84533" lon="5.88369">
        <ele>695</ele>
        <time>2021-02-09T14:28:28Z</time>
      </trkpt>
      <trkpt lat="46.84535" lon="5.88362">
        <ele>693.5</ele>
        <time>2021-02-09T14:28:33Z</time>
      </trkpt>
      <trkpt lat="46.84535" lon="5.88354">
        <ele>692.1</ele>
        <time>2021-02-09T14:28:39Z</time>
      </trkpt>
      <trkpt lat="46.84538" lon="5.88349">
        <ele>690.8</ele>
        <time>2021-02-09T14:28:48Z</time>
      </trkpt>
      <trkpt lat="46.8454" lon="5.88343">
        <ele>690.4</ele>
        <time>2021-02-09T14:29:00Z</time>
      </trkpt>
      <trkpt lat="46.84543" lon="5.88349">
        <ele>691.5</ele>
        <time>2021-02-09T14:29:30Z</time>
      </trkpt>
      <trkpt lat="46.84547" lon="5.88351">
        <ele>692.5</ele>
        <time>2021-02-09T14:29:36Z</time>
      </trkpt>
      <trkpt lat="46.84552" lon="5.88351">
        <ele>692.9</ele>
        <time>2021-02-09T14:29:43Z</time>
      </trkpt>
      <trkpt lat="46.84556" lon="5.88348">
        <ele>692.7</ele>
        <time>2021-02-09T14:29:50Z</time>
      </trkpt>
      <trkpt lat="46.8456" lon="5.88343">
        <ele>692.5</ele>
        <time>2021-02-09T14:29:57Z</time>
      </trkpt>
      <trkpt lat="46.84564" lon="5.88339">
        <ele>692.7</ele>
        <time>2021-02-09T14:30:13Z</time>
      </trkpt>
      <trkpt lat="46.84569" lon="5.88341">
        <ele>694.8</ele>
        <time>2021-02-09T14:31:08Z</time>
      </trkpt>
      <trkpt lat="46.84572" lon="5.88346">
        <ele>694.9</ele>
        <time>2021-02-09T14:31:13Z</time>
      </trkpt>
      <trkpt lat="46.84575" lon="5.88352">
        <ele>695.3</ele>
        <time>2021-02-09T14:31:17Z</time>
      </trkpt>
      <trkpt lat="46.84577" lon="5.88358">
        <ele>695.6</ele>
        <time>2021-02-09T14:31:20Z</time>
      </trkpt>
      <trkpt lat="46.84581" lon="5.88364">
        <ele>696.3</ele>
        <time>2021-02-09T14:31:25Z</time>
      </trkpt>
      <trkpt lat="46.84586" lon="5.88368">
        <ele>696.9</ele>
        <time>2021-02-09T14:31:29Z</time>
      </trkpt>
      <trkpt lat="46.8459" lon="5.88373">
        <ele>697.4</ele>
        <time>2021-02-09T14:31:33Z</time>
      </trkpt>
      <trkpt lat="46.84594" lon="5.88377">
        <ele>698.2</ele>
        <time>2021-02-09T14:31:37Z</time>
      </trkpt>
      <trkpt lat="46.846" lon="5.88381">
        <ele>698.6</ele>
        <time>2021-02-09T14:31:41Z</time>
      </trkpt>
      <trkpt lat="46.84604" lon="5.88384">
        <ele>698.8</ele>
        <time>2021-02-09T14:31:44Z</time>
      </trkpt>
      <trkpt lat="46.84608" lon="5.88389">
        <ele>699</ele>
        <time>2021-02-09T14:31:49Z</time>
      </trkpt>
      <trkpt lat="46.84611" lon="5.88396">
        <ele>699.4</ele>
        <time>2021-02-09T14:31:54Z</time>
      </trkpt>
      <trkpt lat="46.84612" lon="5.88402">
        <ele>699.7</ele>
        <time>2021-02-09T14:31:59Z</time>
      </trkpt>
      <trkpt lat="46.84614" lon="5.88409">
        <ele>700</ele>
        <time>2021-02-09T14:32:04Z</time>
      </trkpt>
      <trkpt lat="46.84619" lon="5.88414">
        <ele>700.4</ele>
        <time>2021-02-09T14:32:08Z</time>
      </trkpt>
      <trkpt lat="46.84623" lon="5.88419">
        <ele>700.9</ele>
        <time>2021-02-09T14:32:12Z</time>
      </trkpt>
      <trkpt lat="46.84625" lon="5.88425">
        <ele>701.2</ele>
        <time>2021-02-09T14:32:16Z</time>
      </trkpt>
      <trkpt lat="46.84629" lon="5.8843">
        <ele>701.1</ele>
        <time>2021-02-09T14:32:21Z</time>
      </trkpt>
      <trkpt lat="46.84633" lon="5.88437">
        <ele>700.9</ele>
        <time>2021-02-09T14:32:26Z</time>
      </trkpt>
      <trkpt lat="46.84635" lon="5.88444">
        <ele>700.1</ele>
        <time>2021-02-09T14:32:31Z</time>
      </trkpt>
      <trkpt lat="46.84638" lon="5.88451">
        <ele>698.9</ele>
        <time>2021-02-09T14:32:36Z</time>
      </trkpt>
      <trkpt lat="46.8464" lon="5.88456">
        <ele>697.5</ele>
        <time>2021-02-09T14:32:41Z</time>
      </trkpt>
      <trkpt lat="46.84641" lon="5.88463">
        <ele>696.6</ele>
        <time>2021-02-09T14:32:47Z</time>
      </trkpt>
      <trkpt lat="46.84645" lon="5.88468">
        <ele>695.7</ele>
        <time>2021-02-09T14:32:52Z</time>
      </trkpt>
      <trkpt lat="46.84648" lon="5.88473">
        <ele>694.6</ele>
        <time>2021-02-09T14:32:58Z</time>
      </trkpt>
      <trkpt lat="46.84653" lon="5.88475">
        <ele>693.7</ele>
        <time>2021-02-09T14:33:02Z</time>
      </trkpt>
      <trkpt lat="46.84657" lon="5.88478">
        <ele>692.7</ele>
        <time>2021-02-09T14:33:07Z</time>
      </trkpt>
      <trkpt lat="46.84661" lon="5.88483">
        <ele>691.4</ele>
        <time>2021-02-09T14:33:13Z</time>
      </trkpt>
      <trkpt lat="46.84665" lon="5.88486">
        <ele>690.6</ele>
        <time>2021-02-09T14:33:17Z</time>
      </trkpt>
      <trkpt lat="46.8467" lon="5.8849">
        <ele>690.9</ele>
        <time>2021-02-09T14:33:21Z</time>
      </trkpt>
      <trkpt lat="46.84673" lon="5.88494">
        <ele>691.6</ele>
        <time>2021-02-09T14:33:25Z</time>
      </trkpt>
      <trkpt lat="46.84677" lon="5.88499">
        <ele>693.6</ele>
        <time>2021-02-09T14:33:30Z</time>
      </trkpt>
      <trkpt lat="46.84678" lon="5.88506">
        <ele>696.7</ele>
        <time>2021-02-09T14:33:40Z</time>
      </trkpt>
      <trkpt lat="46.84688" lon="5.8851">
        <ele>697.9</ele>
        <time>2021-02-09T14:33:43Z</time>
      </trkpt>
      <trkpt lat="46.84697" lon="5.88514">
        <ele>699</ele>
        <time>2021-02-09T14:33:46Z</time>
      </trkpt>
      <trkpt lat="46.84701" lon="5.88519">
        <ele>700</ele>
        <time>2021-02-09T14:33:49Z</time>
      </trkpt>
      <trkpt lat="46.84704" lon="5.88524">
        <ele>701.1</ele>
        <time>2021-02-09T14:33:53Z</time>
      </trkpt>
      <trkpt lat="46.84705" lon="5.88531">
        <ele>702.1</ele>
        <time>2021-02-09T14:33:58Z</time>
      </trkpt>
      <trkpt lat="46.84707" lon="5.88538">
        <ele>703.2</ele>
        <time>2021-02-09T14:34:04Z</time>
      </trkpt>
      <trkpt lat="46.84708" lon="5.88545">
        <ele>704.7</ele>
        <time>2021-02-09T14:34:10Z</time>
      </trkpt>
      <trkpt lat="46.84707" lon="5.88552">
        <ele>706.9</ele>
        <time>2021-02-09T14:34:14Z</time>
      </trkpt>
      <trkpt lat="46.8471" lon="5.88558">
        <ele>709.7</ele>
        <time>2021-02-09T14:34:21Z</time>
      </trkpt>
      <trkpt lat="46.84713" lon="5.88564">
        <ele>710.3</ele>
        <time>2021-02-09T14:34:28Z</time>
      </trkpt>
      <trkpt lat="46.84719" lon="5.88569">
        <ele>709.8</ele>
        <time>2021-02-09T14:34:32Z</time>
      </trkpt>
      <trkpt lat="46.84724" lon="5.88573">
        <ele>709.2</ele>
        <time>2021-02-09T14:34:35Z</time>
      </trkpt>
      <trkpt lat="46.84727" lon="5.88579">
        <ele>708.3</ele>
        <time>2021-02-09T14:34:39Z</time>
      </trkpt>
      <trkpt lat="46.8473" lon="5.88584">
        <ele>707.4</ele>
        <time>2021-02-09T14:34:43Z</time>
      </trkpt>
      <trkpt lat="46.84735" lon="5.88586">
        <ele>706.8</ele>
        <time>2021-02-09T14:34:47Z</time>
      </trkpt>
      <trkpt lat="46.84738" lon="5.88591">
        <ele>705.8</ele>
        <time>2021-02-09T14:34:52Z</time>
      </trkpt>
      <trkpt lat="46.84741" lon="5.88598">
        <ele>704.8</ele>
        <time>2021-02-09T14:34:58Z</time>
      </trkpt>
      <trkpt lat="46.84744" lon="5.88604">
        <ele>703.8</ele>
        <time>2021-02-09T14:35:03Z</time>
      </trkpt>
      <trkpt lat="46.84747" lon="5.8861">
        <ele>702.1</ele>
        <time>2021-02-09T14:35:08Z</time>
      </trkpt>
      <trkpt lat="46.8475" lon="5.88616">
        <ele>700.8</ele>
        <time>2021-02-09T14:35:13Z</time>
      </trkpt>
      <trkpt lat="46.84753" lon="5.88621">
        <ele>700.3</ele>
        <time>2021-02-09T14:35:18Z</time>
      </trkpt>
      <trkpt lat="46.84756" lon="5.88626">
        <ele>700.5</ele>
        <time>2021-02-09T14:35:22Z</time>
      </trkpt>
      <trkpt lat="46.84761" lon="5.88631">
        <ele>700.6</ele>
        <time>2021-02-09T14:35:27Z</time>
      </trkpt>
      <trkpt lat="46.84765" lon="5.88636">
        <ele>700.5</ele>
        <time>2021-02-09T14:35:31Z</time>
      </trkpt>
      <trkpt lat="46.84769" lon="5.8864">
        <ele>700.4</ele>
        <time>2021-02-09T14:35:34Z</time>
      </trkpt>
      <trkpt lat="46.84774" lon="5.88645">
        <ele>700</ele>
        <time>2021-02-09T14:35:38Z</time>
      </trkpt>
      <trkpt lat="46.84776" lon="5.88652">
        <ele>699.8</ele>
        <time>2021-02-09T14:35:42Z</time>
      </trkpt>
      <trkpt lat="46.84779" lon="5.88657">
        <ele>699.4</ele>
        <time>2021-02-09T14:35:46Z</time>
      </trkpt>
      <trkpt lat="46.84781" lon="5.88664">
        <ele>699</ele>
        <time>2021-02-09T14:35:51Z</time>
      </trkpt>
      <trkpt lat="46.84784" lon="5.8867">
        <ele>698.6</ele>
        <time>2021-02-09T14:35:58Z</time>
      </trkpt>
      <trkpt lat="46.84787" lon="5.88676">
        <ele>699</ele>
        <time>2021-02-09T14:36:03Z</time>
      </trkpt>
      <trkpt lat="46.8479" lon="5.88681">
        <ele>699.7</ele>
        <time>2021-02-09T14:36:08Z</time>
      </trkpt>
      <trkpt lat="46.84797" lon="5.88691">
        <ele>702.7</ele>
        <time>2021-02-09T14:36:11Z</time>
      </trkpt>
      <trkpt lat="46.84801" lon="5.88696">
        <ele>704.8</ele>
        <time>2021-02-09T14:36:14Z</time>
      </trkpt>
      <trkpt lat="46.84804" lon="5.88701">
        <ele>706.7</ele>
        <time>2021-02-09T14:36:17Z</time>
      </trkpt>
      <trkpt lat="46.84807" lon="5.88707">
        <ele>709.2</ele>
        <time>2021-02-09T14:36:22Z</time>
      </trkpt>
      <trkpt lat="46.84808" lon="5.88714">
        <ele>711.2</ele>
        <time>2021-02-09T14:36:27Z</time>
      </trkpt>
      <trkpt lat="46.8481" lon="5.8872">
        <ele>712.8</ele>
        <time>2021-02-09T14:36:32Z</time>
      </trkpt>
      <trkpt lat="46.84814" lon="5.88725">
        <ele>713.7</ele>
        <time>2021-02-09T14:36:37Z</time>
      </trkpt>
      <trkpt lat="46.84818" lon="5.8873">
        <ele>714</ele>
        <time>2021-02-09T14:36:42Z</time>
      </trkpt>
      <trkpt lat="46.8482" lon="5.88736">
        <ele>713.6</ele>
        <time>2021-02-09T14:36:47Z</time>
      </trkpt>
      <trkpt lat="46.84823" lon="5.88742">
        <ele>713.1</ele>
        <time>2021-02-09T14:36:51Z</time>
      </trkpt>
      <trkpt lat="46.84828" lon="5.88745">
        <ele>712.3</ele>
        <time>2021-02-09T14:36:55Z</time>
      </trkpt>
      <trkpt lat="46.84832" lon="5.88751">
        <ele>711.3</ele>
        <time>2021-02-09T14:37:00Z</time>
      </trkpt>
      <trkpt lat="46.84835" lon="5.88757">
        <ele>710</ele>
        <time>2021-02-09T14:37:05Z</time>
      </trkpt>
      <trkpt lat="46.84839" lon="5.88762">
        <ele>708.3</ele>
        <time>2021-02-09T14:37:11Z</time>
      </trkpt>
      <trkpt lat="46.84843" lon="5.88767">
        <ele>706.9</ele>
        <time>2021-02-09T14:37:16Z</time>
      </trkpt>
      <trkpt lat="46.84846" lon="5.88773">
        <ele>705.5</ele>
        <time>2021-02-09T14:37:21Z</time>
      </trkpt>
      <trkpt lat="46.84847" lon="5.88781">
        <ele>704.4</ele>
        <time>2021-02-09T14:37:26Z</time>
      </trkpt>
      <trkpt lat="46.8485" lon="5.88785">
        <ele>704.1</ele>
        <time>2021-02-09T14:37:29Z</time>
      </trkpt>
      <trkpt lat="46.84854" lon="5.88792">
        <ele>704.7</ele>
        <time>2021-02-09T14:37:33Z</time>
      </trkpt>
      <trkpt lat="46.84857" lon="5.88797">
        <ele>705.2</ele>
        <time>2021-02-09T14:37:36Z</time>
      </trkpt>
      <trkpt lat="46.84862" lon="5.88801">
        <ele>705.3</ele>
        <time>2021-02-09T14:37:40Z</time>
      </trkpt>
      <trkpt lat="46.84865" lon="5.88807">
        <ele>705.1</ele>
        <time>2021-02-09T14:37:46Z</time>
      </trkpt>
      <trkpt lat="46.84869" lon="5.88813">
        <ele>704.5</ele>
        <time>2021-02-09T14:37:52Z</time>
      </trkpt>
      <trkpt lat="46.84872" lon="5.88819">
        <ele>704</ele>
        <time>2021-02-09T14:37:56Z</time>
      </trkpt>
      <trkpt lat="46.84873" lon="5.88825">
        <ele>703.7</ele>
        <time>2021-02-09T14:38:01Z</time>
      </trkpt>
      <trkpt lat="46.84876" lon="5.8883">
        <ele>703.4</ele>
        <time>2021-02-09T14:38:07Z</time>
      </trkpt>
      <trkpt lat="46.8488" lon="5.88837">
        <ele>703.3</ele>
        <time>2021-02-09T14:38:13Z</time>
      </trkpt>
      <trkpt lat="46.84884" lon="5.88843">
        <ele>703.7</ele>
        <time>2021-02-09T14:38:17Z</time>
      </trkpt>
      <trkpt lat="46.84886" lon="5.88849">
        <ele>704.1</ele>
        <time>2021-02-09T14:38:22Z</time>
      </trkpt>
      <trkpt lat="46.84889" lon="5.88855">
        <ele>704.5</ele>
        <time>2021-02-09T14:38:27Z</time>
      </trkpt>
      <trkpt lat="46.84893" lon="5.88858">
        <ele>704</ele>
        <time>2021-02-09T14:38:32Z</time>
      </trkpt>
      <trkpt lat="46.84895" lon="5.88865">
        <ele>702.1</ele>
        <time>2021-02-09T14:38:40Z</time>
      </trkpt>
      <trkpt lat="46.849" lon="5.88875">
        <ele>702.4</ele>
        <time>2021-02-09T14:38:45Z</time>
      </trkpt>
      <trkpt lat="46.84908" lon="5.88883">
        <ele>703.9</ele>
        <time>2021-02-09T14:38:48Z</time>
      </trkpt>
      <trkpt lat="46.84912" lon="5.88889">
        <ele>704.9</ele>
        <time>2021-02-09T14:38:51Z</time>
      </trkpt>
      <trkpt lat="46.84915" lon="5.88894">
        <ele>705.6</ele>
        <time>2021-02-09T14:38:56Z</time>
      </trkpt>
      <trkpt lat="46.84919" lon="5.88899">
        <ele>705.7</ele>
        <time>2021-02-09T14:39:01Z</time>
      </trkpt>
      <trkpt lat="46.8492" lon="5.88906">
        <ele>705.5</ele>
        <time>2021-02-09T14:39:07Z</time>
      </trkpt>
      <trkpt lat="46.84922" lon="5.88914">
        <ele>705.2</ele>
        <time>2021-02-09T14:39:12Z</time>
      </trkpt>
      <trkpt lat="46.84922" lon="5.88922">
        <ele>706.1</ele>
        <time>2021-02-09T14:39:17Z</time>
      </trkpt>
      <trkpt lat="46.84924" lon="5.88928">
        <ele>706.3</ele>
        <time>2021-02-09T14:39:22Z</time>
      </trkpt>
      <trkpt lat="46.84928" lon="5.88933">
        <ele>706.1</ele>
        <time>2021-02-09T14:39:27Z</time>
      </trkpt>
      <trkpt lat="46.84931" lon="5.88938">
        <ele>705.7</ele>
        <time>2021-02-09T14:39:31Z</time>
      </trkpt>
      <trkpt lat="46.84935" lon="5.88944">
        <ele>705</ele>
        <time>2021-02-09T14:39:36Z</time>
      </trkpt>
      <trkpt lat="46.84939" lon="5.88949">
        <ele>704.2</ele>
        <time>2021-02-09T14:39:42Z</time>
      </trkpt>
      <trkpt lat="46.8494" lon="5.88956">
        <ele>703.7</ele>
        <time>2021-02-09T14:39:47Z</time>
      </trkpt>
      <trkpt lat="46.84943" lon="5.88963">
        <ele>703.2</ele>
        <time>2021-02-09T14:39:52Z</time>
      </trkpt>
      <trkpt lat="46.84946" lon="5.88968">
        <ele>702.9</ele>
        <time>2021-02-09T14:39:55Z</time>
      </trkpt>
      <trkpt lat="46.84949" lon="5.88974">
        <ele>702.5</ele>
        <time>2021-02-09T14:39:59Z</time>
      </trkpt>
      <trkpt lat="46.84952" lon="5.8898">
        <ele>702.1</ele>
        <time>2021-02-09T14:40:03Z</time>
      </trkpt>
      <trkpt lat="46.84954" lon="5.88986">
        <ele>701.5</ele>
        <time>2021-02-09T14:40:08Z</time>
      </trkpt>
      <trkpt lat="46.84955" lon="5.88994">
        <ele>701</ele>
        <time>2021-02-09T14:40:13Z</time>
      </trkpt>
      <trkpt lat="46.84953" lon="5.89">
        <ele>700.8</ele>
        <time>2021-02-09T14:40:17Z</time>
      </trkpt>
      <trkpt lat="46.84955" lon="5.89007">
        <ele>700.4</ele>
        <time>2021-02-09T14:40:23Z</time>
      </trkpt>
      <trkpt lat="46.84959" lon="5.89011">
        <ele>700.1</ele>
        <time>2021-02-09T14:40:26Z</time>
      </trkpt>
      <trkpt lat="46.84962" lon="5.89016">
        <ele>699.7</ele>
        <time>2021-02-09T14:40:30Z</time>
      </trkpt>
      <trkpt lat="46.84967" lon="5.89021">
        <ele>699.9</ele>
        <time>2021-02-09T14:40:34Z</time>
      </trkpt>
      <trkpt lat="46.84971" lon="5.89024">
        <ele>699.9</ele>
        <time>2021-02-09T14:40:42Z</time>
      </trkpt>
      <trkpt lat="46.84976" lon="5.89034">
        <ele>702.1</ele>
        <time>2021-02-09T14:40:45Z</time>
      </trkpt>
      <trkpt lat="46.84979" lon="5.89042">
        <ele>703.6</ele>
        <time>2021-02-09T14:40:48Z</time>
      </trkpt>
      <trkpt lat="46.84977" lon="5.89047">
        <ele>715</ele>
        <time>2021-02-09T14:41:05Z</time>
      </trkpt>
      <trkpt lat="46.84983" lon="5.89051">
        <ele>723.7</ele>
        <time>2021-02-09T14:41:14Z</time>
      </trkpt>
      <trkpt lat="46.84987" lon="5.89056">
        <ele>727</ele>
        <time>2021-02-09T14:41:17Z</time>
      </trkpt>
      <trkpt lat="46.84983" lon="5.89057">
        <ele>732.8</ele>
        <time>2021-02-09T14:41:31Z</time>
      </trkpt>
      <trkpt lat="46.84977" lon="5.89055">
        <ele>730.7</ele>
        <time>2021-02-09T14:41:36Z</time>
      </trkpt>
      <trkpt lat="46.84974" lon="5.89051">
        <ele>726.8</ele>
        <time>2021-02-09T14:41:41Z</time>
      </trkpt>
      <trkpt lat="46.84978" lon="5.89049">
        <ele>718.3</ele>
        <time>2021-02-09T14:42:08Z</time>
      </trkpt>
      <trkpt lat="46.84983" lon="5.89047">
        <ele>716.9</ele>
        <time>2021-02-09T14:42:28Z</time>
      </trkpt>
      <trkpt lat="46.84986" lon="5.89053">
        <ele>715.8</ele>
        <time>2021-02-09T14:42:34Z</time>
      </trkpt>
      <trkpt lat="46.84989" lon="5.89059">
        <ele>714.3</ele>
        <time>2021-02-09T14:42:39Z</time>
      </trkpt>
      <trkpt lat="46.84993" lon="5.89063">
        <ele>713.4</ele>
        <time>2021-02-09T14:42:42Z</time>
      </trkpt>
      <trkpt lat="46.84997" lon="5.89066">
        <ele>712.8</ele>
        <time>2021-02-09T14:42:45Z</time>
      </trkpt>
      <trkpt lat="46.85001" lon="5.8907">
        <ele>712</ele>
        <time>2021-02-09T14:42:48Z</time>
      </trkpt>
      <trkpt lat="46.85005" lon="5.89076">
        <ele>710.8</ele>
        <time>2021-02-09T14:42:53Z</time>
      </trkpt>
      <trkpt lat="46.85008" lon="5.8908">
        <ele>709.6</ele>
        <time>2021-02-09T14:42:57Z</time>
      </trkpt>
      <trkpt lat="46.85011" lon="5.89086">
        <ele>708.8</ele>
        <time>2021-02-09T14:43:02Z</time>
      </trkpt>
      <trkpt lat="46.85012" lon="5.89093">
        <ele>708.4</ele>
        <time>2021-02-09T14:43:08Z</time>
      </trkpt>
      <trkpt lat="46.85014" lon="5.891">
        <ele>708.4</ele>
        <time>2021-02-09T14:43:13Z</time>
      </trkpt>
      <trkpt lat="46.85017" lon="5.89105">
        <ele>708.4</ele>
        <time>2021-02-09T14:43:17Z</time>
      </trkpt>
      <trkpt lat="46.8502" lon="5.8911">
        <ele>708.2</ele>
        <time>2021-02-09T14:43:23Z</time>
      </trkpt>
      <trkpt lat="46.85022" lon="5.89117">
        <ele>708.1</ele>
        <time>2021-02-09T14:43:28Z</time>
      </trkpt>
      <trkpt lat="46.85024" lon="5.89124">
        <ele>707.6</ele>
        <time>2021-02-09T14:43:32Z</time>
      </trkpt>
      <trkpt lat="46.85027" lon="5.89131">
        <ele>706.8</ele>
        <time>2021-02-09T14:43:36Z</time>
      </trkpt>
      <trkpt lat="46.85031" lon="5.89138">
        <ele>705.8</ele>
        <time>2021-02-09T14:43:40Z</time>
      </trkpt>
      <trkpt lat="46.85034" lon="5.89144">
        <ele>704.8</ele>
        <time>2021-02-09T14:43:44Z</time>
      </trkpt>
      <trkpt lat="46.85038" lon="5.89149">
        <ele>703.5</ele>
        <time>2021-02-09T14:43:49Z</time>
      </trkpt>
      <trkpt lat="46.8504" lon="5.89155">
        <ele>702</ele>
        <time>2021-02-09T14:43:54Z</time>
      </trkpt>
      <trkpt lat="46.85043" lon="5.8916">
        <ele>700.6</ele>
        <time>2021-02-09T14:44:00Z</time>
      </trkpt>
      <trkpt lat="46.85048" lon="5.89163">
        <ele>699.5</ele>
        <time>2021-02-09T14:44:05Z</time>
      </trkpt>
      <trkpt lat="46.8505" lon="5.8917">
        <ele>699.1</ele>
        <time>2021-02-09T14:44:11Z</time>
      </trkpt>
      <trkpt lat="46.85053" lon="5.89176">
        <ele>699.2</ele>
        <time>2021-02-09T14:44:16Z</time>
      </trkpt>
      <trkpt lat="46.85057" lon="5.89182">
        <ele>699.2</ele>
        <time>2021-02-09T14:44:22Z</time>
      </trkpt>
      <trkpt lat="46.8506" lon="5.89187">
        <ele>698.4</ele>
        <time>2021-02-09T14:44:30Z</time>
      </trkpt>
      <trkpt lat="46.85064" lon="5.89192">
        <ele>697.8</ele>
        <time>2021-02-09T14:44:35Z</time>
      </trkpt>
      <trkpt lat="46.85069" lon="5.89196">
        <ele>697.3</ele>
        <time>2021-02-09T14:44:41Z</time>
      </trkpt>
      <trkpt lat="46.85073" lon="5.892">
        <ele>696.9</ele>
        <time>2021-02-09T14:44:46Z</time>
      </trkpt>
      <trkpt lat="46.85077" lon="5.89205">
        <ele>696.4</ele>
        <time>2021-02-09T14:44:51Z</time>
      </trkpt>
      <trkpt lat="46.85082" lon="5.89208">
        <ele>697.1</ele>
        <time>2021-02-09T14:44:55Z</time>
      </trkpt>
      <trkpt lat="46.85087" lon="5.89212">
        <ele>697.8</ele>
        <time>2021-02-09T14:44:59Z</time>
      </trkpt>
      <trkpt lat="46.85091" lon="5.89215">
        <ele>697.7</ele>
        <time>2021-02-09T14:45:04Z</time>
      </trkpt>
      <trkpt lat="46.85097" lon="5.89217">
        <ele>697.4</ele>
        <time>2021-02-09T14:45:07Z</time>
      </trkpt>
      <trkpt lat="46.85101" lon="5.89221">
        <ele>697.4</ele>
        <time>2021-02-09T14:45:11Z</time>
      </trkpt>
      <trkpt lat="46.85103" lon="5.89228">
        <ele>697.7</ele>
        <time>2021-02-09T14:45:16Z</time>
      </trkpt>
      <trkpt lat="46.85104" lon="5.89234">
        <ele>697.8</ele>
        <time>2021-02-09T14:45:21Z</time>
      </trkpt>
      <trkpt lat="46.85109" lon="5.89236">
        <ele>697.3</ele>
        <time>2021-02-09T14:45:24Z</time>
      </trkpt>
      <trkpt lat="46.85113" lon="5.89241">
        <ele>696.7</ele>
        <time>2021-02-09T14:45:30Z</time>
      </trkpt>
      <trkpt lat="46.85114" lon="5.89248">
        <ele>696.2</ele>
        <time>2021-02-09T14:45:37Z</time>
      </trkpt>
      <trkpt lat="46.85118" lon="5.89253">
        <ele>695.5</ele>
        <time>2021-02-09T14:45:42Z</time>
      </trkpt>
      <trkpt lat="46.85122" lon="5.89259">
        <ele>695.2</ele>
        <time>2021-02-09T14:45:47Z</time>
      </trkpt>
      <trkpt lat="46.85126" lon="5.89264">
        <ele>695.5</ele>
        <time>2021-02-09T14:45:51Z</time>
      </trkpt>
      <trkpt lat="46.8513" lon="5.89267">
        <ele>695.8</ele>
        <time>2021-02-09T14:45:54Z</time>
      </trkpt>
      <trkpt lat="46.85135" lon="5.89271">
        <ele>695.4</ele>
        <time>2021-02-09T14:45:58Z</time>
      </trkpt>
      <trkpt lat="46.85139" lon="5.89276">
        <ele>695</ele>
        <time>2021-02-09T14:46:04Z</time>
      </trkpt>
      <trkpt lat="46.85139" lon="5.89283">
        <ele>694.6</ele>
        <time>2021-02-09T14:46:15Z</time>
      </trkpt>
      <trkpt lat="46.85144" lon="5.89285">
        <ele>694.5</ele>
        <time>2021-02-09T14:46:18Z</time>
      </trkpt>
      <trkpt lat="46.85152" lon="5.89287">
        <ele>694.8</ele>
        <time>2021-02-09T14:46:21Z</time>
      </trkpt>
      <trkpt lat="46.85158" lon="5.8929">
        <ele>695</ele>
        <time>2021-02-09T14:46:24Z</time>
      </trkpt>
      <trkpt lat="46.85162" lon="5.89295">
        <ele>695</ele>
        <time>2021-02-09T14:46:29Z</time>
      </trkpt>
      <trkpt lat="46.85166" lon="5.89298">
        <ele>694.3</ele>
        <time>2021-02-09T14:46:32Z</time>
      </trkpt>
      <trkpt lat="46.85169" lon="5.89303">
        <ele>694.1</ele>
        <time>2021-02-09T14:46:37Z</time>
      </trkpt>
      <trkpt lat="46.85174" lon="5.89307">
        <ele>694.5</ele>
        <time>2021-02-09T14:46:42Z</time>
      </trkpt>
      <trkpt lat="46.85178" lon="5.89311">
        <ele>695.2</ele>
        <time>2021-02-09T14:46:46Z</time>
      </trkpt>
      <trkpt lat="46.85183" lon="5.89315">
        <ele>696</ele>
        <time>2021-02-09T14:46:51Z</time>
      </trkpt>
      <trkpt lat="46.85188" lon="5.89318">
        <ele>696.2</ele>
        <time>2021-02-09T14:46:56Z</time>
      </trkpt>
      <trkpt lat="46.85192" lon="5.8932">
        <ele>696.3</ele>
        <time>2021-02-09T14:47:01Z</time>
      </trkpt>
      <trkpt lat="46.85197" lon="5.89323">
        <ele>696.3</ele>
        <time>2021-02-09T14:47:05Z</time>
      </trkpt>
      <trkpt lat="46.85203" lon="5.89325">
        <ele>695.4</ele>
        <time>2021-02-09T14:47:08Z</time>
      </trkpt>
      <trkpt lat="46.8521" lon="5.89328">
        <ele>695</ele>
        <time>2021-02-09T14:47:11Z</time>
      </trkpt>
      <trkpt lat="46.85214" lon="5.8933">
        <ele>694.6</ele>
        <time>2021-02-09T14:47:14Z</time>
      </trkpt>
      <trkpt lat="46.85218" lon="5.89335">
        <ele>694</ele>
        <time>2021-02-09T14:47:18Z</time>
      </trkpt>
      <trkpt lat="46.85221" lon="5.8934">
        <ele>693.5</ele>
        <time>2021-02-09T14:47:23Z</time>
      </trkpt>
      <trkpt lat="46.85224" lon="5.89345">
        <ele>693.1</ele>
        <time>2021-02-09T14:47:27Z</time>
      </trkpt>
      <trkpt lat="46.85228" lon="5.8935">
        <ele>692.8</ele>
        <time>2021-02-09T14:47:31Z</time>
      </trkpt>
      <trkpt lat="46.85232" lon="5.89355">
        <ele>693.1</ele>
        <time>2021-02-09T14:47:36Z</time>
      </trkpt>
      <trkpt lat="46.85236" lon="5.8936">
        <ele>693.6</ele>
        <time>2021-02-09T14:47:41Z</time>
      </trkpt>
      <trkpt lat="46.85238" lon="5.89366">
        <ele>693.7</ele>
        <time>2021-02-09T14:47:46Z</time>
      </trkpt>
      <trkpt lat="46.85238" lon="5.89373">
        <ele>693.2</ele>
        <time>2021-02-09T14:47:52Z</time>
      </trkpt>
      <trkpt lat="46.85241" lon="5.89378">
        <ele>692.4</ele>
        <time>2021-02-09T14:47:58Z</time>
      </trkpt>
      <trkpt lat="46.85245" lon="5.89384">
        <ele>691.8</ele>
        <time>2021-02-09T14:48:03Z</time>
      </trkpt>
      <trkpt lat="46.85246" lon="5.8939">
        <ele>691.2</ele>
        <time>2021-02-09T14:48:08Z</time>
      </trkpt>
      <trkpt lat="46.85248" lon="5.89398">
        <ele>690.8</ele>
        <time>2021-02-09T14:48:14Z</time>
      </trkpt>
      <trkpt lat="46.85251" lon="5.89403">
        <ele>690.8</ele>
        <time>2021-02-09T14:48:18Z</time>
      </trkpt>
      <trkpt lat="46.85255" lon="5.89409">
        <ele>691</ele>
        <time>2021-02-09T14:48:23Z</time>
      </trkpt>
      <trkpt lat="46.85257" lon="5.89415">
        <ele>690.9</ele>
        <time>2021-02-09T14:48:28Z</time>
      </trkpt>
      <trkpt lat="46.85261" lon="5.8942">
        <ele>690.4</ele>
        <time>2021-02-09T14:48:33Z</time>
      </trkpt>
      <trkpt lat="46.85265" lon="5.89423">
        <ele>689.8</ele>
        <time>2021-02-09T14:48:38Z</time>
      </trkpt>
      <trkpt lat="46.85268" lon="5.89429">
        <ele>688.9</ele>
        <time>2021-02-09T14:48:43Z</time>
      </trkpt>
      <trkpt lat="46.85272" lon="5.89436">
        <ele>688.2</ele>
        <time>2021-02-09T14:48:47Z</time>
      </trkpt>
      <trkpt lat="46.85275" lon="5.8944">
        <ele>687.8</ele>
        <time>2021-02-09T14:48:50Z</time>
      </trkpt>
      <trkpt lat="46.85279" lon="5.89446">
        <ele>687.5</ele>
        <time>2021-02-09T14:48:54Z</time>
      </trkpt>
      <trkpt lat="46.85282" lon="5.8945">
        <ele>686.8</ele>
        <time>2021-02-09T14:48:58Z</time>
      </trkpt>
      <trkpt lat="46.85285" lon="5.89456">
        <ele>685.8</ele>
        <time>2021-02-09T14:49:03Z</time>
      </trkpt>
      <trkpt lat="46.85287" lon="5.89464">
        <ele>685</ele>
        <time>2021-02-09T14:49:08Z</time>
      </trkpt>
      <trkpt lat="46.8529" lon="5.8947">
        <ele>684.3</ele>
        <time>2021-02-09T14:49:13Z</time>
      </trkpt>
      <trkpt lat="46.85293" lon="5.89476">
        <ele>684.3</ele>
        <time>2021-02-09T14:49:17Z</time>
      </trkpt>
      <trkpt lat="46.85296" lon="5.89483">
        <ele>684.2</ele>
        <time>2021-02-09T14:49:21Z</time>
      </trkpt>
      <trkpt lat="46.853" lon="5.89489">
        <ele>684.2</ele>
        <time>2021-02-09T14:49:25Z</time>
      </trkpt>
      <trkpt lat="46.85302" lon="5.89495">
        <ele>684.2</ele>
        <time>2021-02-09T14:49:29Z</time>
      </trkpt>
      <trkpt lat="46.85303" lon="5.89502">
        <ele>683.8</ele>
        <time>2021-02-09T14:49:35Z</time>
      </trkpt>
      <trkpt lat="46.85306" lon="5.89507">
        <ele>683.2</ele>
        <time>2021-02-09T14:49:40Z</time>
      </trkpt>
      <trkpt lat="46.85309" lon="5.89514">
        <ele>682.4</ele>
        <time>2021-02-09T14:49:45Z</time>
      </trkpt>
      <trkpt lat="46.85311" lon="5.8952">
        <ele>682.2</ele>
        <time>2021-02-09T14:49:49Z</time>
      </trkpt>
      <trkpt lat="46.85312" lon="5.89526">
        <ele>681.3</ele>
        <time>2021-02-09T14:49:55Z</time>
      </trkpt>
      <trkpt lat="46.85315" lon="5.89533">
        <ele>680.4</ele>
        <time>2021-02-09T14:50:00Z</time>
      </trkpt>
      <trkpt lat="46.85319" lon="5.89537">
        <ele>679.5</ele>
        <time>2021-02-09T14:50:04Z</time>
      </trkpt>
      <trkpt lat="46.85321" lon="5.89545">
        <ele>678.9</ele>
        <time>2021-02-09T14:50:09Z</time>
      </trkpt>
      <trkpt lat="46.85325" lon="5.8955">
        <ele>678.5</ele>
        <time>2021-02-09T14:50:13Z</time>
      </trkpt>
      <trkpt lat="46.85328" lon="5.89557">
        <ele>677.3</ele>
        <time>2021-02-09T14:50:18Z</time>
      </trkpt>
      <trkpt lat="46.85332" lon="5.89562">
        <ele>676.6</ele>
        <time>2021-02-09T14:50:22Z</time>
      </trkpt>
      <trkpt lat="46.85335" lon="5.89569">
        <ele>676.1</ele>
        <time>2021-02-09T14:50:27Z</time>
      </trkpt>
      <trkpt lat="46.85338" lon="5.89575">
        <ele>676.7</ele>
        <time>2021-02-09T14:50:32Z</time>
      </trkpt>
      <trkpt lat="46.85342" lon="5.8958">
        <ele>677.5</ele>
        <time>2021-02-09T14:50:36Z</time>
      </trkpt>
      <trkpt lat="46.85346" lon="5.89583">
        <ele>677.9</ele>
        <time>2021-02-09T14:50:41Z</time>
      </trkpt>
      <trkpt lat="46.85351" lon="5.89585">
        <ele>677.8</ele>
        <time>2021-02-09T14:50:46Z</time>
      </trkpt>
      <trkpt lat="46.85355" lon="5.89587">
        <ele>677.5</ele>
        <time>2021-02-09T14:50:50Z</time>
      </trkpt>
      <trkpt lat="46.8536" lon="5.89591">
        <ele>676.2</ele>
        <time>2021-02-09T14:50:58Z</time>
      </trkpt>
      <trkpt lat="46.85364" lon="5.89597">
        <ele>675</ele>
        <time>2021-02-09T14:51:13Z</time>
      </trkpt>
      <trkpt lat="46.85368" lon="5.896">
        <ele>675.2</ele>
        <time>2021-02-09T14:51:17Z</time>
      </trkpt>
      <trkpt lat="46.85372" lon="5.89602">
        <ele>675.2</ele>
        <time>2021-02-09T14:51:22Z</time>
      </trkpt>
      <trkpt lat="46.85377" lon="5.89606">
        <ele>675.1</ele>
        <time>2021-02-09T14:51:27Z</time>
      </trkpt>
      <trkpt lat="46.85381" lon="5.89609">
        <ele>674.4</ele>
        <time>2021-02-09T14:51:34Z</time>
      </trkpt>
      <trkpt lat="46.85386" lon="5.89609">
        <ele>674.1</ele>
        <time>2021-02-09T14:51:40Z</time>
      </trkpt>
      <trkpt lat="46.8539" lon="5.8961">
        <ele>673.6</ele>
        <time>2021-02-09T14:51:47Z</time>
      </trkpt>
      <trkpt lat="46.85395" lon="5.89611">
        <ele>672.6</ele>
        <time>2021-02-09T14:51:54Z</time>
      </trkpt>
      <trkpt lat="46.85401" lon="5.8961">
        <ele>672.4</ele>
        <time>2021-02-09T14:52:03Z</time>
      </trkpt>
      <trkpt lat="46.85406" lon="5.8961">
        <ele>673.2</ele>
        <time>2021-02-09T14:52:07Z</time>
      </trkpt>
      <trkpt lat="46.85411" lon="5.8961">
        <ele>674.2</ele>
        <time>2021-02-09T14:52:11Z</time>
      </trkpt>
      <trkpt lat="46.85416" lon="5.89609">
        <ele>675.1</ele>
        <time>2021-02-09T14:52:15Z</time>
      </trkpt>
      <trkpt lat="46.85424" lon="5.89608">
        <ele>676.3</ele>
        <time>2021-02-09T14:52:19Z</time>
      </trkpt>
      <trkpt lat="46.85433" lon="5.89608">
        <ele>677.7</ele>
        <time>2021-02-09T14:52:22Z</time>
      </trkpt>
      <trkpt lat="46.85441" lon="5.8961">
        <ele>679.3</ele>
        <time>2021-02-09T14:52:25Z</time>
      </trkpt>
      <trkpt lat="46.85448" lon="5.8961">
        <ele>680.7</ele>
        <time>2021-02-09T14:52:28Z</time>
      </trkpt>
      <trkpt lat="46.85453" lon="5.89612">
        <ele>682.2</ele>
        <time>2021-02-09T14:52:32Z</time>
      </trkpt>
      <trkpt lat="46.85457" lon="5.89616">
        <ele>683.6</ele>
        <time>2021-02-09T14:52:38Z</time>
      </trkpt>
      <trkpt lat="46.8546" lon="5.89621">
        <ele>684.3</ele>
        <time>2021-02-09T14:52:44Z</time>
      </trkpt>
      <trkpt lat="46.85463" lon="5.89626">
        <ele>684.3</ele>
        <time>2021-02-09T14:52:48Z</time>
      </trkpt>
      <trkpt lat="46.85468" lon="5.89629">
        <ele>683.4</ele>
        <time>2021-02-09T14:52:53Z</time>
      </trkpt>
      <trkpt lat="46.85473" lon="5.89632">
        <ele>681.8</ele>
        <time>2021-02-09T14:53:00Z</time>
      </trkpt>
      <trkpt lat="46.85477" lon="5.89637">
        <ele>679.4</ele>
        <time>2021-02-09T14:53:07Z</time>
      </trkpt>
      <trkpt lat="46.85482" lon="5.89639">
        <ele>677</ele>
        <time>2021-02-09T14:53:13Z</time>
      </trkpt>
      <trkpt lat="46.85486" lon="5.89645">
        <ele>673.2</ele>
        <time>2021-02-09T14:53:22Z</time>
      </trkpt>
      <trkpt lat="46.8549" lon="5.89648">
        <ele>670.8</ele>
        <time>2021-02-09T14:53:27Z</time>
      </trkpt>
      <trkpt lat="46.85495" lon="5.89651">
        <ele>668.7</ele>
        <time>2021-02-09T14:53:32Z</time>
      </trkpt>
      <trkpt lat="46.85499" lon="5.89655">
        <ele>667</ele>
        <time>2021-02-09T14:53:37Z</time>
      </trkpt>
      <trkpt lat="46.85504" lon="5.89659">
        <ele>665.5</ele>
        <time>2021-02-09T14:53:42Z</time>
      </trkpt>
      <trkpt lat="46.85509" lon="5.89662">
        <ele>664.1</ele>
        <time>2021-02-09T14:53:47Z</time>
      </trkpt>
      <trkpt lat="46.85513" lon="5.89667">
        <ele>664.2</ele>
        <time>2021-02-09T14:53:51Z</time>
      </trkpt>
      <trkpt lat="46.85517" lon="5.89669">
        <ele>664.1</ele>
        <time>2021-02-09T14:53:55Z</time>
      </trkpt>
      <trkpt lat="46.85523" lon="5.89669">
        <ele>663.9</ele>
        <time>2021-02-09T14:54:00Z</time>
      </trkpt>
      <trkpt lat="46.85527" lon="5.89672">
        <ele>663.6</ele>
        <time>2021-02-09T14:54:05Z</time>
      </trkpt>
      <trkpt lat="46.85532" lon="5.89674">
        <ele>663.1</ele>
        <time>2021-02-09T14:54:09Z</time>
      </trkpt>
      <trkpt lat="46.85537" lon="5.89675">
        <ele>663.1</ele>
        <time>2021-02-09T14:54:12Z</time>
      </trkpt>
      <trkpt lat="46.85541" lon="5.89678">
        <ele>662.7</ele>
        <time>2021-02-09T14:54:16Z</time>
      </trkpt>
      <trkpt lat="46.85546" lon="5.89679">
        <ele>661.7</ele>
        <time>2021-02-09T14:54:21Z</time>
      </trkpt>
      <trkpt lat="46.85551" lon="5.89681">
        <ele>659.6</ele>
        <time>2021-02-09T14:54:28Z</time>
      </trkpt>
      <trkpt lat="46.85556" lon="5.89682">
        <ele>658.2</ele>
        <time>2021-02-09T14:54:31Z</time>
      </trkpt>
      <trkpt lat="46.8556" lon="5.89685">
        <ele>656.1</ele>
        <time>2021-02-09T14:54:36Z</time>
      </trkpt>
      <trkpt lat="46.85564" lon="5.89689">
        <ele>654.9</ele>
        <time>2021-02-09T14:54:40Z</time>
      </trkpt>
      <trkpt lat="46.85569" lon="5.89691">
        <ele>655</ele>
        <time>2021-02-09T14:54:44Z</time>
      </trkpt>
      <trkpt lat="46.85574" lon="5.89693">
        <ele>655.7</ele>
        <time>2021-02-09T14:54:50Z</time>
      </trkpt>
      <trkpt lat="46.85578" lon="5.89697">
        <ele>657.2</ele>
        <time>2021-02-09T14:54:59Z</time>
      </trkpt>
      <trkpt lat="46.85583" lon="5.89699">
        <ele>657</ele>
        <time>2021-02-09T14:55:05Z</time>
      </trkpt>
      <trkpt lat="46.85588" lon="5.89702">
        <ele>656.8</ele>
        <time>2021-02-09T14:55:09Z</time>
      </trkpt>
      <trkpt lat="46.85593" lon="5.89704">
        <ele>656.8</ele>
        <time>2021-02-09T14:55:13Z</time>
      </trkpt>
      <trkpt lat="46.85598" lon="5.89706">
        <ele>656.7</ele>
        <time>2021-02-09T14:55:16Z</time>
      </trkpt>
      <trkpt lat="46.85603" lon="5.89707">
        <ele>656.4</ele>
        <time>2021-02-09T14:55:20Z</time>
      </trkpt>
      <trkpt lat="46.85609" lon="5.89709">
        <ele>655.8</ele>
        <time>2021-02-09T14:55:24Z</time>
      </trkpt>
      <trkpt lat="46.85614" lon="5.8971">
        <ele>654.8</ele>
        <time>2021-02-09T14:55:28Z</time>
      </trkpt>
      <trkpt lat="46.85619" lon="5.89712">
        <ele>653.8</ele>
        <time>2021-02-09T14:55:32Z</time>
      </trkpt>
      <trkpt lat="46.85624" lon="5.89714">
        <ele>651.7</ele>
        <time>2021-02-09T14:55:38Z</time>
      </trkpt>
      <trkpt lat="46.8563" lon="5.89716">
        <ele>649.2</ele>
        <time>2021-02-09T14:55:44Z</time>
      </trkpt>
      <trkpt lat="46.85635" lon="5.89718">
        <ele>648.1</ele>
        <time>2021-02-09T14:55:49Z</time>
      </trkpt>
      <trkpt lat="46.8564" lon="5.89719">
        <ele>647.9</ele>
        <time>2021-02-09T14:55:52Z</time>
      </trkpt>
      <trkpt lat="46.85644" lon="5.89721">
        <ele>647.7</ele>
        <time>2021-02-09T14:55:55Z</time>
      </trkpt>
      <trkpt lat="46.85649" lon="5.89722">
        <ele>647.6</ele>
        <time>2021-02-09T14:55:58Z</time>
      </trkpt>
      <trkpt lat="46.85653" lon="5.89724">
        <ele>647.4</ele>
        <time>2021-02-09T14:56:02Z</time>
      </trkpt>
      <trkpt lat="46.85658" lon="5.89726">
        <ele>647.6</ele>
        <time>2021-02-09T14:56:08Z</time>
      </trkpt>
      <trkpt lat="46.85663" lon="5.89727">
        <ele>647.8</ele>
        <time>2021-02-09T14:56:12Z</time>
      </trkpt>
      <trkpt lat="46.85667" lon="5.89728">
        <ele>647.5</ele>
        <time>2021-02-09T14:56:16Z</time>
      </trkpt>
      <trkpt lat="46.85672" lon="5.8973">
        <ele>646</ele>
        <time>2021-02-09T14:56:22Z</time>
      </trkpt>
      <trkpt lat="46.85677" lon="5.89733">
        <ele>643.1</ele>
        <time>2021-02-09T14:56:31Z</time>
      </trkpt>
      <trkpt lat="46.85682" lon="5.89732">
        <ele>641.3</ele>
        <time>2021-02-09T14:56:36Z</time>
      </trkpt>
      <trkpt lat="46.85686" lon="5.89735">
        <ele>640</ele>
        <time>2021-02-09T14:56:40Z</time>
      </trkpt>
      <trkpt lat="46.8569" lon="5.89738">
        <ele>639.1</ele>
        <time>2021-02-09T14:56:44Z</time>
      </trkpt>
      <trkpt lat="46.85696" lon="5.89741">
        <ele>638.5</ele>
        <time>2021-02-09T14:56:48Z</time>
      </trkpt>
      <trkpt lat="46.857" lon="5.89743">
        <ele>638.6</ele>
        <time>2021-02-09T14:56:51Z</time>
      </trkpt>
      <trkpt lat="46.85704" lon="5.89747">
        <ele>638.6</ele>
        <time>2021-02-09T14:56:54Z</time>
      </trkpt>
      <trkpt lat="46.85709" lon="5.89752">
        <ele>638.9</ele>
        <time>2021-02-09T14:56:58Z</time>
      </trkpt>
      <trkpt lat="46.85712" lon="5.89758">
        <ele>639.7</ele>
        <time>2021-02-09T14:57:01Z</time>
      </trkpt>
      <trkpt lat="46.85717" lon="5.89764">
        <ele>641.3</ele>
        <time>2021-02-09T14:57:05Z</time>
      </trkpt>
      <trkpt lat="46.85721" lon="5.89768">
        <ele>642.1</ele>
        <time>2021-02-09T14:57:09Z</time>
      </trkpt>
      <trkpt lat="46.85726" lon="5.89772">
        <ele>642.3</ele>
        <time>2021-02-09T14:57:14Z</time>
      </trkpt>
      <trkpt lat="46.85731" lon="5.89776">
        <ele>642.3</ele>
        <time>2021-02-09T14:57:18Z</time>
      </trkpt>
      <trkpt lat="46.85735" lon="5.89781">
        <ele>642.7</ele>
        <time>2021-02-09T14:57:22Z</time>
      </trkpt>
      <trkpt lat="46.8574" lon="5.89784">
        <ele>643</ele>
        <time>2021-02-09T14:57:26Z</time>
      </trkpt>
      <trkpt lat="46.85744" lon="5.8979">
        <ele>644.4</ele>
        <time>2021-02-09T14:57:31Z</time>
      </trkpt>
      <trkpt lat="46.85749" lon="5.89793">
        <ele>645.6</ele>
        <time>2021-02-09T14:57:36Z</time>
      </trkpt>
      <trkpt lat="46.85754" lon="5.89796">
        <ele>646.3</ele>
        <time>2021-02-09T14:57:41Z</time>
      </trkpt>
      <trkpt lat="46.85758" lon="5.898">
        <ele>645.9</ele>
        <time>2021-02-09T14:57:47Z</time>
      </trkpt>
      <trkpt lat="46.85762" lon="5.89806">
        <ele>645.9</ele>
        <time>2021-02-09T14:57:52Z</time>
      </trkpt>
      <trkpt lat="46.85765" lon="5.89811">
        <ele>646.2</ele>
        <time>2021-02-09T14:57:57Z</time>
      </trkpt>
      <trkpt lat="46.85769" lon="5.89816">
        <ele>646.8</ele>
        <time>2021-02-09T14:58:04Z</time>
      </trkpt>
      <trkpt lat="46.85772" lon="5.89822">
        <ele>647.5</ele>
        <time>2021-02-09T14:58:12Z</time>
      </trkpt>
      <trkpt lat="46.85776" lon="5.89828">
        <ele>648.1</ele>
        <time>2021-02-09T14:58:16Z</time>
      </trkpt>
      <trkpt lat="46.8578" lon="5.89833">
        <ele>648.7</ele>
        <time>2021-02-09T14:58:20Z</time>
      </trkpt>
      <trkpt lat="46.85782" lon="5.8984">
        <ele>649.4</ele>
        <time>2021-02-09T14:58:26Z</time>
      </trkpt>
      <trkpt lat="46.85784" lon="5.89846">
        <ele>649.8</ele>
        <time>2021-02-09T14:58:30Z</time>
      </trkpt>
      <trkpt lat="46.85787" lon="5.89853">
        <ele>650.1</ele>
        <time>2021-02-09T14:58:34Z</time>
      </trkpt>
      <trkpt lat="46.85789" lon="5.8986">
        <ele>650.4</ele>
        <time>2021-02-09T14:58:39Z</time>
      </trkpt>
      <trkpt lat="46.85789" lon="5.89867">
        <ele>650.3</ele>
        <time>2021-02-09T14:58:43Z</time>
      </trkpt>
      <trkpt lat="46.85788" lon="5.89874">
        <ele>649.8</ele>
        <time>2021-02-09T14:58:47Z</time>
      </trkpt>
      <trkpt lat="46.85788" lon="5.89881">
        <ele>649.1</ele>
        <time>2021-02-09T14:58:51Z</time>
      </trkpt>
      <trkpt lat="46.85789" lon="5.89889">
        <ele>648.5</ele>
        <time>2021-02-09T14:58:56Z</time>
      </trkpt>
      <trkpt lat="46.85789" lon="5.89896">
        <ele>648.2</ele>
        <time>2021-02-09T14:59:01Z</time>
      </trkpt>
      <trkpt lat="46.85789" lon="5.89903">
        <ele>648.3</ele>
        <time>2021-02-09T14:59:05Z</time>
      </trkpt>
      <trkpt lat="46.85789" lon="5.8991">
        <ele>648.5</ele>
        <time>2021-02-09T14:59:10Z</time>
      </trkpt>
      <trkpt lat="46.8579" lon="5.89916">
        <ele>648.4</ele>
        <time>2021-02-09T14:59:16Z</time>
      </trkpt>
      <trkpt lat="46.85792" lon="5.89922">
        <ele>648.3</ele>
        <time>2021-02-09T14:59:20Z</time>
      </trkpt>
      <trkpt lat="46.85796" lon="5.89928">
        <ele>648.6</ele>
        <time>2021-02-09T14:59:23Z</time>
      </trkpt>
      <trkpt lat="46.85799" lon="5.89934">
        <ele>648.9</ele>
        <time>2021-02-09T14:59:26Z</time>
      </trkpt>
      <trkpt lat="46.85802" lon="5.8994">
        <ele>648.9</ele>
        <time>2021-02-09T14:59:31Z</time>
      </trkpt>
      <trkpt lat="46.85804" lon="5.89946">
        <ele>649.4</ele>
        <time>2021-02-09T14:59:34Z</time>
      </trkpt>
      <trkpt lat="46.85806" lon="5.89953">
        <ele>650.4</ele>
        <time>2021-02-09T14:59:37Z</time>
      </trkpt>
      <trkpt lat="46.85806" lon="5.89959">
        <ele>651.4</ele>
        <time>2021-02-09T14:59:40Z</time>
      </trkpt>
      <trkpt lat="46.85807" lon="5.89966">
        <ele>652.8</ele>
        <time>2021-02-09T14:59:44Z</time>
      </trkpt>
      <trkpt lat="46.8581" lon="5.89973">
        <ele>654.4</ele>
        <time>2021-02-09T14:59:49Z</time>
      </trkpt>
      <trkpt lat="46.85813" lon="5.89979">
        <ele>655.3</ele>
        <time>2021-02-09T14:59:54Z</time>
      </trkpt>
      <trkpt lat="46.85817" lon="5.89983">
        <ele>655.8</ele>
        <time>2021-02-09T14:59:58Z</time>
      </trkpt>
      <trkpt lat="46.85819" lon="5.89989">
        <ele>655.9</ele>
        <time>2021-02-09T15:00:03Z</time>
      </trkpt>
      <trkpt lat="46.85823" lon="5.89994">
        <ele>655.9</ele>
        <time>2021-02-09T15:00:07Z</time>
      </trkpt>
      <trkpt lat="46.85827" lon="5.89998">
        <ele>655.8</ele>
        <time>2021-02-09T15:00:10Z</time>
      </trkpt>
      <trkpt lat="46.85831" lon="5.90003">
        <ele>655.7</ele>
        <time>2021-02-09T15:00:14Z</time>
      </trkpt>
      <trkpt lat="46.85834" lon="5.90008">
        <ele>655.5</ele>
        <time>2021-02-09T15:00:17Z</time>
      </trkpt>
      <trkpt lat="46.85836" lon="5.90016">
        <ele>655.3</ele>
        <time>2021-02-09T15:00:21Z</time>
      </trkpt>
      <trkpt lat="46.85839" lon="5.90023">
        <ele>654.6</ele>
        <time>2021-02-09T15:00:25Z</time>
      </trkpt>
      <trkpt lat="46.8584" lon="5.90029">
        <ele>653.9</ele>
        <time>2021-02-09T15:00:29Z</time>
      </trkpt>
      <trkpt lat="46.85842" lon="5.90036">
        <ele>653.7</ele>
        <time>2021-02-09T15:00:33Z</time>
      </trkpt>
      <trkpt lat="46.85844" lon="5.90043">
        <ele>653.7</ele>
        <time>2021-02-09T15:00:37Z</time>
      </trkpt>
      <trkpt lat="46.85845" lon="5.90051">
        <ele>653.3</ele>
        <time>2021-02-09T15:00:42Z</time>
      </trkpt>
      <trkpt lat="46.85847" lon="5.90057">
        <ele>652.5</ele>
        <time>2021-02-09T15:00:46Z</time>
      </trkpt>
      <trkpt lat="46.85847" lon="5.90065">
        <ele>651.1</ele>
        <time>2021-02-09T15:00:52Z</time>
      </trkpt>
      <trkpt lat="46.85845" lon="5.90071">
        <ele>650</ele>
        <time>2021-02-09T15:00:57Z</time>
      </trkpt>
      <trkpt lat="46.85844" lon="5.90079">
        <ele>648.6</ele>
        <time>2021-02-09T15:01:02Z</time>
      </trkpt>
      <trkpt lat="46.85843" lon="5.90087">
        <ele>647.4</ele>
        <time>2021-02-09T15:01:07Z</time>
      </trkpt>
      <trkpt lat="46.8584" lon="5.90092">
        <ele>646</ele>
        <time>2021-02-09T15:01:13Z</time>
      </trkpt>
      <trkpt lat="46.85839" lon="5.90099">
        <ele>644.4</ele>
        <time>2021-02-09T15:01:19Z</time>
      </trkpt>
      <trkpt lat="46.85842" lon="5.90106">
        <ele>642.8</ele>
        <time>2021-02-09T15:01:24Z</time>
      </trkpt>
      <trkpt lat="46.85845" lon="5.90112">
        <ele>641.4</ele>
        <time>2021-02-09T15:01:28Z</time>
      </trkpt>
      <trkpt lat="46.85845" lon="5.90119">
        <ele>640.7</ele>
        <time>2021-02-09T15:01:32Z</time>
      </trkpt>
      <trkpt lat="46.85845" lon="5.90127">
        <ele>640</ele>
        <time>2021-02-09T15:01:36Z</time>
      </trkpt>
      <trkpt lat="46.85843" lon="5.90133">
        <ele>639.3</ele>
        <time>2021-02-09T15:01:40Z</time>
      </trkpt>
      <trkpt lat="46.85842" lon="5.9014">
        <ele>638.1</ele>
        <time>2021-02-09T15:01:45Z</time>
      </trkpt>
      <trkpt lat="46.85842" lon="5.90147">
        <ele>636.7</ele>
        <time>2021-02-09T15:01:50Z</time>
      </trkpt>
      <trkpt lat="46.85841" lon="5.90155">
        <ele>635.5</ele>
        <time>2021-02-09T15:01:55Z</time>
      </trkpt>
      <trkpt lat="46.85841" lon="5.90163">
        <ele>635.2</ele>
        <time>2021-02-09T15:01:59Z</time>
      </trkpt>
      <trkpt lat="46.85841" lon="5.90169">
        <ele>635</ele>
        <time>2021-02-09T15:02:03Z</time>
      </trkpt>
      <trkpt lat="46.85839" lon="5.90176">
        <ele>635</ele>
        <time>2021-02-09T15:02:08Z</time>
      </trkpt>
      <trkpt lat="46.85838" lon="5.90183">
        <ele>634.6</ele>
        <time>2021-02-09T15:02:15Z</time>
      </trkpt>
      <trkpt lat="46.85836" lon="5.90189">
        <ele>634.2</ele>
        <time>2021-02-09T15:02:20Z</time>
      </trkpt>
      <trkpt lat="46.85836" lon="5.90196">
        <ele>633.7</ele>
        <time>2021-02-09T15:02:25Z</time>
      </trkpt>
      <trkpt lat="46.85834" lon="5.90204">
        <ele>633.7</ele>
        <time>2021-02-09T15:02:29Z</time>
      </trkpt>
      <trkpt lat="46.85833" lon="5.90211">
        <ele>633.9</ele>
        <time>2021-02-09T15:02:33Z</time>
      </trkpt>
      <trkpt lat="46.85833" lon="5.90218">
        <ele>634.3</ele>
        <time>2021-02-09T15:02:37Z</time>
      </trkpt>
      <trkpt lat="46.85833" lon="5.90225">
        <ele>634.4</ele>
        <time>2021-02-09T15:02:43Z</time>
      </trkpt>
      <trkpt lat="46.85832" lon="5.90232">
        <ele>634.1</ele>
        <time>2021-02-09T15:02:52Z</time>
      </trkpt>
      <trkpt lat="46.85832" lon="5.90239">
        <ele>634.1</ele>
        <time>2021-02-09T15:03:02Z</time>
      </trkpt>
      <trkpt lat="46.85834" lon="5.90247">
        <ele>633.4</ele>
        <time>2021-02-09T15:03:05Z</time>
      </trkpt>
      <trkpt lat="46.85837" lon="5.90252">
        <ele>632.8</ele>
        <time>2021-02-09T15:03:08Z</time>
      </trkpt>
      <trkpt lat="46.85838" lon="5.90259">
        <ele>631.8</ele>
        <time>2021-02-09T15:03:13Z</time>
      </trkpt>
      <trkpt lat="46.85839" lon="5.90266">
        <ele>631.1</ele>
        <time>2021-02-09T15:03:17Z</time>
      </trkpt>
      <trkpt lat="46.85841" lon="5.90273">
        <ele>629.6</ele>
        <time>2021-02-09T15:03:25Z</time>
      </trkpt>
      <trkpt lat="46.85844" lon="5.9028">
        <ele>628.2</ele>
        <time>2021-02-09T15:03:35Z</time>
      </trkpt>
      <trkpt lat="46.85845" lon="5.90273">
        <ele>624.9</ele>
        <time>2021-02-09T15:03:59Z</time>
      </trkpt>
      <trkpt lat="46.85841" lon="5.90268">
        <ele>624.2</ele>
        <time>2021-02-09T15:04:04Z</time>
      </trkpt>
      <trkpt lat="46.85838" lon="5.90263">
        <ele>623.6</ele>
        <time>2021-02-09T15:04:10Z</time>
      </trkpt>
      <trkpt lat="46.85837" lon="5.90256">
        <ele>623.2</ele>
        <time>2021-02-09T15:04:16Z</time>
      </trkpt>
      <trkpt lat="46.85836" lon="5.90248">
        <ele>622.9</ele>
        <time>2021-02-09T15:04:21Z</time>
      </trkpt>
      <trkpt lat="46.85835" lon="5.90242">
        <ele>622.7</ele>
        <time>2021-02-09T15:04:25Z</time>
      </trkpt>
      <trkpt lat="46.85834" lon="5.90235">
        <ele>622.5</ele>
        <time>2021-02-09T15:04:30Z</time>
      </trkpt>
      <trkpt lat="46.85834" lon="5.90227">
        <ele>622.4</ele>
        <time>2021-02-09T15:04:35Z</time>
      </trkpt>
      <trkpt lat="46.85834" lon="5.9022">
        <ele>622.2</ele>
        <time>2021-02-09T15:04:41Z</time>
      </trkpt>
      <trkpt lat="46.8583" lon="5.90214">
        <ele>622.1</ele>
        <time>2021-02-09T15:04:46Z</time>
      </trkpt>
      <trkpt lat="46.85826" lon="5.90212">
        <ele>622.1</ele>
        <time>2021-02-09T15:04:50Z</time>
      </trkpt>
      <trkpt lat="46.85822" lon="5.90209">
        <ele>622.6</ele>
        <time>2021-02-09T15:04:57Z</time>
      </trkpt>
      <trkpt lat="46.85818" lon="5.90212">
        <ele>623.1</ele>
        <time>2021-02-09T15:05:06Z</time>
      </trkpt>
      <trkpt lat="46.85813" lon="5.90216">
        <ele>623.2</ele>
        <time>2021-02-09T15:05:12Z</time>
      </trkpt>
      <trkpt lat="46.85808" lon="5.90217">
        <ele>623.4</ele>
        <time>2021-02-09T15:05:17Z</time>
      </trkpt>
      <trkpt lat="46.85803" lon="5.90218">
        <ele>623.4</ele>
        <time>2021-02-09T15:05:22Z</time>
      </trkpt>
      <trkpt lat="46.85792" lon="5.90228">
        <ele>629</ele>
        <time>2021-02-09T15:05:25Z</time>
      </trkpt>
      <trkpt lat="46.85788" lon="5.90232">
        <ele>632.4</ele>
        <time>2021-02-09T15:05:29Z</time>
      </trkpt>
      <trkpt lat="46.85783" lon="5.90235">
        <ele>634.8</ele>
        <time>2021-02-09T15:05:36Z</time>
      </trkpt>
      <trkpt lat="46.8578" lon="5.90241">
        <ele>635.6</ele>
        <time>2021-02-09T15:05:42Z</time>
      </trkpt>
      <trkpt lat="46.85777" lon="5.90246">
        <ele>635.6</ele>
        <time>2021-02-09T15:05:48Z</time>
      </trkpt>
      <trkpt lat="46.85775" lon="5.90253">
        <ele>635.4</ele>
        <time>2021-02-09T15:05:53Z</time>
      </trkpt>
      <trkpt lat="46.85773" lon="5.9026">
        <ele>635.1</ele>
        <time>2021-02-09T15:05:58Z</time>
      </trkpt>
      <trkpt lat="46.85771" lon="5.90267">
        <ele>634.5</ele>
        <time>2021-02-09T15:06:04Z</time>
      </trkpt>
      <trkpt lat="46.85769" lon="5.90273">
        <ele>634.2</ele>
        <time>2021-02-09T15:06:09Z</time>
      </trkpt>
      <trkpt lat="46.85768" lon="5.9028">
        <ele>634</ele>
        <time>2021-02-09T15:06:13Z</time>
      </trkpt>
      <trkpt lat="46.85766" lon="5.90287">
        <ele>633.8</ele>
        <time>2021-02-09T15:06:16Z</time>
      </trkpt>
      <trkpt lat="46.85763" lon="5.90293">
        <ele>633.2</ele>
        <time>2021-02-09T15:06:21Z</time>
      </trkpt>
      <trkpt lat="46.8576" lon="5.903">
        <ele>632.5</ele>
        <time>2021-02-09T15:06:26Z</time>
      </trkpt>
      <trkpt lat="46.85758" lon="5.90306">
        <ele>632</ele>
        <time>2021-02-09T15:06:31Z</time>
      </trkpt>
      <trkpt lat="46.85756" lon="5.90313">
        <ele>631.9</ele>
        <time>2021-02-09T15:06:36Z</time>
      </trkpt>
      <trkpt lat="46.85753" lon="5.90319">
        <ele>631.8</ele>
        <time>2021-02-09T15:06:42Z</time>
      </trkpt>
      <trkpt lat="46.85751" lon="5.90325">
        <ele>631.3</ele>
        <time>2021-02-09T15:06:47Z</time>
      </trkpt>
      <trkpt lat="46.85749" lon="5.90333">
        <ele>630.6</ele>
        <time>2021-02-09T15:06:53Z</time>
      </trkpt>
      <trkpt lat="46.85747" lon="5.90339">
        <ele>630</ele>
        <time>2021-02-09T15:06:57Z</time>
      </trkpt>
      <trkpt lat="46.85742" lon="5.90344">
        <ele>629.4</ele>
        <time>2021-02-09T15:07:01Z</time>
      </trkpt>
      <trkpt lat="46.85738" lon="5.90348">
        <ele>628.8</ele>
        <time>2021-02-09T15:07:05Z</time>
      </trkpt>
      <trkpt lat="46.85734" lon="5.90351">
        <ele>627.4</ele>
        <time>2021-02-09T15:07:10Z</time>
      </trkpt>
      <trkpt lat="46.8573" lon="5.90355">
        <ele>625.7</ele>
        <time>2021-02-09T15:07:16Z</time>
      </trkpt>
      <trkpt lat="46.85727" lon="5.90363">
        <ele>624.2</ele>
        <time>2021-02-09T15:07:20Z</time>
      </trkpt>
      <trkpt lat="46.85723" lon="5.90368">
        <ele>622.5</ele>
        <time>2021-02-09T15:07:25Z</time>
      </trkpt>
      <trkpt lat="46.85719" lon="5.90372">
        <ele>620.7</ele>
        <time>2021-02-09T15:07:31Z</time>
      </trkpt>
      <trkpt lat="46.85716" lon="5.90378">
        <ele>619.4</ele>
        <time>2021-02-09T15:07:36Z</time>
      </trkpt>
      <trkpt lat="46.85714" lon="5.90385">
        <ele>618.5</ele>
        <time>2021-02-09T15:07:40Z</time>
      </trkpt>
      <trkpt lat="46.85712" lon="5.90394">
        <ele>618.1</ele>
        <time>2021-02-09T15:07:44Z</time>
      </trkpt>
      <trkpt lat="46.85713" lon="5.90401">
        <ele>617.4</ele>
        <time>2021-02-09T15:07:49Z</time>
      </trkpt>
      <trkpt lat="46.85714" lon="5.90408">
        <ele>616.4</ele>
        <time>2021-02-09T15:07:54Z</time>
      </trkpt>
      <trkpt lat="46.85713" lon="5.90415">
        <ele>615.1</ele>
        <time>2021-02-09T15:07:59Z</time>
      </trkpt>
      <trkpt lat="46.85712" lon="5.90421">
        <ele>614.6</ele>
        <time>2021-02-09T15:08:03Z</time>
      </trkpt>
      <trkpt lat="46.85711" lon="5.90428">
        <ele>614</ele>
        <time>2021-02-09T15:08:08Z</time>
      </trkpt>
      <trkpt lat="46.8571" lon="5.90436">
        <ele>613.1</ele>
        <time>2021-02-09T15:08:13Z</time>
      </trkpt>
      <trkpt lat="46.85711" lon="5.90444">
        <ele>611.9</ele>
        <time>2021-02-09T15:08:18Z</time>
      </trkpt>
      <trkpt lat="46.8571" lon="5.9045">
        <ele>611.4</ele>
        <time>2021-02-09T15:08:22Z</time>
      </trkpt>
      <trkpt lat="46.85708" lon="5.90457">
        <ele>611</ele>
        <time>2021-02-09T15:08:26Z</time>
      </trkpt>
      <trkpt lat="46.85705" lon="5.90462">
        <ele>610.5</ele>
        <time>2021-02-09T15:08:30Z</time>
      </trkpt>
      <trkpt lat="46.85702" lon="5.90467">
        <ele>608.6</ele>
        <time>2021-02-09T15:08:36Z</time>
      </trkpt>
      <trkpt lat="46.85697" lon="5.90469">
        <ele>606.2</ele>
        <time>2021-02-09T15:08:42Z</time>
      </trkpt>
      <trkpt lat="46.85693" lon="5.90473">
        <ele>603.4</ele>
        <time>2021-02-09T15:08:48Z</time>
      </trkpt>
      <trkpt lat="46.85688" lon="5.90475">
        <ele>601.4</ele>
        <time>2021-02-09T15:08:52Z</time>
      </trkpt>
      <trkpt lat="46.85684" lon="5.90479">
        <ele>599.7</ele>
        <time>2021-02-09T15:08:56Z</time>
      </trkpt>
      <trkpt lat="46.8568" lon="5.90484">
        <ele>597.4</ele>
        <time>2021-02-09T15:09:01Z</time>
      </trkpt>
      <trkpt lat="46.85675" lon="5.90489">
        <ele>595.8</ele>
        <time>2021-02-09T15:09:06Z</time>
      </trkpt>
      <trkpt lat="46.85671" lon="5.90492">
        <ele>594.8</ele>
        <time>2021-02-09T15:09:10Z</time>
      </trkpt>
      <trkpt lat="46.85667" lon="5.90496">
        <ele>594.1</ele>
        <time>2021-02-09T15:09:14Z</time>
      </trkpt>
      <trkpt lat="46.85664" lon="5.905">
        <ele>593.5</ele>
        <time>2021-02-09T15:09:19Z</time>
      </trkpt>
      <trkpt lat="46.8566" lon="5.90504">
        <ele>592.8</ele>
        <time>2021-02-09T15:09:24Z</time>
      </trkpt>
      <trkpt lat="46.85655" lon="5.90507">
        <ele>591.9</ele>
        <time>2021-02-09T15:09:28Z</time>
      </trkpt>
      <trkpt lat="46.8565" lon="5.90509">
        <ele>590.9</ele>
        <time>2021-02-09T15:09:31Z</time>
      </trkpt>
      <trkpt lat="46.85645" lon="5.90511">
        <ele>589.7</ele>
        <time>2021-02-09T15:09:35Z</time>
      </trkpt>
      <trkpt lat="46.85641" lon="5.90516">
        <ele>589.1</ele>
        <time>2021-02-09T15:09:39Z</time>
      </trkpt>
      <trkpt lat="46.85638" lon="5.9052">
        <ele>588.9</ele>
        <time>2021-02-09T15:09:44Z</time>
      </trkpt>
      <trkpt lat="46.85633" lon="5.90522">
        <ele>587.9</ele>
        <time>2021-02-09T15:09:52Z</time>
      </trkpt>
      <trkpt lat="46.85629" lon="5.90524">
        <ele>586.5</ele>
        <time>2021-02-09T15:09:58Z</time>
      </trkpt>
      <trkpt lat="46.85625" lon="5.90529">
        <ele>584.6</ele>
        <time>2021-02-09T15:10:05Z</time>
      </trkpt>
      <trkpt lat="46.85621" lon="5.90533">
        <ele>583.3</ele>
        <time>2021-02-09T15:10:13Z</time>
      </trkpt>
      <trkpt lat="46.85617" lon="5.90537">
        <ele>582.3</ele>
        <time>2021-02-09T15:10:20Z</time>
      </trkpt>
      <trkpt lat="46.85613" lon="5.90539">
        <ele>581.2</ele>
        <time>2021-02-09T15:10:26Z</time>
      </trkpt>
      <trkpt lat="46.85608" lon="5.9054">
        <ele>580.2</ele>
        <time>2021-02-09T15:10:31Z</time>
      </trkpt>
      <trkpt lat="46.85604" lon="5.90544">
        <ele>578.8</ele>
        <time>2021-02-09T15:10:37Z</time>
      </trkpt>
      <trkpt lat="46.856" lon="5.90548">
        <ele>577.4</ele>
        <time>2021-02-09T15:10:43Z</time>
      </trkpt>
      <trkpt lat="46.85596" lon="5.90553">
        <ele>576.1</ele>
        <time>2021-02-09T15:10:48Z</time>
      </trkpt>
      <trkpt lat="46.85592" lon="5.90557">
        <ele>575.2</ele>
        <time>2021-02-09T15:10:52Z</time>
      </trkpt>
      <trkpt lat="46.85588" lon="5.90561">
        <ele>574.3</ele>
        <time>2021-02-09T15:10:56Z</time>
      </trkpt>
      <trkpt lat="46.85583" lon="5.90564">
        <ele>573.4</ele>
        <time>2021-02-09T15:11:00Z</time>
      </trkpt>
      <trkpt lat="46.85578" lon="5.90567">
        <ele>572.5</ele>
        <time>2021-02-09T15:11:04Z</time>
      </trkpt>
      <trkpt lat="46.85574" lon="5.90569">
        <ele>571.6</ele>
        <time>2021-02-09T15:11:08Z</time>
      </trkpt>
      <trkpt lat="46.8557" lon="5.90571">
        <ele>570.7</ele>
        <time>2021-02-09T15:11:12Z</time>
      </trkpt>
      <trkpt lat="46.85566" lon="5.90575">
        <ele>569.8</ele>
        <time>2021-02-09T15:11:16Z</time>
      </trkpt>
      <trkpt lat="46.85562" lon="5.9058">
        <ele>568.7</ele>
        <time>2021-02-09T15:11:20Z</time>
      </trkpt>
      <trkpt lat="46.85558" lon="5.90584">
        <ele>567.6</ele>
        <time>2021-02-09T15:11:24Z</time>
      </trkpt>
      <trkpt lat="46.85554" lon="5.90588">
        <ele>566.4</ele>
        <time>2021-02-09T15:11:28Z</time>
      </trkpt>
      <trkpt lat="46.8555" lon="5.90594">
        <ele>565.1</ele>
        <time>2021-02-09T15:11:32Z</time>
      </trkpt>
      <trkpt lat="46.85547" lon="5.906">
        <ele>563.5</ele>
        <time>2021-02-09T15:11:37Z</time>
      </trkpt>
      <trkpt lat="46.85544" lon="5.90604">
        <ele>562.3</ele>
        <time>2021-02-09T15:11:41Z</time>
      </trkpt>
      <trkpt lat="46.85541" lon="5.90609">
        <ele>560.6</ele>
        <time>2021-02-09T15:11:48Z</time>
      </trkpt>
      <trkpt lat="46.85536" lon="5.90612">
        <ele>559</ele>
        <time>2021-02-09T15:11:55Z</time>
      </trkpt>
      <trkpt lat="46.85533" lon="5.90617">
        <ele>557.1</ele>
        <time>2021-02-09T15:12:02Z</time>
      </trkpt>
      <trkpt lat="46.8553" lon="5.90622">
        <ele>556</ele>
        <time>2021-02-09T15:12:07Z</time>
      </trkpt>
      <trkpt lat="46.85525" lon="5.90627">
        <ele>554.9</ele>
        <time>2021-02-09T15:12:12Z</time>
      </trkpt>
      <trkpt lat="46.85521" lon="5.90631">
        <ele>554.1</ele>
        <time>2021-02-09T15:12:16Z</time>
      </trkpt>
      <trkpt lat="46.85517" lon="5.90635">
        <ele>553.6</ele>
        <time>2021-02-09T15:12:20Z</time>
      </trkpt>
      <trkpt lat="46.85513" lon="5.90638">
        <ele>553</ele>
        <time>2021-02-09T15:12:24Z</time>
      </trkpt>
      <trkpt lat="46.85508" lon="5.90642">
        <ele>552.4</ele>
        <time>2021-02-09T15:12:28Z</time>
      </trkpt>
      <trkpt lat="46.85504" lon="5.90647">
        <ele>551.7</ele>
        <time>2021-02-09T15:12:33Z</time>
      </trkpt>
      <trkpt lat="46.855" lon="5.90651">
        <ele>550.9</ele>
        <time>2021-02-09T15:12:37Z</time>
      </trkpt>
      <trkpt lat="46.85496" lon="5.90655">
        <ele>550.2</ele>
        <time>2021-02-09T15:12:41Z</time>
      </trkpt>
      <trkpt lat="46.85492" lon="5.90658">
        <ele>549.3</ele>
        <time>2021-02-09T15:12:46Z</time>
      </trkpt>
      <trkpt lat="46.85488" lon="5.90662">
        <ele>548.2</ele>
        <time>2021-02-09T15:12:51Z</time>
      </trkpt>
      <trkpt lat="46.85483" lon="5.90668">
        <ele>546.9</ele>
        <time>2021-02-09T15:12:56Z</time>
      </trkpt>
      <trkpt lat="46.8548" lon="5.90673">
        <ele>545.7</ele>
        <time>2021-02-09T15:13:00Z</time>
      </trkpt>
      <trkpt lat="46.85476" lon="5.90678">
        <ele>544.5</ele>
        <time>2021-02-09T15:13:04Z</time>
      </trkpt>
      <trkpt lat="46.85473" lon="5.90683">
        <ele>543.2</ele>
        <time>2021-02-09T15:13:08Z</time>
      </trkpt>
      <trkpt lat="46.8547" lon="5.90688">
        <ele>541.9</ele>
        <time>2021-02-09T15:13:12Z</time>
      </trkpt>
      <trkpt lat="46.85466" lon="5.90693">
        <ele>540.4</ele>
        <time>2021-02-09T15:13:17Z</time>
      </trkpt>
      <trkpt lat="46.85462" lon="5.90699">
        <ele>539.1</ele>
        <time>2021-02-09T15:13:22Z</time>
      </trkpt>
      <trkpt lat="46.85458" lon="5.90702">
        <ele>538.1</ele>
        <time>2021-02-09T15:13:26Z</time>
      </trkpt>
      <trkpt lat="46.85453" lon="5.90707">
        <ele>537.1</ele>
        <time>2021-02-09T15:13:30Z</time>
      </trkpt>
      <trkpt lat="46.85449" lon="5.90712">
        <ele>536.1</ele>
        <time>2021-02-09T15:13:34Z</time>
      </trkpt>
      <trkpt lat="46.85445" lon="5.90717">
        <ele>535.5</ele>
        <time>2021-02-09T15:13:37Z</time>
      </trkpt>
      <trkpt lat="46.85441" lon="5.90721">
        <ele>535.3</ele>
        <time>2021-02-09T15:13:40Z</time>
      </trkpt>
      <trkpt lat="46.85437" lon="5.90725">
        <ele>535</ele>
        <time>2021-02-09T15:13:44Z</time>
      </trkpt>
      <trkpt lat="46.85432" lon="5.90728">
        <ele>535</ele>
        <time>2021-02-09T15:13:48Z</time>
      </trkpt>
      <trkpt lat="46.85428" lon="5.90733">
        <ele>535</ele>
        <time>2021-02-09T15:13:51Z</time>
      </trkpt>
      <trkpt lat="46.85424" lon="5.90738">
        <ele>535</ele>
        <time>2021-02-09T15:13:54Z</time>
      </trkpt>
      <trkpt lat="46.85419" lon="5.90742">
        <ele>535.2</ele>
        <time>2021-02-09T15:13:58Z</time>
      </trkpt>
      <trkpt lat="46.85415" lon="5.90746">
        <ele>535.7</ele>
        <time>2021-02-09T15:14:03Z</time>
      </trkpt>
      <trkpt lat="46.85411" lon="5.90752">
        <ele>536.5</ele>
        <time>2021-02-09T15:14:08Z</time>
      </trkpt>
      <trkpt lat="46.85408" lon="5.90757">
        <ele>536.9</ele>
        <time>2021-02-09T15:14:13Z</time>
      </trkpt>
      <trkpt lat="46.85404" lon="5.90761">
        <ele>536.9</ele>
        <time>2021-02-09T15:14:17Z</time>
      </trkpt>
      <trkpt lat="46.854" lon="5.90765">
        <ele>536.8</ele>
        <time>2021-02-09T15:14:22Z</time>
      </trkpt>
      <trkpt lat="46.85396" lon="5.90769">
        <ele>536.8</ele>
        <time>2021-02-09T15:14:27Z</time>
      </trkpt>
      <trkpt lat="46.85391" lon="5.90772">
        <ele>537.1</ele>
        <time>2021-02-09T15:14:32Z</time>
      </trkpt>
      <trkpt lat="46.85386" lon="5.90775">
        <ele>537.7</ele>
        <time>2021-02-09T15:14:37Z</time>
      </trkpt>
      <trkpt lat="46.85382" lon="5.90779">
        <ele>538.3</ele>
        <time>2021-02-09T15:14:42Z</time>
      </trkpt>
      <trkpt lat="46.85378" lon="5.90783">
        <ele>538.8</ele>
        <time>2021-02-09T15:14:47Z</time>
      </trkpt>
      <trkpt lat="46.85374" lon="5.90786">
        <ele>539.2</ele>
        <time>2021-02-09T15:14:52Z</time>
      </trkpt>
      <trkpt lat="46.85369" lon="5.90789">
        <ele>539.4</ele>
        <time>2021-02-09T15:14:57Z</time>
      </trkpt>
      <trkpt lat="46.85365" lon="5.90793">
        <ele>539.5</ele>
        <time>2021-02-09T15:15:02Z</time>
      </trkpt>
      <trkpt lat="46.8536" lon="5.90797">
        <ele>539.2</ele>
        <time>2021-02-09T15:15:08Z</time>
      </trkpt>
      <trkpt lat="46.85356" lon="5.90801">
        <ele>538.6</ele>
        <time>2021-02-09T15:15:13Z</time>
      </trkpt>
      <trkpt lat="46.85352" lon="5.90806">
        <ele>538</ele>
        <time>2021-02-09T15:15:18Z</time>
      </trkpt>
      <trkpt lat="46.85348" lon="5.90811">
        <ele>537.4</ele>
        <time>2021-02-09T15:15:23Z</time>
      </trkpt>
      <trkpt lat="46.85344" lon="5.90814">
        <ele>536.8</ele>
        <time>2021-02-09T15:15:28Z</time>
      </trkpt>
      <trkpt lat="46.8534" lon="5.90819">
        <ele>536.5</ele>
        <time>2021-02-09T15:15:33Z</time>
      </trkpt>
      <trkpt lat="46.85336" lon="5.90822">
        <ele>536.7</ele>
        <time>2021-02-09T15:15:37Z</time>
      </trkpt>
      <trkpt lat="46.85331" lon="5.90824">
        <ele>536.9</ele>
        <time>2021-02-09T15:15:41Z</time>
      </trkpt>
      <trkpt lat="46.85327" lon="5.90827">
        <ele>536.9</ele>
        <time>2021-02-09T15:15:46Z</time>
      </trkpt>
      <trkpt lat="46.85323" lon="5.90831">
        <ele>536.7</ele>
        <time>2021-02-09T15:15:51Z</time>
      </trkpt>
      <trkpt lat="46.85318" lon="5.90834">
        <ele>536.8</ele>
        <time>2021-02-09T15:15:55Z</time>
      </trkpt>
      <trkpt lat="46.85314" lon="5.90836">
        <ele>537.4</ele>
        <time>2021-02-09T15:15:58Z</time>
      </trkpt>
      <trkpt lat="46.85309" lon="5.90839">
        <ele>538.4</ele>
        <time>2021-02-09T15:16:01Z</time>
      </trkpt>
      <trkpt lat="46.85306" lon="5.90843">
        <ele>539.3</ele>
        <time>2021-02-09T15:16:04Z</time>
      </trkpt>
      <trkpt lat="46.85301" lon="5.90846">
        <ele>541</ele>
        <time>2021-02-09T15:16:08Z</time>
      </trkpt>
      <trkpt lat="46.85296" lon="5.9085">
        <ele>542.5</ele>
        <time>2021-02-09T15:16:12Z</time>
      </trkpt>
      <trkpt lat="46.85291" lon="5.90853">
        <ele>543.6</ele>
        <time>2021-02-09T15:16:16Z</time>
      </trkpt>
      <trkpt lat="46.85287" lon="5.90857">
        <ele>544.1</ele>
        <time>2021-02-09T15:16:22Z</time>
      </trkpt>
      <trkpt lat="46.85283" lon="5.90862">
        <ele>541.7</ele>
        <time>2021-02-09T15:16:34Z</time>
      </trkpt>
      <trkpt lat="46.85279" lon="5.90866">
        <ele>540.8</ele>
        <time>2021-02-09T15:16:40Z</time>
      </trkpt>
      <trkpt lat="46.85275" lon="5.90872">
        <ele>540.6</ele>
        <time>2021-02-09T15:16:44Z</time>
      </trkpt>
      <trkpt lat="46.85271" lon="5.90877">
        <ele>540.2</ele>
        <time>2021-02-09T15:16:48Z</time>
      </trkpt>
      <trkpt lat="46.85268" lon="5.90884">
        <ele>540</ele>
        <time>2021-02-09T15:16:51Z</time>
      </trkpt>
      <trkpt lat="46.85265" lon="5.90889">
        <ele>539.7</ele>
        <time>2021-02-09T15:16:54Z</time>
      </trkpt>
      <trkpt lat="46.85261" lon="5.90895">
        <ele>539</ele>
        <time>2021-02-09T15:16:59Z</time>
      </trkpt>
      <trkpt lat="46.85256" lon="5.90898">
        <ele>538.3</ele>
        <time>2021-02-09T15:17:03Z</time>
      </trkpt>
      <trkpt lat="46.85253" lon="5.90902">
        <ele>537.5</ele>
        <time>2021-02-09T15:17:07Z</time>
      </trkpt>
      <trkpt lat="46.85249" lon="5.90906">
        <ele>536.7</ele>
        <time>2021-02-09T15:17:11Z</time>
      </trkpt>
      <trkpt lat="46.85245" lon="5.90911">
        <ele>536.3</ele>
        <time>2021-02-09T15:17:16Z</time>
      </trkpt>
      <trkpt lat="46.8524" lon="5.90914">
        <ele>535.9</ele>
        <time>2021-02-09T15:17:21Z</time>
      </trkpt>
      <trkpt lat="46.85236" lon="5.90918">
        <ele>536.2</ele>
        <time>2021-02-09T15:17:24Z</time>
      </trkpt>
      <trkpt lat="46.85231" lon="5.90921">
        <ele>536.5</ele>
        <time>2021-02-09T15:17:28Z</time>
      </trkpt>
      <trkpt lat="46.85227" lon="5.90925">
        <ele>536.8</ele>
        <time>2021-02-09T15:17:32Z</time>
      </trkpt>
      <trkpt lat="46.85223" lon="5.90929">
        <ele>537</ele>
        <time>2021-02-09T15:17:37Z</time>
      </trkpt>
      <trkpt lat="46.85219" lon="5.90934">
        <ele>536.7</ele>
        <time>2021-02-09T15:17:42Z</time>
      </trkpt>
      <trkpt lat="46.85216" lon="5.90938">
        <ele>536.3</ele>
        <time>2021-02-09T15:17:47Z</time>
      </trkpt>
      <trkpt lat="46.85212" lon="5.90942">
        <ele>535.8</ele>
        <time>2021-02-09T15:17:52Z</time>
      </trkpt>
      <trkpt lat="46.85208" lon="5.90945">
        <ele>535.6</ele>
        <time>2021-02-09T15:17:57Z</time>
      </trkpt>
      <trkpt lat="46.85203" lon="5.90949">
        <ele>535.9</ele>
        <time>2021-02-09T15:18:02Z</time>
      </trkpt>
      <trkpt lat="46.85198" lon="5.90952">
        <ele>535.9</ele>
        <time>2021-02-09T15:18:07Z</time>
      </trkpt>
      <trkpt lat="46.85193" lon="5.90956">
        <ele>536.1</ele>
        <time>2021-02-09T15:18:12Z</time>
      </trkpt>
      <trkpt lat="46.85189" lon="5.90962">
        <ele>537.2</ele>
        <time>2021-02-09T15:18:16Z</time>
      </trkpt>
      <trkpt lat="46.85184" lon="5.90966">
        <ele>538.7</ele>
        <time>2021-02-09T15:18:20Z</time>
      </trkpt>
      <trkpt lat="46.8518" lon="5.90969">
        <ele>540.1</ele>
        <time>2021-02-09T15:18:24Z</time>
      </trkpt>
      <trkpt lat="46.85176" lon="5.90973">
        <ele>540.7</ele>
        <time>2021-02-09T15:18:28Z</time>
      </trkpt>
      <trkpt lat="46.85172" lon="5.90977">
        <ele>541.3</ele>
        <time>2021-02-09T15:18:31Z</time>
      </trkpt>
      <trkpt lat="46.85169" lon="5.90982">
        <ele>541.8</ele>
        <time>2021-02-09T15:18:35Z</time>
      </trkpt>
      <trkpt lat="46.85166" lon="5.90986">
        <ele>542</ele>
        <time>2021-02-09T15:18:39Z</time>
      </trkpt>
      <trkpt lat="46.85161" lon="5.9099">
        <ele>542.4</ele>
        <time>2021-02-09T15:18:43Z</time>
      </trkpt>
      <trkpt lat="46.85158" lon="5.90995">
        <ele>542.5</ele>
        <time>2021-02-09T15:18:48Z</time>
      </trkpt>
      <trkpt lat="46.85153" lon="5.90999">
        <ele>542.3</ele>
        <time>2021-02-09T15:18:54Z</time>
      </trkpt>
      <trkpt lat="46.85149" lon="5.91002">
        <ele>543.1</ele>
        <time>2021-02-09T15:18:59Z</time>
      </trkpt>
      <trkpt lat="46.85144" lon="5.91008">
        <ele>544.5</ele>
        <time>2021-02-09T15:19:03Z</time>
      </trkpt>
      <trkpt lat="46.8514" lon="5.91013">
        <ele>545.9</ele>
        <time>2021-02-09T15:19:06Z</time>
      </trkpt>
      <trkpt lat="46.85136" lon="5.91017">
        <ele>548</ele>
        <time>2021-02-09T15:19:10Z</time>
      </trkpt>
      <trkpt lat="46.85132" lon="5.91021">
        <ele>550</ele>
        <time>2021-02-09T15:19:15Z</time>
      </trkpt>
      <trkpt lat="46.85129" lon="5.91027">
        <ele>551.5</ele>
        <time>2021-02-09T15:19:19Z</time>
      </trkpt>
      <trkpt lat="46.85125" lon="5.91032">
        <ele>552.8</ele>
        <time>2021-02-09T15:19:24Z</time>
      </trkpt>
      <trkpt lat="46.85121" lon="5.91036">
        <ele>553.4</ele>
        <time>2021-02-09T15:19:28Z</time>
      </trkpt>
      <trkpt lat="46.85116" lon="5.91039">
        <ele>553.7</ele>
        <time>2021-02-09T15:19:34Z</time>
      </trkpt>
      <trkpt lat="46.85112" lon="5.91042">
        <ele>553.8</ele>
        <time>2021-02-09T15:19:39Z</time>
      </trkpt>
      <trkpt lat="46.85107" lon="5.91046">
        <ele>554.7</ele>
        <time>2021-02-09T15:19:44Z</time>
      </trkpt>
      <trkpt lat="46.85101" lon="5.91049">
        <ele>555.9</ele>
        <time>2021-02-09T15:19:47Z</time>
      </trkpt>
      <trkpt lat="46.85097" lon="5.91052">
        <ele>557.4</ele>
        <time>2021-02-09T15:19:50Z</time>
      </trkpt>
      <trkpt lat="46.85092" lon="5.91057">
        <ele>559</ele>
        <time>2021-02-09T15:19:54Z</time>
      </trkpt>
      <trkpt lat="46.85088" lon="5.91062">
        <ele>560.3</ele>
        <time>2021-02-09T15:19:59Z</time>
      </trkpt>
      <trkpt lat="46.85083" lon="5.91066">
        <ele>561.3</ele>
        <time>2021-02-09T15:20:03Z</time>
      </trkpt>
      <trkpt lat="46.8508" lon="5.9107">
        <ele>562.2</ele>
        <time>2021-02-09T15:20:07Z</time>
      </trkpt>
      <trkpt lat="46.85076" lon="5.91073">
        <ele>562.7</ele>
        <time>2021-02-09T15:20:13Z</time>
      </trkpt>
      <trkpt lat="46.85071" lon="5.91076">
        <ele>562.6</ele>
        <time>2021-02-09T15:20:20Z</time>
      </trkpt>
      <trkpt lat="46.85066" lon="5.91077">
        <ele>562.4</ele>
        <time>2021-02-09T15:20:31Z</time>
      </trkpt>
      <trkpt lat="46.85061" lon="5.91081">
        <ele>562.1</ele>
        <time>2021-02-09T15:20:37Z</time>
      </trkpt>
      <trkpt lat="46.85057" lon="5.91084">
        <ele>561.9</ele>
        <time>2021-02-09T15:20:41Z</time>
      </trkpt>
      <trkpt lat="46.85053" lon="5.91087">
        <ele>561.7</ele>
        <time>2021-02-09T15:20:45Z</time>
      </trkpt>
      <trkpt lat="46.85049" lon="5.91089">
        <ele>561.4</ele>
        <time>2021-02-09T15:20:49Z</time>
      </trkpt>
      <trkpt lat="46.85044" lon="5.91093">
        <ele>561.2</ele>
        <time>2021-02-09T15:20:54Z</time>
      </trkpt>
      <trkpt lat="46.85039" lon="5.91096">
        <ele>561</ele>
        <time>2021-02-09T15:20:58Z</time>
      </trkpt>
      <trkpt lat="46.85035" lon="5.911">
        <ele>560.8</ele>
        <time>2021-02-09T15:21:02Z</time>
      </trkpt>
      <trkpt lat="46.8503" lon="5.91104">
        <ele>560.5</ele>
        <time>2021-02-09T15:21:07Z</time>
      </trkpt>
      <trkpt lat="46.85026" lon="5.91108">
        <ele>560.2</ele>
        <time>2021-02-09T15:21:12Z</time>
      </trkpt>
      <trkpt lat="46.85021" lon="5.91111">
        <ele>560.1</ele>
        <time>2021-02-09T15:21:17Z</time>
      </trkpt>
      <trkpt lat="46.85016" lon="5.91113">
        <ele>559.7</ele>
        <time>2021-02-09T15:21:23Z</time>
      </trkpt>
      <trkpt lat="46.85011" lon="5.91116">
        <ele>559.5</ele>
        <time>2021-02-09T15:21:29Z</time>
      </trkpt>
      <trkpt lat="46.85007" lon="5.91119">
        <ele>559.6</ele>
        <time>2021-02-09T15:21:34Z</time>
      </trkpt>
      <trkpt lat="46.85002" lon="5.91122">
        <ele>559.5</ele>
        <time>2021-02-09T15:21:40Z</time>
      </trkpt>
      <trkpt lat="46.84998" lon="5.91125">
        <ele>559.6</ele>
        <time>2021-02-09T15:21:45Z</time>
      </trkpt>
      <trkpt lat="46.84993" lon="5.91129">
        <ele>559.8</ele>
        <time>2021-02-09T15:21:49Z</time>
      </trkpt>
      <trkpt lat="46.84989" lon="5.91133">
        <ele>559.8</ele>
        <time>2021-02-09T15:21:53Z</time>
      </trkpt>
      <trkpt lat="46.84985" lon="5.91136">
        <ele>559.7</ele>
        <time>2021-02-09T15:21:57Z</time>
      </trkpt>
      <trkpt lat="46.8498" lon="5.91139">
        <ele>559.3</ele>
        <time>2021-02-09T15:22:02Z</time>
      </trkpt>
      <trkpt lat="46.84976" lon="5.91143">
        <ele>558.8</ele>
        <time>2021-02-09T15:22:06Z</time>
      </trkpt>
      <trkpt lat="46.84972" lon="5.91146">
        <ele>558.5</ele>
        <time>2021-02-09T15:22:10Z</time>
      </trkpt>
      <trkpt lat="46.84968" lon="5.9115">
        <ele>558.4</ele>
        <time>2021-02-09T15:22:14Z</time>
      </trkpt>
      <trkpt lat="46.84965" lon="5.91154">
        <ele>558.6</ele>
        <time>2021-02-09T15:22:17Z</time>
      </trkpt>
      <trkpt lat="46.84961" lon="5.91157">
        <ele>558.7</ele>
        <time>2021-02-09T15:22:21Z</time>
      </trkpt>
      <trkpt lat="46.84956" lon="5.91161">
        <ele>559.1</ele>
        <time>2021-02-09T15:22:24Z</time>
      </trkpt>
      <trkpt lat="46.84952" lon="5.91164">
        <ele>559.3</ele>
        <time>2021-02-09T15:22:28Z</time>
      </trkpt>
      <trkpt lat="46.84948" lon="5.91168">
        <ele>559.6</ele>
        <time>2021-02-09T15:22:32Z</time>
      </trkpt>
      <trkpt lat="46.84943" lon="5.91172">
        <ele>559.6</ele>
        <time>2021-02-09T15:22:36Z</time>
      </trkpt>
      <trkpt lat="46.84939" lon="5.91175">
        <ele>559.2</ele>
        <time>2021-02-09T15:22:40Z</time>
      </trkpt>
      <trkpt lat="46.84936" lon="5.91179">
        <ele>558.6</ele>
        <time>2021-02-09T15:22:44Z</time>
      </trkpt>
      <trkpt lat="46.84931" lon="5.91182">
        <ele>558</ele>
        <time>2021-02-09T15:22:48Z</time>
      </trkpt>
      <trkpt lat="46.84927" lon="5.91185">
        <ele>557</ele>
        <time>2021-02-09T15:22:53Z</time>
      </trkpt>
      <trkpt lat="46.84923" lon="5.9119">
        <ele>555.9</ele>
        <time>2021-02-09T15:22:59Z</time>
      </trkpt>
      <trkpt lat="46.84919" lon="5.91194">
        <ele>554.6</ele>
        <time>2021-02-09T15:23:05Z</time>
      </trkpt>
      <trkpt lat="46.84915" lon="5.91198">
        <ele>553.8</ele>
        <time>2021-02-09T15:23:10Z</time>
      </trkpt>
      <trkpt lat="46.84911" lon="5.91202">
        <ele>553.3</ele>
        <time>2021-02-09T15:23:15Z</time>
      </trkpt>
      <trkpt lat="46.84907" lon="5.91208">
        <ele>553.6</ele>
        <time>2021-02-09T15:23:19Z</time>
      </trkpt>
      <trkpt lat="46.84903" lon="5.91214">
        <ele>554.4</ele>
        <time>2021-02-09T15:23:22Z</time>
      </trkpt>
      <trkpt lat="46.849" lon="5.91218">
        <ele>555.4</ele>
        <time>2021-02-09T15:23:25Z</time>
      </trkpt>
      <trkpt lat="46.84895" lon="5.91223">
        <ele>556.8</ele>
        <time>2021-02-09T15:23:29Z</time>
      </trkpt>
      <trkpt lat="46.84892" lon="5.91228">
        <ele>557.6</ele>
        <time>2021-02-09T15:23:33Z</time>
      </trkpt>
      <trkpt lat="46.84887" lon="5.91232">
        <ele>558.3</ele>
        <time>2021-02-09T15:23:38Z</time>
      </trkpt>
      <trkpt lat="46.84883" lon="5.91235">
        <ele>559.3</ele>
        <time>2021-02-09T15:23:42Z</time>
      </trkpt>
      <trkpt lat="46.84878" lon="5.91237">
        <ele>559.8</ele>
        <time>2021-02-09T15:23:46Z</time>
      </trkpt>
      <trkpt lat="46.84874" lon="5.91239">
        <ele>560.2</ele>
        <time>2021-02-09T15:23:50Z</time>
      </trkpt>
      <trkpt lat="46.84869" lon="5.91241">
        <ele>560.7</ele>
        <time>2021-02-09T15:23:54Z</time>
      </trkpt>
      <trkpt lat="46.84864" lon="5.91244">
        <ele>561.2</ele>
        <time>2021-02-09T15:23:59Z</time>
      </trkpt>
      <trkpt lat="46.8486" lon="5.91247">
        <ele>561.4</ele>
        <time>2021-02-09T15:24:04Z</time>
      </trkpt>
      <trkpt lat="46.84855" lon="5.91251">
        <ele>561.2</ele>
        <time>2021-02-09T15:24:09Z</time>
      </trkpt>
      <trkpt lat="46.84851" lon="5.91254">
        <ele>561.4</ele>
        <time>2021-02-09T15:24:13Z</time>
      </trkpt>
      <trkpt lat="46.84847" lon="5.91257">
        <ele>561.9</ele>
        <time>2021-02-09T15:24:17Z</time>
      </trkpt>
      <trkpt lat="46.84842" lon="5.9126">
        <ele>562.2</ele>
        <time>2021-02-09T15:24:21Z</time>
      </trkpt>
      <trkpt lat="46.84838" lon="5.91262">
        <ele>562.3</ele>
        <time>2021-02-09T15:24:26Z</time>
      </trkpt>
      <trkpt lat="46.84833" lon="5.91265">
        <ele>562.1</ele>
        <time>2021-02-09T15:24:33Z</time>
      </trkpt>
      <trkpt lat="46.84829" lon="5.91268">
        <ele>562</ele>
        <time>2021-02-09T15:24:38Z</time>
      </trkpt>
      <trkpt lat="46.84825" lon="5.91271">
        <ele>561.7</ele>
        <time>2021-02-09T15:24:43Z</time>
      </trkpt>
      <trkpt lat="46.8482" lon="5.91275">
        <ele>561.3</ele>
        <time>2021-02-09T15:24:49Z</time>
      </trkpt>
      <trkpt lat="46.84816" lon="5.91278">
        <ele>561.1</ele>
        <time>2021-02-09T15:24:54Z</time>
      </trkpt>
      <trkpt lat="46.84811" lon="5.91281">
        <ele>560.8</ele>
        <time>2021-02-09T15:24:59Z</time>
      </trkpt>
      <trkpt lat="46.84806" lon="5.91283">
        <ele>560.9</ele>
        <time>2021-02-09T15:25:04Z</time>
      </trkpt>
      <trkpt lat="46.84802" lon="5.91286">
        <ele>561.4</ele>
        <time>2021-02-09T15:25:09Z</time>
      </trkpt>
      <trkpt lat="46.84797" lon="5.91288">
        <ele>561.8</ele>
        <time>2021-02-09T15:25:14Z</time>
      </trkpt>
      <trkpt lat="46.84792" lon="5.91291">
        <ele>562.3</ele>
        <time>2021-02-09T15:25:19Z</time>
      </trkpt>
      <trkpt lat="46.84787" lon="5.91294">
        <ele>562.8</ele>
        <time>2021-02-09T15:25:24Z</time>
      </trkpt>
      <trkpt lat="46.84783" lon="5.91299">
        <ele>563.6</ele>
        <time>2021-02-09T15:25:28Z</time>
      </trkpt>
      <trkpt lat="46.84779" lon="5.91303">
        <ele>564.7</ele>
        <time>2021-02-09T15:25:32Z</time>
      </trkpt>
      <trkpt lat="46.84774" lon="5.91307">
        <ele>565.7</ele>
        <time>2021-02-09T15:25:37Z</time>
      </trkpt>
      <trkpt lat="46.8477" lon="5.91312">
        <ele>566.7</ele>
        <time>2021-02-09T15:25:42Z</time>
      </trkpt>
      <trkpt lat="46.84764" lon="5.91315">
        <ele>568.6</ele>
        <time>2021-02-09T15:25:46Z</time>
      </trkpt>
      <trkpt lat="46.8476" lon="5.91319">
        <ele>570.3</ele>
        <time>2021-02-09T15:25:50Z</time>
      </trkpt>
      <trkpt lat="46.84756" lon="5.91322">
        <ele>571.7</ele>
        <time>2021-02-09T15:25:55Z</time>
      </trkpt>
      <trkpt lat="46.84751" lon="5.91323">
        <ele>572.6</ele>
        <time>2021-02-09T15:26:00Z</time>
      </trkpt>
      <trkpt lat="46.84746" lon="5.91325">
        <ele>573.6</ele>
        <time>2021-02-09T15:26:04Z</time>
      </trkpt>
      <trkpt lat="46.84741" lon="5.91328">
        <ele>574.8</ele>
        <time>2021-02-09T15:26:08Z</time>
      </trkpt>
      <trkpt lat="46.84736" lon="5.91331">
        <ele>576.5</ele>
        <time>2021-02-09T15:26:13Z</time>
      </trkpt>
      <trkpt lat="46.84731" lon="5.91332">
        <ele>578.3</ele>
        <time>2021-02-09T15:26:20Z</time>
      </trkpt>
      <trkpt lat="46.84725" lon="5.91333">
        <ele>580</ele>
        <time>2021-02-09T15:26:27Z</time>
      </trkpt>
      <trkpt lat="46.84721" lon="5.91335">
        <ele>581.4</ele>
        <time>2021-02-09T15:26:31Z</time>
      </trkpt>
      <trkpt lat="46.84716" lon="5.91338">
        <ele>583.1</ele>
        <time>2021-02-09T15:26:37Z</time>
      </trkpt>
      <trkpt lat="46.84711" lon="5.9134">
        <ele>584.2</ele>
        <time>2021-02-09T15:26:44Z</time>
      </trkpt>
      <trkpt lat="46.84707" lon="5.91341">
        <ele>584.5</ele>
        <time>2021-02-09T15:26:49Z</time>
      </trkpt>
      <trkpt lat="46.84701" lon="5.91342">
        <ele>584.6</ele>
        <time>2021-02-09T15:26:54Z</time>
      </trkpt>
      <trkpt lat="46.84696" lon="5.91344">
        <ele>585</ele>
        <time>2021-02-09T15:26:58Z</time>
      </trkpt>
      <trkpt lat="46.84691" lon="5.91346">
        <ele>585.4</ele>
        <time>2021-02-09T15:27:03Z</time>
      </trkpt>
      <trkpt lat="46.84686" lon="5.91348">
        <ele>586.1</ele>
        <time>2021-02-09T15:27:06Z</time>
      </trkpt>
      <trkpt lat="46.84681" lon="5.91351">
        <ele>586.9</ele>
        <time>2021-02-09T15:27:09Z</time>
      </trkpt>
      <trkpt lat="46.84676" lon="5.91353">
        <ele>587.9</ele>
        <time>2021-02-09T15:27:13Z</time>
      </trkpt>
      <trkpt lat="46.84671" lon="5.91355">
        <ele>588.7</ele>
        <time>2021-02-09T15:27:16Z</time>
      </trkpt>
      <trkpt lat="46.84667" lon="5.91356">
        <ele>589.4</ele>
        <time>2021-02-09T15:27:19Z</time>
      </trkpt>
      <trkpt lat="46.84661" lon="5.91358">
        <ele>590.4</ele>
        <time>2021-02-09T15:27:23Z</time>
      </trkpt>
      <trkpt lat="46.84656" lon="5.91359">
        <ele>591.3</ele>
        <time>2021-02-09T15:27:26Z</time>
      </trkpt>
      <trkpt lat="46.8465" lon="5.91362">
        <ele>592.6</ele>
        <time>2021-02-09T15:27:29Z</time>
      </trkpt>
      <trkpt lat="46.84647" lon="5.91367">
        <ele>594.9</ele>
        <time>2021-02-09T15:27:45Z</time>
      </trkpt>
      <trkpt lat="46.84634" lon="5.91371">
        <ele>600.2</ele>
        <time>2021-02-09T15:27:48Z</time>
      </trkpt>
      <trkpt lat="46.84627" lon="5.91372">
        <ele>603.9</ele>
        <time>2021-02-09T15:27:51Z</time>
      </trkpt>
      <trkpt lat="46.84622" lon="5.91374">
        <ele>606.8</ele>
        <time>2021-02-09T15:27:54Z</time>
      </trkpt>
      <trkpt lat="46.8462" lon="5.9138">
        <ele>611.2</ele>
        <time>2021-02-09T15:28:06Z</time>
      </trkpt>
      <trkpt lat="46.84616" lon="5.91384">
        <ele>612.8</ele>
        <time>2021-02-09T15:28:11Z</time>
      </trkpt>
      <trkpt lat="46.84612" lon="5.91388">
        <ele>615.5</ele>
        <time>2021-02-09T15:28:15Z</time>
      </trkpt>
      <trkpt lat="46.84608" lon="5.91393">
        <ele>619.3</ele>
        <time>2021-02-09T15:28:19Z</time>
      </trkpt>
      <trkpt lat="46.84604" lon="5.91397">
        <ele>623.2</ele>
        <time>2021-02-09T15:28:23Z</time>
      </trkpt>
      <trkpt lat="46.84601" lon="5.91402">
        <ele>629.1</ele>
        <time>2021-02-09T15:28:29Z</time>
      </trkpt>
      <trkpt lat="46.84595" lon="5.91405">
        <ele>634</ele>
        <time>2021-02-09T15:28:35Z</time>
      </trkpt>
      <trkpt lat="46.8459" lon="5.91409">
        <ele>635.3</ele>
        <time>2021-02-09T15:28:38Z</time>
      </trkpt>
      <trkpt lat="46.84586" lon="5.91412">
        <ele>636</ele>
        <time>2021-02-09T15:28:41Z</time>
      </trkpt>
      <trkpt lat="46.84581" lon="5.91415">
        <ele>636.6</ele>
        <time>2021-02-09T15:28:44Z</time>
      </trkpt>
      <trkpt lat="46.84576" lon="5.91419">
        <ele>637.2</ele>
        <time>2021-02-09T15:28:48Z</time>
      </trkpt>
      <trkpt lat="46.84572" lon="5.91423">
        <ele>637.4</ele>
        <time>2021-02-09T15:28:52Z</time>
      </trkpt>
      <trkpt lat="46.84567" lon="5.91428">
        <ele>637.8</ele>
        <time>2021-02-09T15:28:57Z</time>
      </trkpt>
      <trkpt lat="46.84563" lon="5.91432">
        <ele>637.8</ele>
        <time>2021-02-09T15:29:01Z</time>
      </trkpt>
      <trkpt lat="46.84558" lon="5.91434">
        <ele>638.2</ele>
        <time>2021-02-09T15:29:06Z</time>
      </trkpt>
      <trkpt lat="46.84553" lon="5.91436">
        <ele>637.7</ele>
        <time>2021-02-09T15:29:11Z</time>
      </trkpt>
      <trkpt lat="46.84549" lon="5.91438">
        <ele>636.1</ele>
        <time>2021-02-09T15:29:16Z</time>
      </trkpt>
      <trkpt lat="46.84545" lon="5.91443">
        <ele>634.6</ele>
        <time>2021-02-09T15:29:21Z</time>
      </trkpt>
      <trkpt lat="46.8454" lon="5.91446">
        <ele>633.6</ele>
        <time>2021-02-09T15:29:26Z</time>
      </trkpt>
      <trkpt lat="46.84536" lon="5.91449">
        <ele>633</ele>
        <time>2021-02-09T15:29:30Z</time>
      </trkpt>
      <trkpt lat="46.84532" lon="5.91455">
        <ele>632.5</ele>
        <time>2021-02-09T15:29:35Z</time>
      </trkpt>
      <trkpt lat="46.84528" lon="5.9146">
        <ele>631.4</ele>
        <time>2021-02-09T15:29:40Z</time>
      </trkpt>
      <trkpt lat="46.84524" lon="5.91465">
        <ele>630.4</ele>
        <time>2021-02-09T15:29:44Z</time>
      </trkpt>
      <trkpt lat="46.8452" lon="5.91469">
        <ele>628.9</ele>
        <time>2021-02-09T15:29:48Z</time>
      </trkpt>
      <trkpt lat="46.84516" lon="5.91474">
        <ele>627</ele>
        <time>2021-02-09T15:29:54Z</time>
      </trkpt>
      <trkpt lat="46.84512" lon="5.91479">
        <ele>625.7</ele>
        <time>2021-02-09T15:29:59Z</time>
      </trkpt>
      <trkpt lat="46.84508" lon="5.91483">
        <ele>624.9</ele>
        <time>2021-02-09T15:30:04Z</time>
      </trkpt>
      <trkpt lat="46.84504" lon="5.91489">
        <ele>624.4</ele>
        <time>2021-02-09T15:30:09Z</time>
      </trkpt>
      <trkpt lat="46.84501" lon="5.91496">
        <ele>624</ele>
        <time>2021-02-09T15:30:14Z</time>
      </trkpt>
      <trkpt lat="46.84497" lon="5.91501">
        <ele>623.1</ele>
        <time>2021-02-09T15:30:20Z</time>
      </trkpt>
      <trkpt lat="46.84493" lon="5.91505">
        <ele>622.2</ele>
        <time>2021-02-09T15:30:25Z</time>
      </trkpt>
      <trkpt lat="46.84488" lon="5.91509">
        <ele>621.1</ele>
        <time>2021-02-09T15:30:30Z</time>
      </trkpt>
      <trkpt lat="46.84484" lon="5.91513">
        <ele>619.8</ele>
        <time>2021-02-09T15:30:35Z</time>
      </trkpt>
      <trkpt lat="46.84479" lon="5.91517">
        <ele>618.8</ele>
        <time>2021-02-09T15:30:40Z</time>
      </trkpt>
      <trkpt lat="46.84475" lon="5.9152">
        <ele>617.8</ele>
        <time>2021-02-09T15:30:46Z</time>
      </trkpt>
      <trkpt lat="46.84471" lon="5.91525">
        <ele>617</ele>
        <time>2021-02-09T15:30:52Z</time>
      </trkpt>
      <trkpt lat="46.84468" lon="5.9153">
        <ele>616.3</ele>
        <time>2021-02-09T15:30:58Z</time>
      </trkpt>
      <trkpt lat="46.84464" lon="5.91535">
        <ele>615.6</ele>
        <time>2021-02-09T15:31:03Z</time>
      </trkpt>
      <trkpt lat="46.8446" lon="5.91539">
        <ele>615.2</ele>
        <time>2021-02-09T15:31:07Z</time>
      </trkpt>
      <trkpt lat="46.84456" lon="5.91544">
        <ele>615</ele>
        <time>2021-02-09T15:31:12Z</time>
      </trkpt>
      <trkpt lat="46.84452" lon="5.91547">
        <ele>615.3</ele>
        <time>2021-02-09T15:31:15Z</time>
      </trkpt>
      <trkpt lat="46.84448" lon="5.91551">
        <ele>615.6</ele>
        <time>2021-02-09T15:31:18Z</time>
      </trkpt>
      <trkpt lat="46.84444" lon="5.91555">
        <ele>616</ele>
        <time>2021-02-09T15:31:22Z</time>
      </trkpt>
      <trkpt lat="46.8444" lon="5.9156">
        <ele>616.3</ele>
        <time>2021-02-09T15:31:26Z</time>
      </trkpt>
      <trkpt lat="46.84436" lon="5.91565">
        <ele>616.9</ele>
        <time>2021-02-09T15:31:30Z</time>
      </trkpt>
      <trkpt lat="46.84432" lon="5.91569">
        <ele>617.5</ele>
        <time>2021-02-09T15:31:35Z</time>
      </trkpt>
      <trkpt lat="46.84428" lon="5.91573">
        <ele>617.8</ele>
        <time>2021-02-09T15:31:40Z</time>
      </trkpt>
      <trkpt lat="46.84424" lon="5.91579">
        <ele>618</ele>
        <time>2021-02-09T15:31:45Z</time>
      </trkpt>
      <trkpt lat="46.84421" lon="5.91585">
        <ele>618.2</ele>
        <time>2021-02-09T15:31:48Z</time>
      </trkpt>
      <trkpt lat="46.84417" lon="5.9159">
        <ele>618.4</ele>
        <time>2021-02-09T15:31:52Z</time>
      </trkpt>
      <trkpt lat="46.84413" lon="5.91595">
        <ele>618.6</ele>
        <time>2021-02-09T15:31:56Z</time>
      </trkpt>
      <trkpt lat="46.8441" lon="5.916">
        <ele>619.3</ele>
        <time>2021-02-09T15:32:01Z</time>
      </trkpt>
      <trkpt lat="46.84405" lon="5.91604">
        <ele>619.8</ele>
        <time>2021-02-09T15:32:06Z</time>
      </trkpt>
      <trkpt lat="46.84401" lon="5.91607">
        <ele>620</ele>
        <time>2021-02-09T15:32:10Z</time>
      </trkpt>
      <trkpt lat="46.84397" lon="5.91611">
        <ele>620</ele>
        <time>2021-02-09T15:32:14Z</time>
      </trkpt>
      <trkpt lat="46.84394" lon="5.91615">
        <ele>620.2</ele>
        <time>2021-02-09T15:32:18Z</time>
      </trkpt>
      <trkpt lat="46.84391" lon="5.91622">
        <ele>620.2</ele>
        <time>2021-02-09T15:32:24Z</time>
      </trkpt>
      <trkpt lat="46.84387" lon="5.91627">
        <ele>619.9</ele>
        <time>2021-02-09T15:33:19Z</time>
      </trkpt>
      <trkpt lat="46.84382" lon="5.91624">
        <ele>620.5</ele>
        <time>2021-02-09T15:34:16Z</time>
      </trkpt>
      <trkpt lat="46.84378" lon="5.91627">
        <ele>621.7</ele>
        <time>2021-02-09T15:34:24Z</time>
      </trkpt>
      <trkpt lat="46.84375" lon="5.91633">
        <ele>622</ele>
        <time>2021-02-09T15:34:28Z</time>
      </trkpt>
      <trkpt lat="46.84372" lon="5.91638">
        <ele>622</ele>
        <time>2021-02-09T15:34:32Z</time>
      </trkpt>
      <trkpt lat="46.84369" lon="5.91643">
        <ele>621.9</ele>
        <time>2021-02-09T15:34:36Z</time>
      </trkpt>
      <trkpt lat="46.84366" lon="5.91648">
        <ele>621.4</ele>
        <time>2021-02-09T15:34:41Z</time>
      </trkpt>
      <trkpt lat="46.84362" lon="5.91652">
        <ele>620.7</ele>
        <time>2021-02-09T15:34:46Z</time>
      </trkpt>
      <trkpt lat="46.84358" lon="5.91656">
        <ele>619.5</ele>
        <time>2021-02-09T15:34:51Z</time>
      </trkpt>
      <trkpt lat="46.84354" lon="5.91662">
        <ele>618.4</ele>
        <time>2021-02-09T15:34:56Z</time>
      </trkpt>
      <trkpt lat="46.8435" lon="5.91666">
        <ele>617.3</ele>
        <time>2021-02-09T15:35:01Z</time>
      </trkpt>
      <trkpt lat="46.84346" lon="5.91671">
        <ele>616</ele>
        <time>2021-02-09T15:35:07Z</time>
      </trkpt>
      <trkpt lat="46.84343" lon="5.91676">
        <ele>614.5</ele>
        <time>2021-02-09T15:35:16Z</time>
      </trkpt>
      <trkpt lat="46.84339" lon="5.91678">
        <ele>614.7</ele>
        <time>2021-02-09T15:35:29Z</time>
      </trkpt>
      <trkpt lat="46.84335" lon="5.91681">
        <ele>615</ele>
        <time>2021-02-09T15:35:34Z</time>
      </trkpt>
      <trkpt lat="46.8433" lon="5.91682">
        <ele>615.1</ele>
        <time>2021-02-09T15:35:39Z</time>
      </trkpt>
      <trkpt lat="46.84325" lon="5.91686">
        <ele>615.4</ele>
        <time>2021-02-09T15:35:43Z</time>
      </trkpt>
      <trkpt lat="46.8432" lon="5.91688">
        <ele>615.7</ele>
        <time>2021-02-09T15:35:48Z</time>
      </trkpt>
      <trkpt lat="46.84315" lon="5.9169">
        <ele>615.8</ele>
        <time>2021-02-09T15:35:53Z</time>
      </trkpt>
      <trkpt lat="46.84311" lon="5.91694">
        <ele>615.6</ele>
        <time>2021-02-09T15:35:58Z</time>
      </trkpt>
      <trkpt lat="46.84307" lon="5.917">
        <ele>616.4</ele>
        <time>2021-02-09T15:36:02Z</time>
      </trkpt>
      <trkpt lat="46.84303" lon="5.91703">
        <ele>616.8</ele>
        <time>2021-02-09T15:36:06Z</time>
      </trkpt>
      <trkpt lat="46.84298" lon="5.91705">
        <ele>616.8</ele>
        <time>2021-02-09T15:36:10Z</time>
      </trkpt>
      <trkpt lat="46.84294" lon="5.91708">
        <ele>616.2</ele>
        <time>2021-02-09T15:36:15Z</time>
      </trkpt>
      <trkpt lat="46.84289" lon="5.91708">
        <ele>614.9</ele>
        <time>2021-02-09T15:36:21Z</time>
      </trkpt>
      <trkpt lat="46.84283" lon="5.91707">
        <ele>613.5</ele>
        <time>2021-02-09T15:36:26Z</time>
      </trkpt>
      <trkpt lat="46.84278" lon="5.91708">
        <ele>612.2</ele>
        <time>2021-02-09T15:36:31Z</time>
      </trkpt>
      <trkpt lat="46.84273" lon="5.91708">
        <ele>611.5</ele>
        <time>2021-02-09T15:36:37Z</time>
      </trkpt>
      <trkpt lat="46.84265" lon="5.9172">
        <ele>616</ele>
        <time>2021-02-09T15:36:40Z</time>
      </trkpt>
      <trkpt lat="46.84262" lon="5.91724">
        <ele>618.5</ele>
        <time>2021-02-09T15:36:43Z</time>
      </trkpt>
      <trkpt lat="46.84257" lon="5.91728">
        <ele>621</ele>
        <time>2021-02-09T15:36:48Z</time>
      </trkpt>
      <trkpt lat="46.84253" lon="5.91732">
        <ele>622.4</ele>
        <time>2021-02-09T15:36:52Z</time>
      </trkpt>
      <trkpt lat="46.84248" lon="5.91735">
        <ele>623.1</ele>
        <time>2021-02-09T15:36:58Z</time>
      </trkpt>
      <trkpt lat="46.84243" lon="5.91738">
        <ele>623.5</ele>
        <time>2021-02-09T15:37:03Z</time>
      </trkpt>
      <trkpt lat="46.84238" lon="5.91739">
        <ele>623.5</ele>
        <time>2021-02-09T15:37:07Z</time>
      </trkpt>
      <trkpt lat="46.84234" lon="5.91742">
        <ele>623.4</ele>
        <time>2021-02-09T15:37:12Z</time>
      </trkpt>
      <trkpt lat="46.84229" lon="5.91746">
        <ele>623.5</ele>
        <time>2021-02-09T15:37:17Z</time>
      </trkpt>
      <trkpt lat="46.84225" lon="5.91749">
        <ele>624.1</ele>
        <time>2021-02-09T15:37:21Z</time>
      </trkpt>
      <trkpt lat="46.8422" lon="5.91752">
        <ele>624.5</ele>
        <time>2021-02-09T15:37:28Z</time>
      </trkpt>
      <trkpt lat="46.84215" lon="5.91752">
        <ele>623.5</ele>
        <time>2021-02-09T15:37:37Z</time>
      </trkpt>
      <trkpt lat="46.8421" lon="5.91752">
        <ele>622.8</ele>
        <time>2021-02-09T15:37:42Z</time>
      </trkpt>
      <trkpt lat="46.84206" lon="5.91752">
        <ele>622.2</ele>
        <time>2021-02-09T15:37:46Z</time>
      </trkpt>
      <trkpt lat="46.842" lon="5.91753">
        <ele>621.1</ele>
        <time>2021-02-09T15:37:51Z</time>
      </trkpt>
      <trkpt lat="46.84196" lon="5.91754">
        <ele>620.2</ele>
        <time>2021-02-09T15:37:55Z</time>
      </trkpt>
      <trkpt lat="46.84191" lon="5.91755">
        <ele>618.9</ele>
        <time>2021-02-09T15:38:00Z</time>
      </trkpt>
      <trkpt lat="46.84186" lon="5.91754">
        <ele>617.6</ele>
        <time>2021-02-09T15:38:05Z</time>
      </trkpt>
      <trkpt lat="46.84181" lon="5.91755">
        <ele>617</ele>
        <time>2021-02-09T15:38:09Z</time>
      </trkpt>
      <trkpt lat="46.84176" lon="5.91758">
        <ele>616.5</ele>
        <time>2021-02-09T15:38:14Z</time>
      </trkpt>
      <trkpt lat="46.84171" lon="5.9176">
        <ele>616.3</ele>
        <time>2021-02-09T15:38:18Z</time>
      </trkpt>
      <trkpt lat="46.84167" lon="5.91761">
        <ele>616</ele>
        <time>2021-02-09T15:38:23Z</time>
      </trkpt>
      <trkpt lat="46.84162" lon="5.91763">
        <ele>615.2</ele>
        <time>2021-02-09T15:38:29Z</time>
      </trkpt>
      <trkpt lat="46.84157" lon="5.91765">
        <ele>613.8</ele>
        <time>2021-02-09T15:38:36Z</time>
      </trkpt>
      <trkpt lat="46.84152" lon="5.91767">
        <ele>612.1</ele>
        <time>2021-02-09T15:38:42Z</time>
      </trkpt>
      <trkpt lat="46.84147" lon="5.9177">
        <ele>611.7</ele>
        <time>2021-02-09T15:38:46Z</time>
      </trkpt>
      <trkpt lat="46.84142" lon="5.91773">
        <ele>612.2</ele>
        <time>2021-02-09T15:38:49Z</time>
      </trkpt>
      <trkpt lat="46.84137" lon="5.91775">
        <ele>613</ele>
        <time>2021-02-09T15:38:53Z</time>
      </trkpt>
      <trkpt lat="46.84133" lon="5.91774">
        <ele>613.7</ele>
        <time>2021-02-09T15:38:58Z</time>
      </trkpt>
      <trkpt lat="46.84128" lon="5.91773">
        <ele>614.2</ele>
        <time>2021-02-09T15:39:03Z</time>
      </trkpt>
      <trkpt lat="46.84123" lon="5.91774">
        <ele>614.8</ele>
        <time>2021-02-09T15:39:08Z</time>
      </trkpt>
      <trkpt lat="46.84118" lon="5.91773">
        <ele>615.2</ele>
        <time>2021-02-09T15:39:14Z</time>
      </trkpt>
      <trkpt lat="46.84113" lon="5.91775">
        <ele>615.6</ele>
        <time>2021-02-09T15:39:17Z</time>
      </trkpt>
      <trkpt lat="46.84108" lon="5.91774">
        <ele>615.9</ele>
        <time>2021-02-09T15:39:23Z</time>
      </trkpt>
      <trkpt lat="46.84103" lon="5.91777">
        <ele>616</ele>
        <time>2021-02-09T15:39:26Z</time>
      </trkpt>
      <trkpt lat="46.84098" lon="5.91778">
        <ele>616.3</ele>
        <time>2021-02-09T15:39:30Z</time>
      </trkpt>
      <trkpt lat="46.84091" lon="5.91782">
        <ele>616.6</ele>
        <time>2021-02-09T15:39:33Z</time>
      </trkpt>
      <trkpt lat="46.84085" lon="5.91785">
        <ele>617.1</ele>
        <time>2021-02-09T15:39:36Z</time>
      </trkpt>
      <trkpt lat="46.8408" lon="5.91787">
        <ele>618.7</ele>
        <time>2021-02-09T15:39:40Z</time>
      </trkpt>
      <trkpt lat="46.84076" lon="5.91783">
        <ele>620.3</ele>
        <time>2021-02-09T15:39:49Z</time>
      </trkpt>
      <trkpt lat="46.84071" lon="5.91781">
        <ele>620.5</ele>
        <time>2021-02-09T15:39:55Z</time>
      </trkpt>
      <trkpt lat="46.84067" lon="5.91778">
        <ele>620.2</ele>
        <time>2021-02-09T15:40:01Z</time>
      </trkpt>
      <trkpt lat="46.84062" lon="5.91777">
        <ele>619</ele>
        <time>2021-02-09T15:40:06Z</time>
      </trkpt>
      <trkpt lat="46.84057" lon="5.91778">
        <ele>617.9</ele>
        <time>2021-02-09T15:40:10Z</time>
      </trkpt>
      <trkpt lat="46.84052" lon="5.9178">
        <ele>616.9</ele>
        <time>2021-02-09T15:40:13Z</time>
      </trkpt>
      <trkpt lat="46.84047" lon="5.91784">
        <ele>615.5</ele>
        <time>2021-02-09T15:40:17Z</time>
      </trkpt>
      <trkpt lat="46.84042" lon="5.91784">
        <ele>614</ele>
        <time>2021-02-09T15:40:23Z</time>
      </trkpt>
      <trkpt lat="46.84037" lon="5.91784">
        <ele>613.2</ele>
        <time>2021-02-09T15:40:28Z</time>
      </trkpt>
      <trkpt lat="46.84032" lon="5.91784">
        <ele>612.3</ele>
        <time>2021-02-09T15:40:32Z</time>
      </trkpt>
      <trkpt lat="46.84027" lon="5.91786">
        <ele>611.6</ele>
        <time>2021-02-09T15:40:37Z</time>
      </trkpt>
      <trkpt lat="46.84023" lon="5.9179">
        <ele>611.5</ele>
        <time>2021-02-09T15:40:42Z</time>
      </trkpt>
      <trkpt lat="46.84018" lon="5.91793">
        <ele>611.7</ele>
        <time>2021-02-09T15:40:49Z</time>
      </trkpt>
      <trkpt lat="46.84014" lon="5.91799">
        <ele>612.6</ele>
        <time>2021-02-09T15:41:05Z</time>
      </trkpt>
      <trkpt lat="46.84009" lon="5.918">
        <ele>613.7</ele>
        <time>2021-02-09T15:41:11Z</time>
      </trkpt>
      <trkpt lat="46.84004" lon="5.91799">
        <ele>614.5</ele>
        <time>2021-02-09T15:41:16Z</time>
      </trkpt>
      <trkpt lat="46.83998" lon="5.91798">
        <ele>614.8</ele>
        <time>2021-02-09T15:41:20Z</time>
      </trkpt>
      <trkpt lat="46.83993" lon="5.91798">
        <ele>615.3</ele>
        <time>2021-02-09T15:41:25Z</time>
      </trkpt>
      <trkpt lat="46.83988" lon="5.91799">
        <ele>615.3</ele>
        <time>2021-02-09T15:41:32Z</time>
      </trkpt>
      <trkpt lat="46.83983" lon="5.91803">
        <ele>615.3</ele>
        <time>2021-02-09T15:41:38Z</time>
      </trkpt>
      <trkpt lat="46.83979" lon="5.91807">
        <ele>615.2</ele>
        <time>2021-02-09T15:41:43Z</time>
      </trkpt>
      <trkpt lat="46.83975" lon="5.91811">
        <ele>615</ele>
        <time>2021-02-09T15:41:48Z</time>
      </trkpt>
      <trkpt lat="46.8397" lon="5.91813">
        <ele>614.8</ele>
        <time>2021-02-09T15:41:52Z</time>
      </trkpt>
      <trkpt lat="46.83965" lon="5.91817">
        <ele>614.4</ele>
        <time>2021-02-09T15:41:56Z</time>
      </trkpt>
      <trkpt lat="46.8396" lon="5.91818">
        <ele>613.6</ele>
        <time>2021-02-09T15:42:02Z</time>
      </trkpt>
      <trkpt lat="46.83955" lon="5.9182">
        <ele>611.7</ele>
        <time>2021-02-09T15:42:08Z</time>
      </trkpt>
      <trkpt lat="46.8395" lon="5.91823">
        <ele>610.6</ele>
        <time>2021-02-09T15:42:12Z</time>
      </trkpt>
      <trkpt lat="46.83946" lon="5.91826">
        <ele>609.8</ele>
        <time>2021-02-09T15:42:17Z</time>
      </trkpt>
      <trkpt lat="46.83942" lon="5.91831">
        <ele>609.1</ele>
        <time>2021-02-09T15:42:22Z</time>
      </trkpt>
      <trkpt lat="46.83938" lon="5.91836">
        <ele>608.5</ele>
        <time>2021-02-09T15:42:27Z</time>
      </trkpt>
      <trkpt lat="46.83933" lon="5.91838">
        <ele>608</ele>
        <time>2021-02-09T15:42:32Z</time>
      </trkpt>
      <trkpt lat="46.83928" lon="5.91841">
        <ele>607.3</ele>
        <time>2021-02-09T15:42:38Z</time>
      </trkpt>
      <trkpt lat="46.83924" lon="5.91843">
        <ele>606.9</ele>
        <time>2021-02-09T15:42:43Z</time>
      </trkpt>
      <trkpt lat="46.83919" lon="5.91847">
        <ele>605.8</ele>
        <time>2021-02-09T15:42:50Z</time>
      </trkpt>
      <trkpt lat="46.83915" lon="5.9185">
        <ele>604.8</ele>
        <time>2021-02-09T15:42:56Z</time>
      </trkpt>
      <trkpt lat="46.8391" lon="5.91852">
        <ele>604.3</ele>
        <time>2021-02-09T15:43:01Z</time>
      </trkpt>
      <trkpt lat="46.83906" lon="5.91854">
        <ele>603.9</ele>
        <time>2021-02-09T15:43:07Z</time>
      </trkpt>
      <trkpt lat="46.83901" lon="5.91857">
        <ele>603.5</ele>
        <time>2021-02-09T15:43:12Z</time>
      </trkpt>
      <trkpt lat="46.83895" lon="5.9186">
        <ele>603.5</ele>
        <time>2021-02-09T15:43:17Z</time>
      </trkpt>
      <trkpt lat="46.83891" lon="5.91862">
        <ele>603.6</ele>
        <time>2021-02-09T15:43:22Z</time>
      </trkpt>
      <trkpt lat="46.83882" lon="5.91869">
        <ele>604.8</ele>
        <time>2021-02-09T15:43:26Z</time>
      </trkpt>
      <trkpt lat="46.83877" lon="5.91874">
        <ele>605.8</ele>
        <time>2021-02-09T15:43:29Z</time>
      </trkpt>
      <trkpt lat="46.83872" lon="5.91876">
        <ele>606.8</ele>
        <time>2021-02-09T15:43:34Z</time>
      </trkpt>
      <trkpt lat="46.83867" lon="5.91878">
        <ele>607.2</ele>
        <time>2021-02-09T15:43:39Z</time>
      </trkpt>
      <trkpt lat="46.83862" lon="5.91879">
        <ele>607.3</ele>
        <time>2021-02-09T15:43:44Z</time>
      </trkpt>
      <trkpt lat="46.83857" lon="5.9188">
        <ele>607.2</ele>
        <time>2021-02-09T15:43:50Z</time>
      </trkpt>
      <trkpt lat="46.83853" lon="5.91882">
        <ele>607</ele>
        <time>2021-02-09T15:43:54Z</time>
      </trkpt>
      <trkpt lat="46.83848" lon="5.91883">
        <ele>606.3</ele>
        <time>2021-02-09T15:43:59Z</time>
      </trkpt>
      <trkpt lat="46.83843" lon="5.91885">
        <ele>605.7</ele>
        <time>2021-02-09T15:44:04Z</time>
      </trkpt>
      <trkpt lat="46.83832" lon="5.9189">
        <ele>605.9</ele>
        <time>2021-02-09T15:44:10Z</time>
      </trkpt>
      <trkpt lat="46.83825" lon="5.91895">
        <ele>606.3</ele>
        <time>2021-02-09T15:44:13Z</time>
      </trkpt>
      <trkpt lat="46.8382" lon="5.91895">
        <ele>606.8</ele>
        <time>2021-02-09T15:44:20Z</time>
      </trkpt>
      <trkpt lat="46.83815" lon="5.91893">
        <ele>605.9</ele>
        <time>2021-02-09T15:44:44Z</time>
      </trkpt>
      <trkpt lat="46.83802" lon="5.919">
        <ele>606.6</ele>
        <time>2021-02-09T15:44:49Z</time>
      </trkpt>
      <trkpt lat="46.83793" lon="5.91904">
        <ele>607.1</ele>
        <time>2021-02-09T15:44:52Z</time>
      </trkpt>
      <trkpt lat="46.83789" lon="5.91905">
        <ele>608.1</ele>
        <time>2021-02-09T15:44:59Z</time>
      </trkpt>
      <trkpt lat="46.83785" lon="5.91906">
        <ele>608.6</ele>
        <time>2021-02-09T15:45:17Z</time>
      </trkpt>
      <trkpt lat="46.8378" lon="5.91909">
        <ele>607.9</ele>
        <time>2021-02-09T15:45:23Z</time>
      </trkpt>
      <trkpt lat="46.83775" lon="5.91912">
        <ele>607.3</ele>
        <time>2021-02-09T15:45:27Z</time>
      </trkpt>
      <trkpt lat="46.83764" lon="5.91921">
        <ele>607.9</ele>
        <time>2021-02-09T15:45:30Z</time>
      </trkpt>
      <trkpt lat="46.83758" lon="5.91925">
        <ele>608.4</ele>
        <time>2021-02-09T15:45:33Z</time>
      </trkpt>
      <trkpt lat="46.83753" lon="5.91924">
        <ele>608.8</ele>
        <time>2021-02-09T15:45:40Z</time>
      </trkpt>
      <trkpt lat="46.83748" lon="5.91926">
        <ele>608.3</ele>
        <time>2021-02-09T15:45:47Z</time>
      </trkpt>
      <trkpt lat="46.83742" lon="5.91928">
        <ele>608.1</ele>
        <time>2021-02-09T15:45:51Z</time>
      </trkpt>
      <trkpt lat="46.83737" lon="5.91929">
        <ele>608.1</ele>
        <time>2021-02-09T15:45:55Z</time>
      </trkpt>
      <trkpt lat="46.83732" lon="5.91928">
        <ele>607.4</ele>
        <time>2021-02-09T15:46:04Z</time>
      </trkpt>
      <trkpt lat="46.83727" lon="5.9193">
        <ele>606.8</ele>
        <time>2021-02-09T15:46:08Z</time>
      </trkpt>
      <trkpt lat="46.83723" lon="5.91931">
        <ele>606</ele>
        <time>2021-02-09T15:46:12Z</time>
      </trkpt>
      <trkpt lat="46.83718" lon="5.91934">
        <ele>605.1</ele>
        <time>2021-02-09T15:46:16Z</time>
      </trkpt>
      <trkpt lat="46.83714" lon="5.91936">
        <ele>603.9</ele>
        <time>2021-02-09T15:46:22Z</time>
      </trkpt>
      <trkpt lat="46.83709" lon="5.91936">
        <ele>603.1</ele>
        <time>2021-02-09T15:46:26Z</time>
      </trkpt>
      <trkpt lat="46.83703" lon="5.91939">
        <ele>602.4</ele>
        <time>2021-02-09T15:46:30Z</time>
      </trkpt>
      <trkpt lat="46.83698" lon="5.91942">
        <ele>601.8</ele>
        <time>2021-02-09T15:46:34Z</time>
      </trkpt>
      <trkpt lat="46.83694" lon="5.91944">
        <ele>601.1</ele>
        <time>2021-02-09T15:46:38Z</time>
      </trkpt>
      <trkpt lat="46.8369" lon="5.91947">
        <ele>600.6</ele>
        <time>2021-02-09T15:46:42Z</time>
      </trkpt>
      <trkpt lat="46.83685" lon="5.91948">
        <ele>600</ele>
        <time>2021-02-09T15:46:46Z</time>
      </trkpt>
      <trkpt lat="46.8368" lon="5.91948">
        <ele>599.4</ele>
        <time>2021-02-09T15:46:51Z</time>
      </trkpt>
      <trkpt lat="46.83675" lon="5.9195">
        <ele>598.7</ele>
        <time>2021-02-09T15:46:56Z</time>
      </trkpt>
      <trkpt lat="46.8367" lon="5.91952">
        <ele>598.1</ele>
        <time>2021-02-09T15:47:02Z</time>
      </trkpt>
      <trkpt lat="46.83666" lon="5.91954">
        <ele>598.5</ele>
        <time>2021-02-09T15:47:06Z</time>
      </trkpt>
      <trkpt lat="46.83661" lon="5.91955">
        <ele>599.2</ele>
        <time>2021-02-09T15:47:13Z</time>
      </trkpt>
      <trkpt lat="46.83656" lon="5.91956">
        <ele>599.2</ele>
        <time>2021-02-09T15:47:20Z</time>
      </trkpt>
      <trkpt lat="46.83651" lon="5.91959">
        <ele>599.2</ele>
        <time>2021-02-09T15:47:24Z</time>
      </trkpt>
      <trkpt lat="46.83647" lon="5.91961">
        <ele>599.5</ele>
        <time>2021-02-09T15:47:29Z</time>
      </trkpt>
      <trkpt lat="46.83641" lon="5.91962">
        <ele>599.8</ele>
        <time>2021-02-09T15:47:34Z</time>
      </trkpt>
      <trkpt lat="46.83636" lon="5.91964">
        <ele>600.2</ele>
        <time>2021-02-09T15:47:37Z</time>
      </trkpt>
      <trkpt lat="46.83632" lon="5.91968">
        <ele>600.7</ele>
        <time>2021-02-09T15:47:40Z</time>
      </trkpt>
      <trkpt lat="46.83627" lon="5.91969">
        <ele>601.2</ele>
        <time>2021-02-09T15:47:45Z</time>
      </trkpt>
      <trkpt lat="46.83622" lon="5.91971">
        <ele>601.3</ele>
        <time>2021-02-09T15:47:50Z</time>
      </trkpt>
      <trkpt lat="46.83617" lon="5.91973">
        <ele>601.4</ele>
        <time>2021-02-09T15:47:55Z</time>
      </trkpt>
      <trkpt lat="46.83613" lon="5.91974">
        <ele>601.2</ele>
        <time>2021-02-09T15:48:04Z</time>
      </trkpt>
      <trkpt lat="46.83607" lon="5.91974">
        <ele>601.2</ele>
        <time>2021-02-09T15:48:11Z</time>
      </trkpt>
      <trkpt lat="46.83602" lon="5.91975">
        <ele>601.4</ele>
        <time>2021-02-09T15:48:16Z</time>
      </trkpt>
      <trkpt lat="46.83593" lon="5.91986">
        <ele>604.2</ele>
        <time>2021-02-09T15:48:19Z</time>
      </trkpt>
      <trkpt lat="46.83588" lon="5.91988">
        <ele>606.2</ele>
        <time>2021-02-09T15:48:24Z</time>
      </trkpt>
      <trkpt lat="46.83584" lon="5.91989">
        <ele>607</ele>
        <time>2021-02-09T15:48:30Z</time>
      </trkpt>
      <trkpt lat="46.83579" lon="5.91992">
        <ele>607.1</ele>
        <time>2021-02-09T15:48:34Z</time>
      </trkpt>
      <trkpt lat="46.83575" lon="5.91993">
        <ele>606.8</ele>
        <time>2021-02-09T15:48:38Z</time>
      </trkpt>
      <trkpt lat="46.83569" lon="5.91997">
        <ele>607.4</ele>
        <time>2021-02-09T15:48:41Z</time>
      </trkpt>
      <trkpt lat="46.83563" lon="5.92004">
        <ele>608.8</ele>
        <time>2021-02-09T15:48:44Z</time>
      </trkpt>
      <trkpt lat="46.83559" lon="5.92007">
        <ele>610</ele>
        <time>2021-02-09T15:48:47Z</time>
      </trkpt>
      <trkpt lat="46.83554" lon="5.92008">
        <ele>611.3</ele>
        <time>2021-02-09T15:48:52Z</time>
      </trkpt>
      <trkpt lat="46.83549" lon="5.92008">
        <ele>612.1</ele>
        <time>2021-02-09T15:48:58Z</time>
      </trkpt>
      <trkpt lat="46.83545" lon="5.9201">
        <ele>612.8</ele>
        <time>2021-02-09T15:49:02Z</time>
      </trkpt>
      <trkpt lat="46.8354" lon="5.9201">
        <ele>613.8</ele>
        <time>2021-02-09T15:49:07Z</time>
      </trkpt>
      <trkpt lat="46.83535" lon="5.92012">
        <ele>615.1</ele>
        <time>2021-02-09T15:49:12Z</time>
      </trkpt>
      <trkpt lat="46.8353" lon="5.92014">
        <ele>616.4</ele>
        <time>2021-02-09T15:49:17Z</time>
      </trkpt>
      <trkpt lat="46.83525" lon="5.92016">
        <ele>617.6</ele>
        <time>2021-02-09T15:49:21Z</time>
      </trkpt>
      <trkpt lat="46.83521" lon="5.92013">
        <ele>618.5</ele>
        <time>2021-02-09T15:49:26Z</time>
      </trkpt>
      <trkpt lat="46.83517" lon="5.92008">
        <ele>618.5</ele>
        <time>2021-02-09T15:49:32Z</time>
      </trkpt>
      <trkpt lat="46.83512" lon="5.92007">
        <ele>617.9</ele>
        <time>2021-02-09T15:49:36Z</time>
      </trkpt>
      <trkpt lat="46.83507" lon="5.92007">
        <ele>617.3</ele>
        <time>2021-02-09T15:49:39Z</time>
      </trkpt>
      <trkpt lat="46.83503" lon="5.92009">
        <ele>617</ele>
        <time>2021-02-09T15:49:43Z</time>
      </trkpt>
      <trkpt lat="46.83497" lon="5.92009">
        <ele>616.4</ele>
        <time>2021-02-09T15:49:48Z</time>
      </trkpt>
      <trkpt lat="46.83493" lon="5.92009">
        <ele>616.1</ele>
        <time>2021-02-09T15:49:52Z</time>
      </trkpt>
      <trkpt lat="46.83487" lon="5.9201">
        <ele>615.8</ele>
        <time>2021-02-09T15:49:56Z</time>
      </trkpt>
      <trkpt lat="46.83482" lon="5.92011">
        <ele>615</ele>
        <time>2021-02-09T15:50:00Z</time>
      </trkpt>
      <trkpt lat="46.83477" lon="5.92011">
        <ele>613.9</ele>
        <time>2021-02-09T15:50:04Z</time>
      </trkpt>
      <trkpt lat="46.83472" lon="5.92008">
        <ele>612.9</ele>
        <time>2021-02-09T15:50:10Z</time>
      </trkpt>
      <trkpt lat="46.83467" lon="5.92008">
        <ele>612.8</ele>
        <time>2021-02-09T15:50:14Z</time>
      </trkpt>
      <trkpt lat="46.83461" lon="5.92007">
        <ele>612.7</ele>
        <time>2021-02-09T15:50:19Z</time>
      </trkpt>
      <trkpt lat="46.83456" lon="5.92007">
        <ele>612.3</ele>
        <time>2021-02-09T15:50:23Z</time>
      </trkpt>
      <trkpt lat="46.8345" lon="5.92007">
        <ele>611.8</ele>
        <time>2021-02-09T15:50:27Z</time>
      </trkpt>
      <trkpt lat="46.83445" lon="5.92004">
        <ele>610.5</ele>
        <time>2021-02-09T15:51:04Z</time>
      </trkpt>
      <trkpt lat="46.8344" lon="5.92004">
        <ele>609.9</ele>
        <time>2021-02-09T15:51:09Z</time>
      </trkpt>
      <trkpt lat="46.83436" lon="5.92003">
        <ele>609.3</ele>
        <time>2021-02-09T15:51:13Z</time>
      </trkpt>
      <trkpt lat="46.83431" lon="5.92002">
        <ele>608.8</ele>
        <time>2021-02-09T15:51:18Z</time>
      </trkpt>
      <trkpt lat="46.83425" lon="5.92001">
        <ele>608.7</ele>
        <time>2021-02-09T15:51:23Z</time>
      </trkpt>
      <trkpt lat="46.8342" lon="5.92001">
        <ele>608.7</ele>
        <time>2021-02-09T15:51:27Z</time>
      </trkpt>
      <trkpt lat="46.83415" lon="5.92">
        <ele>608.9</ele>
        <time>2021-02-09T15:51:31Z</time>
      </trkpt>
      <trkpt lat="46.8341" lon="5.91999">
        <ele>609.3</ele>
        <time>2021-02-09T15:51:36Z</time>
      </trkpt>
      <trkpt lat="46.83405" lon="5.91998">
        <ele>609.5</ele>
        <time>2021-02-09T15:51:40Z</time>
      </trkpt>
      <trkpt lat="46.83401" lon="5.91998">
        <ele>609.3</ele>
        <time>2021-02-09T15:51:44Z</time>
      </trkpt>
      <trkpt lat="46.83396" lon="5.91997">
        <ele>608.9</ele>
        <time>2021-02-09T15:51:48Z</time>
      </trkpt>
      <trkpt lat="46.83391" lon="5.91995">
        <ele>608.5</ele>
        <time>2021-02-09T15:51:53Z</time>
      </trkpt>
      <trkpt lat="46.83387" lon="5.91993">
        <ele>608.2</ele>
        <time>2021-02-09T15:51:57Z</time>
      </trkpt>
      <trkpt lat="46.83382" lon="5.91992">
        <ele>608.1</ele>
        <time>2021-02-09T15:52:02Z</time>
      </trkpt>
      <trkpt lat="46.83377" lon="5.9199">
        <ele>608.3</ele>
        <time>2021-02-09T15:52:07Z</time>
      </trkpt>
      <trkpt lat="46.83373" lon="5.91988">
        <ele>608.3</ele>
        <time>2021-02-09T15:52:12Z</time>
      </trkpt>
      <trkpt lat="46.83368" lon="5.91986">
        <ele>608.6</ele>
        <time>2021-02-09T15:52:18Z</time>
      </trkpt>
      <trkpt lat="46.83363" lon="5.91982">
        <ele>608.6</ele>
        <time>2021-02-09T15:52:23Z</time>
      </trkpt>
      <trkpt lat="46.83359" lon="5.9198">
        <ele>608.5</ele>
        <time>2021-02-09T15:52:28Z</time>
      </trkpt>
      <trkpt lat="46.83354" lon="5.91977">
        <ele>608.2</ele>
        <time>2021-02-09T15:52:33Z</time>
      </trkpt>
      <trkpt lat="46.83349" lon="5.91975">
        <ele>608.1</ele>
        <time>2021-02-09T15:52:37Z</time>
      </trkpt>
      <trkpt lat="46.83345" lon="5.91973">
        <ele>607.9</ele>
        <time>2021-02-09T15:52:41Z</time>
      </trkpt>
      <trkpt lat="46.83339" lon="5.91971">
        <ele>607.6</ele>
        <time>2021-02-09T15:52:46Z</time>
      </trkpt>
      <trkpt lat="46.83335" lon="5.91969">
        <ele>607.3</ele>
        <time>2021-02-09T15:52:50Z</time>
      </trkpt>
      <trkpt lat="46.8333" lon="5.91967">
        <ele>606.6</ele>
        <time>2021-02-09T15:52:54Z</time>
      </trkpt>
      <trkpt lat="46.83326" lon="5.91965">
        <ele>605.7</ele>
        <time>2021-02-09T15:52:58Z</time>
      </trkpt>
      <trkpt lat="46.83321" lon="5.91963">
        <ele>604.7</ele>
        <time>2021-02-09T15:53:02Z</time>
      </trkpt>
      <trkpt lat="46.83316" lon="5.9196">
        <ele>604</ele>
        <time>2021-02-09T15:53:07Z</time>
      </trkpt>
      <trkpt lat="46.83311" lon="5.91957">
        <ele>603.5</ele>
        <time>2021-02-09T15:53:12Z</time>
      </trkpt>
      <trkpt lat="46.83307" lon="5.91955">
        <ele>603</ele>
        <time>2021-02-09T15:53:16Z</time>
      </trkpt>
      <trkpt lat="46.83302" lon="5.91952">
        <ele>602.5</ele>
        <time>2021-02-09T15:53:20Z</time>
      </trkpt>
      <trkpt lat="46.83297" lon="5.91949">
        <ele>601.8</ele>
        <time>2021-02-09T15:53:25Z</time>
      </trkpt>
      <trkpt lat="46.83292" lon="5.91947">
        <ele>601.1</ele>
        <time>2021-02-09T15:53:29Z</time>
      </trkpt>
      <trkpt lat="46.83288" lon="5.91944">
        <ele>600.6</ele>
        <time>2021-02-09T15:53:33Z</time>
      </trkpt>
      <trkpt lat="46.83283" lon="5.91941">
        <ele>600.1</ele>
        <time>2021-02-09T15:53:37Z</time>
      </trkpt>
      <trkpt lat="46.83279" lon="5.91937">
        <ele>600</ele>
        <time>2021-02-09T15:53:42Z</time>
      </trkpt>
      <trkpt lat="46.83274" lon="5.91934">
        <ele>599.7</ele>
        <time>2021-02-09T15:53:47Z</time>
      </trkpt>
      <trkpt lat="46.8327" lon="5.91932">
        <ele>599.3</ele>
        <time>2021-02-09T15:53:51Z</time>
      </trkpt>
      <trkpt lat="46.83265" lon="5.9193">
        <ele>599.4</ele>
        <time>2021-02-09T15:53:55Z</time>
      </trkpt>
      <trkpt lat="46.83261" lon="5.91927">
        <ele>599.7</ele>
        <time>2021-02-09T15:53:59Z</time>
      </trkpt>
      <trkpt lat="46.83255" lon="5.91923">
        <ele>600.5</ele>
        <time>2021-02-09T15:54:04Z</time>
      </trkpt>
      <trkpt lat="46.8325" lon="5.91921">
        <ele>601.4</ele>
        <time>2021-02-09T15:54:09Z</time>
      </trkpt>
      <trkpt lat="46.83246" lon="5.91919">
        <ele>602.1</ele>
        <time>2021-02-09T15:54:13Z</time>
      </trkpt>
      <trkpt lat="46.83241" lon="5.91917">
        <ele>602.8</ele>
        <time>2021-02-09T15:54:17Z</time>
      </trkpt>
      <trkpt lat="46.83237" lon="5.91914">
        <ele>603.6</ele>
        <time>2021-02-09T15:54:22Z</time>
      </trkpt>
      <trkpt lat="46.83233" lon="5.91911">
        <ele>604.1</ele>
        <time>2021-02-09T15:54:26Z</time>
      </trkpt>
      <trkpt lat="46.83228" lon="5.91909">
        <ele>604.5</ele>
        <time>2021-02-09T15:54:30Z</time>
      </trkpt>
      <trkpt lat="46.83224" lon="5.91907">
        <ele>604.7</ele>
        <time>2021-02-09T15:54:34Z</time>
      </trkpt>
      <trkpt lat="46.83219" lon="5.91904">
        <ele>605</ele>
        <time>2021-02-09T15:54:39Z</time>
      </trkpt>
      <trkpt lat="46.83214" lon="5.91901">
        <ele>605.5</ele>
        <time>2021-02-09T15:54:44Z</time>
      </trkpt>
      <trkpt lat="46.83209" lon="5.91898">
        <ele>606.1</ele>
        <time>2021-02-09T15:54:48Z</time>
      </trkpt>
      <trkpt lat="46.83205" lon="5.91895">
        <ele>606.6</ele>
        <time>2021-02-09T15:54:53Z</time>
      </trkpt>
      <trkpt lat="46.832" lon="5.91892">
        <ele>606.9</ele>
        <time>2021-02-09T15:54:57Z</time>
      </trkpt>
      <trkpt lat="46.83196" lon="5.9189">
        <ele>607.3</ele>
        <time>2021-02-09T15:55:01Z</time>
      </trkpt>
      <trkpt lat="46.83191" lon="5.91887">
        <ele>607.7</ele>
        <time>2021-02-09T15:55:06Z</time>
      </trkpt>
      <trkpt lat="46.83186" lon="5.91885">
        <ele>607.9</ele>
        <time>2021-02-09T15:55:11Z</time>
      </trkpt>
      <trkpt lat="46.83182" lon="5.91883">
        <ele>608.1</ele>
        <time>2021-02-09T15:55:15Z</time>
      </trkpt>
      <trkpt lat="46.83177" lon="5.91881">
        <ele>608</ele>
        <time>2021-02-09T15:55:19Z</time>
      </trkpt>
      <trkpt lat="46.83172" lon="5.91878">
        <ele>607.5</ele>
        <time>2021-02-09T15:55:24Z</time>
      </trkpt>
      <trkpt lat="46.83168" lon="5.91876">
        <ele>607</ele>
        <time>2021-02-09T15:55:28Z</time>
      </trkpt>
      <trkpt lat="46.83163" lon="5.91873">
        <ele>606.7</ele>
        <time>2021-02-09T15:55:33Z</time>
      </trkpt>
      <trkpt lat="46.83158" lon="5.91871">
        <ele>606.8</ele>
        <time>2021-02-09T15:55:38Z</time>
      </trkpt>
      <trkpt lat="46.83153" lon="5.91868">
        <ele>607</ele>
        <time>2021-02-09T15:55:42Z</time>
      </trkpt>
      <trkpt lat="46.83148" lon="5.91865">
        <ele>607.1</ele>
        <time>2021-02-09T15:55:47Z</time>
      </trkpt>
      <trkpt lat="46.83144" lon="5.91862">
        <ele>607.1</ele>
        <time>2021-02-09T15:55:51Z</time>
      </trkpt>
      <trkpt lat="46.8314" lon="5.91859">
        <ele>607.1</ele>
        <time>2021-02-09T15:55:55Z</time>
      </trkpt>
      <trkpt lat="46.83136" lon="5.91857">
        <ele>606.9</ele>
        <time>2021-02-09T15:55:59Z</time>
      </trkpt>
      <trkpt lat="46.83131" lon="5.91855">
        <ele>606.8</ele>
        <time>2021-02-09T15:56:03Z</time>
      </trkpt>
      <trkpt lat="46.83127" lon="5.91853">
        <ele>606.6</ele>
        <time>2021-02-09T15:56:07Z</time>
      </trkpt>
      <trkpt lat="46.83122" lon="5.91851">
        <ele>606.4</ele>
        <time>2021-02-09T15:56:11Z</time>
      </trkpt>
      <trkpt lat="46.83117" lon="5.91848">
        <ele>606.4</ele>
        <time>2021-02-09T15:56:16Z</time>
      </trkpt>
      <trkpt lat="46.83112" lon="5.91845">
        <ele>606.5</ele>
        <time>2021-02-09T15:56:20Z</time>
      </trkpt>
      <trkpt lat="46.83107" lon="5.91842">
        <ele>606.5</ele>
        <time>2021-02-09T15:56:25Z</time>
      </trkpt>
      <trkpt lat="46.83102" lon="5.9184">
        <ele>606.5</ele>
        <time>2021-02-09T15:56:30Z</time>
      </trkpt>
      <trkpt lat="46.83098" lon="5.91839">
        <ele>606.6</ele>
        <time>2021-02-09T15:56:34Z</time>
      </trkpt>
      <trkpt lat="46.83093" lon="5.91837">
        <ele>606.7</ele>
        <time>2021-02-09T15:56:38Z</time>
      </trkpt>
      <trkpt lat="46.83089" lon="5.91834">
        <ele>606.9</ele>
        <time>2021-02-09T15:56:42Z</time>
      </trkpt>
      <trkpt lat="46.83084" lon="5.91832">
        <ele>607.1</ele>
        <time>2021-02-09T15:56:46Z</time>
      </trkpt>
      <trkpt lat="46.8308" lon="5.91829">
        <ele>607.2</ele>
        <time>2021-02-09T15:56:50Z</time>
      </trkpt>
      <trkpt lat="46.83075" lon="5.91827">
        <ele>607.2</ele>
        <time>2021-02-09T15:56:54Z</time>
      </trkpt>
      <trkpt lat="46.8307" lon="5.91826">
        <ele>607</ele>
        <time>2021-02-09T15:56:58Z</time>
      </trkpt>
      <trkpt lat="46.83065" lon="5.91823">
        <ele>606.6</ele>
        <time>2021-02-09T15:57:03Z</time>
      </trkpt>
      <trkpt lat="46.8306" lon="5.91821">
        <ele>606.2</ele>
        <time>2021-02-09T15:57:08Z</time>
      </trkpt>
      <trkpt lat="46.83056" lon="5.91818">
        <ele>606.2</ele>
        <time>2021-02-09T15:57:13Z</time>
      </trkpt>
      <trkpt lat="46.83051" lon="5.91815">
        <ele>606.5</ele>
        <time>2021-02-09T15:57:22Z</time>
      </trkpt>
      <trkpt lat="46.83046" lon="5.91813">
        <ele>606.7</ele>
        <time>2021-02-09T15:57:31Z</time>
      </trkpt>
      <trkpt lat="46.83041" lon="5.91812">
        <ele>606.9</ele>
        <time>2021-02-09T15:57:36Z</time>
      </trkpt>
      <trkpt lat="46.83036" lon="5.9181">
        <ele>606.8</ele>
        <time>2021-02-09T15:57:41Z</time>
      </trkpt>
      <trkpt lat="46.83031" lon="5.91807">
        <ele>606.1</ele>
        <time>2021-02-09T15:57:46Z</time>
      </trkpt>
      <trkpt lat="46.83026" lon="5.91805">
        <ele>605.5</ele>
        <time>2021-02-09T15:57:51Z</time>
      </trkpt>
      <trkpt lat="46.83021" lon="5.91802">
        <ele>604.5</ele>
        <time>2021-02-09T15:57:57Z</time>
      </trkpt>
      <trkpt lat="46.83016" lon="5.91799">
        <ele>603.3</ele>
        <time>2021-02-09T15:58:03Z</time>
      </trkpt>
      <trkpt lat="46.83012" lon="5.91797">
        <ele>602.8</ele>
        <time>2021-02-09T15:58:08Z</time>
      </trkpt>
      <trkpt lat="46.83007" lon="5.91795">
        <ele>602.5</ele>
        <time>2021-02-09T15:58:13Z</time>
      </trkpt>
      <trkpt lat="46.83002" lon="5.91792">
        <ele>602.4</ele>
        <time>2021-02-09T15:58:18Z</time>
      </trkpt>
      <trkpt lat="46.82997" lon="5.91789">
        <ele>602.6</ele>
        <time>2021-02-09T15:58:23Z</time>
      </trkpt>
      <trkpt lat="46.82993" lon="5.91787">
        <ele>602.6</ele>
        <time>2021-02-09T15:58:28Z</time>
      </trkpt>
      <trkpt lat="46.82989" lon="5.91784">
        <ele>602.7</ele>
        <time>2021-02-09T15:58:38Z</time>
      </trkpt>
      <trkpt lat="46.82984" lon="5.91783">
        <ele>603</ele>
        <time>2021-02-09T15:58:48Z</time>
      </trkpt>
      <trkpt lat="46.8298" lon="5.91782">
        <ele>602.9</ele>
        <time>2021-02-09T15:59:03Z</time>
      </trkpt>
      <trkpt lat="46.82975" lon="5.91779">
        <ele>602.9</ele>
        <time>2021-02-09T15:59:08Z</time>
      </trkpt>
      <trkpt lat="46.8297" lon="5.91776">
        <ele>602.8</ele>
        <time>2021-02-09T15:59:13Z</time>
      </trkpt>
      <trkpt lat="46.82965" lon="5.91772">
        <ele>602.8</ele>
        <time>2021-02-09T15:59:18Z</time>
      </trkpt>
      <trkpt lat="46.82961" lon="5.91768">
        <ele>602.7</ele>
        <time>2021-02-09T15:59:22Z</time>
      </trkpt>
      <trkpt lat="46.82957" lon="5.91765">
        <ele>602.7</ele>
        <time>2021-02-09T15:59:26Z</time>
      </trkpt>
      <trkpt lat="46.82952" lon="5.91761">
        <ele>602.4</ele>
        <time>2021-02-09T15:59:31Z</time>
      </trkpt>
      <trkpt lat="46.82947" lon="5.91757">
        <ele>601.8</ele>
        <time>2021-02-09T15:59:36Z</time>
      </trkpt>
      <trkpt lat="46.82943" lon="5.91753">
        <ele>601.4</ele>
        <time>2021-02-09T15:59:41Z</time>
      </trkpt>
      <trkpt lat="46.82938" lon="5.91751">
        <ele>601.3</ele>
        <time>2021-02-09T15:59:46Z</time>
      </trkpt>
      <trkpt lat="46.82934" lon="5.91749">
        <ele>601.2</ele>
        <time>2021-02-09T15:59:50Z</time>
      </trkpt>
      <trkpt lat="46.82928" lon="5.91748">
        <ele>601.1</ele>
        <time>2021-02-09T15:59:55Z</time>
      </trkpt>
      <trkpt lat="46.82923" lon="5.91747">
        <ele>600.9</ele>
        <time>2021-02-09T16:00:00Z</time>
      </trkpt>
      <trkpt lat="46.8292" lon="5.91743">
        <ele>601.5</ele>
        <time>2021-02-09T16:00:34Z</time>
      </trkpt>
    </trkseg>
  </trk>
</gpx>